[[{"header":{"parameterUnit":"m.s-1","parameterCategory":1,"la1":30.6,"la2":29.2853,"lo1":-89.7004,"lo2":-87.6739,"dy":0.0162,"dx":0.0183,"nx":112,"ny":82,"refTime":"2023-03-31T12:00:00:Z","depth":0,"parameterNumber":2,"parameterNumberName":"U-component_of_WINDS"},"data":[0.0,0.0,0.0,0.0,0.0,0.0,0.0,0.0,0.0,0.0,0.0,0.0,0.0,0.0,0.0,0.0,0.0,0.0,0.0,0.0,0.0,0.0,0.0,0.0,0.0,0.0,0.0,0.0,0.0,0.0,0.0,0.0,0.0,0.0,0.0,0.0,0.0,0.0,0.0,0.0,0.0,0.0,0.0,0.0,0.0,0.0,0.0,0.0,0.0,0.0,0.0,0.0,0.0,0.0,0.0,0.0,0.0,0.0,0.0,0.0,0.0,0.0,0.0,0.0,0.0,0.0,0.0,0.0,0.0,0.0,0.0,0.0,0.0,0.0,0.0,0.0,0.0,0.0,0.0,0.0,0.0,0.0,0.0,0.0,0.0,0.0,0.0,0.0,0.0,0.0,-4.0003,-4.5771,-5.2689,-5.7222,-5.8025,-5.9798,-5.7854,-5.0749,0.0,0.0,0.0,0.0,0.0,0.0,0.0,0.0,0.0,0.0,0.0,0.0,0.0,0.0,0.0,0.0,0.0,0.0,0.0,0.0,0.0,0.0,0.0,0.0,0.0,0.0,0.0,0.0,0.0,0.0,0.0,0.0,0.0,0.0,0.0,0.0,0.0,0.0,0.0,0.0,0.0,0.0,0.0,0.0,0.0,0.0,0.0,0.0,0.0,0.0,0.0,0.0,0.0,0.0,0.0,0.0,0.0,0.0,0.0,0.0,0.0,0.0,0.0,0.0,0.0,0.0,0.0,0.0,0.0,0.0,0.0,0.0,0.0,0.0,0.0,0.0,0.0,0.0,0.0,0.0,0.0,0.0,0.0,0.0,0.0,0.0,0.0,0.0,0.0,0.0,0.0,0.0,0.0,0.0,0.0,0.0,0.0,0.0,0.0,0.0,0.0,0.0,0.0,0.0,-4.4215,-4.8917,-5.3915,-5.7222,-5.8025,-5.8352,-5.6176,-5.0655,0.0,0.0,0.0,0.0,0.0,0.0,0.0,0.0,0.0,0.0,0.0,0.0,0.0,0.0,0.0,0.0,0.0,0.0,0.0,0.0,0.0,0.0,0.0,0.0,0.0,0.0,0.0,0.0,0.0,0.0,0.0,0.0,0.0,0.0,0.0,0.0,0.0,0.0,0.0,0.0,0.0,0.0,0.0,0.0,0.0,0.0,0.0,0.0,0.0,0.0,0.0,0.0,0.0,0.0,0.0,0.0,0.0,0.0,0.0,0.0,0.0,0.0,0.0,0.0,0.0,0.0,0.0,0.0,0.0,0.0,0.0,0.0,0.0,0.0,0.0,0.0,0.0,0.0,0.0,0.0,0.0,0.0,0.0,0.0,0.0,0.0,0.0,0.0,0.0,0.0,0.0,0.0,0.0,0.0,0.0,0.0,0.0,0.0,0.0,0.0,0.0,0.0,0.0,-4.3555,-4.6938,-4.9779,-5.3798,-5.6584,-5.7381,-5.7793,-5.5785,-5.0637,-5.0185,0.0,0.0,0.0,0.0,0.0,0.0,0.0,0.0,0.0,0.0,0.0,0.0,0.0,0.0,0.0,0.0,0.0,0.0,0.0,0.0,0.0,0.0,0.0,0.0,0.0,0.0,0.0,0.0,0.0,0.0,0.0,0.0,0.0,0.0,0.0,0.0,0.0,0.0,0.0,0.0,0.0,0.0,0.0,0.0,0.0,0.0,0.0,0.0,0.0,0.0,0.0,0.0,0.0,0.0,0.0,0.0,0.0,0.0,0.0,0.0,0.0,0.0,0.0,0.0,0.0,0.0,0.0,0.0,0.0,0.0,0.0,0.0,0.0,0.0,0.0,0.0,0.0,0.0,0.0,0.0,0.0,0.0,0.0,0.0,0.0,0.0,0.0,0.0,0.0,0.0,0.0,0.0,0.0,0.0,0.0,0.0,0.0,0.0,0.0,0.0,0.0,0.0,-4.5229,-4.7953,-5.0118,-5.3398,-5.5753,-5.6567,-5.6754,-5.4911,-5.0316,-4.874,0.0,0.0,0.0,0.0,0.0,0.0,0.0,0.0,0.0,0.0,0.0,0.0,0.0,0.0,0.0,0.0,0.0,0.0,0.0,0.0,0.0,0.0,0.0,0.0,0.0,0.0,0.0,0.0,0.0,0.0,0.0,0.0,0.0,0.0,0.0,0.0,0.0,0.0,0.0,0.0,0.0,0.0,0.0,0.0,0.0,0.0,0.0,0.0,0.0,0.0,0.0,0.0,0.0,0.0,0.0,0.0,0.0,0.0,0.0,0.0,0.0,0.0,0.0,0.0,0.0,0.0,0.0,0.0,0.0,0.0,0.0,0.0,0.0,0.0,0.0,0.0,0.0,0.0,0.0,0.0,0.0,0.0,0.0,0.0,0.0,0.0,0.0,0.0,0.0,0.0,0.0,0.0,0.0,0.0,0.0,0.0,0.0,0.0,0.0,0.0,0.0,0.0,-4.4198,-4.643,-5.0693,-5.3255,-5.4969,-5.572,-5.4397,-5.2288,-4.9376,-4.6326,0.0,0.0,0.0,0.0,0.0,0.0,0.0,0.0,0.0,0.0,0.0,0.0,0.0,0.0,0.0,0.0,0.0,0.0,0.0,0.0,0.0,0.0,0.0,0.0,0.0,0.0,0.0,0.0,0.0,0.0,0.0,0.0,0.0,0.0,0.0,0.0,0.0,0.0,0.0,0.0,0.0,0.0,0.0,0.0,0.0,0.0,0.0,0.0,0.0,0.0,0.0,0.0,0.0,0.0,0.0,0.0,0.0,0.0,0.0,0.0,0.0,0.0,0.0,0.0,0.0,0.0,0.0,0.0,0.0,0.0,0.0,0.0,0.0,0.0,0.0,0.0,0.0,0.0,0.0,0.0,0.0,0.0,0.0,0.0,0.0,0.0,0.0,0.0,0.0,0.0,0.0,0.0,0.0,0.0,0.0,0.0,0.0,0.0,0.0,0.0,0.0,0.0,-4.5415,-4.8325,0.0,-5.3227,-5.4695,-5.4982,-5.4024,-5.1941,-4.8556,0.0,0.0,0.0,0.0,0.0,0.0,0.0,0.0,0.0,0.0,0.0,0.0,0.0,0.0,0.0,0.0,0.0,0.0,0.0,0.0,0.0,0.0,0.0,0.0,0.0,0.0,0.0,0.0,0.0,0.0,0.0,0.0,0.0,0.0,0.0,0.0,0.0,0.0,0.0,0.0,0.0,0.0,0.0,0.0,0.0,0.0,0.0,0.0,0.0,0.0,0.0,0.0,0.0,0.0,0.0,0.0,0.0,0.0,0.0,0.0,0.0,0.0,0.0,0.0,0.0,0.0,0.0,0.0,0.0,0.0,0.0,0.0,0.0,0.0,0.0,0.0,0.0,0.0,0.0,0.0,0.0,0.0,0.0,0.0,0.0,0.0,0.0,0.0,0.0,0.0,0.0,0.0,0.0,0.0,0.0,0.0,0.0,0.0,0.0,0.0,0.0,0.0,-4.2236,-4.5805,-4.9052,0.0,-5.2816,-5.3963,-5.4243,-5.2424,-5.0214,-4.7708,0.0,0.0,0.0,0.0,0.0,0.0,0.0,0.0,0.0,0.0,0.0,0.0,0.0,0.0,0.0,0.0,0.0,0.0,0.0,0.0,0.0,0.0,0.0,0.0,0.0,0.0,0.0,0.0,0.0,0.0,0.0,0.0,0.0,0.0,0.0,0.0,0.0,0.0,0.0,0.0,0.0,0.0,0.0,0.0,0.0,0.0,0.0,0.0,0.0,0.0,0.0,0.0,0.0,0.0,0.0,0.0,0.0,0.0,0.0,0.0,0.0,0.0,0.0,0.0,0.0,0.0,0.0,0.0,0.0,0.0,0.0,0.0,0.0,0.0,0.0,0.0,0.0,0.0,0.0,0.0,0.0,0.0,0.0,0.0,0.0,0.0,0.0,0.0,0.0,0.0,0.0,0.0,0.0,0.0,0.0,0.0,0.0,0.0,0.0,0.0,0.0,0.0,-4.21,-4.4925,-4.7919,-5.0847,-5.186,-5.2607,-5.342,-4.9186,-4.6584,0.0,0.0,0.0,0.0,0.0,0.0,0.0,0.0,0.0,0.0,0.0,0.0,0.0,0.0,0.0,0.0,0.0,0.0,0.0,0.0,0.0,0.0,0.0,0.0,0.0,0.0,0.0,0.0,0.0,0.0,0.0,0.0,0.0,0.0,0.0,0.0,0.0,0.0,0.0,0.0,0.0,0.0,0.0,0.0,0.0,0.0,0.0,0.0,0.0,0.0,0.0,0.0,0.0,0.0,0.0,0.0,0.0,0.0,0.0,0.0,0.0,0.0,0.0,0.0,0.0,0.0,0.0,0.0,0.0,0.0,0.0,0.0,0.0,0.0,0.0,0.0,0.0,0.0,0.0,0.0,0.0,0.0,0.0,0.0,0.0,0.0,0.0,0.0,0.0,0.0,0.0,0.0,0.0,0.0,0.0,0.0,0.0,0.0,0.0,0.0,0.0,0.0,0.0,-4.21,-4.4468,-4.7158,-5.0118,-5.1082,-5.1619,-5.1858,-4.9171,-4.6851,-4.5333,0.0,0.0,0.0,0.0,0.0,0.0,0.0,0.0,0.0,0.0,0.0,0.0,0.0,0.0,0.0,0.0,0.0,0.0,0.0,0.0,0.0,0.0,0.0,0.0,0.0,0.0,0.0,0.0,0.0,0.0,0.0,0.0,0.0,0.0,0.0,0.0,0.0,0.0,0.0,0.0,0.0,0.0,0.0,0.0,0.0,0.0,0.0,0.0,0.0,0.0,0.0,0.0,0.0,0.0,0.0,0.0,0.0,0.0,0.0,0.0,0.0,0.0,0.0,0.0,0.0,0.0,0.0,0.0,0.0,0.0,0.0,0.0,0.0,0.0,0.0,0.0,0.0,0.0,0.0,0.0,0.0,0.0,0.0,0.0,0.0,0.0,0.0,0.0,0.0,0.0,0.0,0.0,0.0,0.0,0.0,0.0,0.0,0.0,0.0,0.0,0.0,0.0,-4.21,-4.4282,-4.6836,-4.9779,-5.049,-5.076,-5.076,-4.8477,-4.6464,-4.5111,0.0,0.0,0.0,0.0,0.0,0.0,0.0,0.0,0.0,0.0,0.0,0.0,0.0,0.0,0.0,0.0,0.0,0.0,0.0,0.0,0.0,0.0,0.0,0.0,0.0,0.0,0.0,0.0,0.0,0.0,0.0,0.0,0.0,0.0,0.0,0.0,0.0,0.0,0.0,0.0,0.0,0.0,0.0,0.0,0.0,0.0,0.0,0.0,0.0,0.0,0.0,0.0,0.0,0.0,0.0,0.0,0.0,0.0,0.0,0.0,0.0,0.0,0.0,0.0,0.0,0.0,0.0,0.0,0.0,0.0,0.0,0.0,0.0,0.0,0.0,0.0,0.0,0.0,0.0,0.0,0.0,0.0,0.0,0.0,0.0,0.0,0.0,0.0,0.0,0.0,0.0,0.0,0.0,0.0,0.0,0.0,0.0,0.0,0.0,0.0,0.0,0.0,-4.2202,-4.4265,-4.6735,-4.9678,-4.9982,-4.9982,-4.9982,-4.7428,-4.5737,-4.5618,0.0,0.0,0.0,0.0,0.0,0.0,0.0,0.0,0.0,0.0,0.0,0.0,0.0,0.0,0.0,0.0,0.0,0.0,0.0,0.0,0.0,0.0,0.0,0.0,0.0,0.0,0.0,0.0,0.0,0.0,0.0,0.0,0.0,0.0,0.0,0.0,0.0,0.0,0.0,0.0,0.0,0.0,0.0,0.0,0.0,0.0,0.0,0.0,0.0,0.0,0.0,0.0,0.0,0.0,0.0,0.0,0.0,0.0,0.0,0.0,-3.8826,0.0,0.0,0.0,0.0,0.0,0.0,0.0,0.0,0.0,0.0,0.0,0.0,0.0,0.0,0.0,0.0,0.0,0.0,0.0,0.0,0.0,0.0,0.0,0.0,0.0,0.0,0.0,0.0,0.0,0.0,0.0,0.0,0.0,0.0,0.0,0.0,0.0,0.0,0.0,0.0,0.0,-4.2997,-4.413,-4.5957,-4.8917,-4.9238,-4.9238,-4.9238,-4.7581,-4.6058,-4.4919,-4.2794,0.0,0.0,0.0,0.0,0.0,0.0,0.0,0.0,0.0,0.0,0.0,0.0,0.0,0.0,0.0,0.0,0.0,0.0,0.0,0.0,0.0,0.0,0.0,0.0,0.0,0.0,0.0,0.0,0.0,0.0,0.0,0.0,0.0,0.0,0.0,0.0,0.0,0.0,0.0,0.0,0.0,0.0,0.0,0.0,0.0,0.0,0.0,0.0,0.0,0.0,0.0,0.0,0.0,0.0,0.0,0.0,0.0,0.0,0.0,0.0,-3.9439,0.0,0.0,0.0,0.0,0.0,0.0,0.0,0.0,0.0,0.0,0.0,0.0,0.0,0.0,0.0,0.0,0.0,0.0,0.0,0.0,0.0,0.0,0.0,0.0,0.0,0.0,0.0,0.0,0.0,0.0,0.0,0.0,0.0,0.0,0.0,0.0,0.0,0.0,0.0,0.0,-4.3206,-4.4418,-4.6109,-4.8731,-4.9001,-4.9001,-4.9001,-4.7648,-4.6464,-4.5715,-4.3521,0.0,0.0,0.0,0.0,0.0,0.0,0.0,0.0,0.0,0.0,0.0,0.0,0.0,0.0,0.0,0.0,0.0,0.0,0.0,0.0,0.0,0.0,0.0,0.0,0.0,0.0,0.0,0.0,0.0,0.0,0.0,0.0,0.0,0.0,0.0,0.0,0.0,0.0,0.0,0.0,0.0,0.0,0.0,0.0,0.0,0.0,0.0,0.0,0.0,0.0,0.0,0.0,0.0,-3.8886,-3.9544,-4.0061,-4.0061,-3.9843,-3.9529,-4.1542,-4.1407,-3.9798,0.0,0.0,0.0,0.0,0.0,0.0,0.0,0.0,0.0,0.0,0.0,0.0,0.0,0.0,0.0,0.0,0.0,0.0,0.0,0.0,0.0,0.0,0.0,0.0,0.0,-4.3436,-4.2498,0.0,0.0,0.0,0.0,0.0,0.0,0.0,0.0,0.0,0.0,0.0,0.0,-4.3223,-4.4756,-4.6549,-4.8765,-4.8883,-4.8815,-4.8815,-4.7462,-4.6599,-4.6599,-4.4012,-4.2151,0.0,0.0,0.0,0.0,0.0,0.0,0.0,0.0,0.0,0.0,0.0,0.0,0.0,0.0,0.0,0.0,0.0,0.0,0.0,0.0,0.0,0.0,0.0,0.0,0.0,0.0,0.0,0.0,0.0,0.0,0.0,0.0,-3.1815,-3.4063,0.0,0.0,0.0,0.0,0.0,0.0,0.0,0.0,0.0,0.0,0.0,0.0,0.0,0.0,-3.8766,-4.0247,-4.0973,-4.0876,-4.2102,-4.2692,-4.2781,-4.2781,-4.305,-4.3494,-4.274,0.0,-4.1085,-4.0591,0.0,0.0,0.0,0.0,0.0,0.0,0.0,0.0,0.0,0.0,0.0,0.0,0.0,0.0,0.0,0.0,0.0,0.0,0.0,0.0,0.0,0.0,-4.6955,-4.7349,-4.5724,-4.4901,0.0,-4.5795,-4.3542,-4.4032,-4.4478,0.0,0.0,0.0,0.0,0.0,0.0,0.0,-4.3274,-4.4756,-4.6549,-4.8765,-4.8443,-4.8041,-4.8041,-4.6701,-4.5855,-4.5855,-4.4231,-4.2929,-4.2185,-4.3548,0.0,0.0,0.0,0.0,0.0,0.0,0.0,0.0,0.0,0.0,0.0,0.0,0.0,0.0,0.0,0.0,0.0,0.0,0.0,0.0,0.0,0.0,0.0,0.0,0.0,0.0,0.0,0.0,0.0,-3.2673,-3.4708,-3.4475,-3.6233,-3.6206,0.0,0.0,0.0,0.0,0.0,0.0,0.0,0.0,0.0,-3.9388,-4.0502,-4.0531,-3.9388,-4.1474,-4.2506,-4.2521,-4.3449,-4.4077,-4.4451,-4.4799,-4.5128,-4.5424,-4.5229,-4.4766,-4.4018,-4.2237,-4.1788,-4.1998,0.0,0.0,0.0,0.0,-3.7704,-3.905,-3.8781,-3.9962,0.0,0.0,0.0,0.0,0.0,0.0,0.0,0.0,0.0,0.0,0.0,0.0,0.0,-4.8925,-4.87,-4.8509,-4.9429,-4.7659,-4.5888,0.0,-4.5454,-4.4587,-4.2625,0.0,0.0,0.0,0.0,-4.3842,-4.4604,-4.6024,-4.7479,-4.8849,-4.8714,-4.8359,-4.7922,-4.6938,-4.6143,-4.5737,-4.4237,-4.3081,-4.232,-4.3785,-4.3548,0.0,0.0,0.0,0.0,0.0,0.0,0.0,0.0,0.0,0.0,0.0,0.0,0.0,0.0,0.0,0.0,0.0,0.0,0.0,0.0,0.0,0.0,0.0,0.0,0.0,0.0,0.0,0.0,-3.4687,-3.6557,-3.5125,-3.7491,-3.7845,0.0,0.0,0.0,0.0,0.0,0.0,-4.0091,-4.0801,-4.101,-4.0644,-4.2102,-4.2237,-4.0935,-4.306,-4.4137,-4.4152,-4.4781,-4.5424,-4.6067,-4.6411,-4.6666,-4.6845,-4.7174,-4.7025,-4.6396,-4.4077,-4.2925,-4.2536,-4.1354,-4.0801,-4.0494,-3.9334,-3.9858,-4.113,-4.0965,-4.1901,-4.3264,-4.3883,0.0,-4.3662,-4.4225,0.0,0.0,0.0,0.0,-4.5914,-4.8371,-4.8813,-4.8892,-5.0109,-5.0659,-5.0777,-5.0219,-4.8951,-4.772,0.0,-4.6177,-4.4874,-4.3166,0.0,0.0,0.0,0.0,-4.4818,-4.5348,-4.6887,-4.8189,-4.8934,-4.8832,-4.8426,-4.7699,-4.6938,-4.6194,-4.5466,-4.3978,-4.2878,-4.2303,-4.3227,-4.3098,-4.1796,0.0,0.0,0.0,0.0,0.0,0.0,0.0,0.0,0.0,0.0,0.0,0.0,0.0,0.0,0.0,0.0,0.0,0.0,0.0,0.0,0.0,0.0,0.0,0.0,0.0,0.0,0.0,0.0,0.0,-3.5784,-3.702,0.0,0.0,0.0,0.0,-3.6886,-3.9527,-4.1481,-4.2216,-4.2865,-4.3494,-4.4047,-4.4167,-4.4466,-4.499,-4.5783,-4.613,-4.6145,-4.6845,-4.7504,-4.8117,-4.7519,-4.7593,-4.8162,-4.7563,-4.7279,-4.7145,-4.5723,-4.5514,-4.5813,-4.3269,-4.3,-4.3763,-4.1235,-4.1519,-4.305,-4.2515,-4.3564,-4.5259,-4.5948,-4.6407,-4.6244,-4.3968,-4.4789,0.0,0.0,-4.7106,-4.8807,-4.8954,-5.0019,-5.1034,-5.1117,-5.0642,-5.0135,-5.0101,-4.8951,-4.7872,0.0,-4.6109,-4.4632,-4.4513,0.0,-4.2851,-4.1424,-4.3132,-4.4615,-4.4649,-4.6549,-4.8189,-4.8934,-4.8392,-4.7665,-4.6904,-4.6177,-4.5432,-4.4699,-4.32,-4.2337,-4.2286,-4.1694,-4.1982,-4.3257,-4.2709,0.0,0.0,0.0,0.0,0.0,0.0,0.0,0.0,0.0,0.0,0.0,0.0,0.0,0.0,0.0,0.0,0.0,0.0,0.0,0.0,0.0,0.0,0.0,0.0,0.0,0.0,0.0,0.0,-3.7803,-4.0295,0.0,-3.9934,-4.069,-4.0798,-3.9605,-4.1449,-4.2925,-4.3584,-4.3853,-4.4481,-4.5574,-4.5603,-4.5918,-4.6576,-4.683,-4.695,-4.6965,-4.7623,-4.7833,-4.7653,-4.7848,-4.8057,-4.8252,-4.7593,-4.7788,-4.8506,-4.7593,-4.686,-4.61,-4.4332,-4.4603,-4.5712,-4.3681,-4.4291,-4.606,-4.5206,-4.5364,-4.6044,-4.6529,-4.7642,-4.8481,-4.6995,-4.7537,-4.8694,-4.8926,-4.9243,-4.9759,-5.0851,-5.1522,-5.1911,-5.1911,-5.2097,-5.2012,-5.1031,-5.0373,-4.9731,-4.8798,-4.7192,-4.6007,-4.6007,-4.5771,-4.5246,-4.4248,-4.5602,-4.6735,-4.6735,-4.7834,-4.8714,-4.8968,-4.8765,-4.8122,-4.6887,-4.6549,-4.5889,-4.4682,-4.3159,-4.2286,-4.2286,-4.1593,-4.1677,-4.2675,-4.2912,-4.3047,0.0,0.0,0.0,0.0,0.0,0.0,0.0,0.0,0.0,0.0,0.0,0.0,0.0,0.0,0.0,0.0,0.0,0.0,0.0,0.0,0.0,0.0,0.0,0.0,0.0,0.0,-3.8965,-3.9859,-4.2326,-4.3537,-4.2456,-4.2955,-4.2857,-4.177,-4.3326,-4.45,-4.496,-4.52,-4.5738,-4.6636,-4.6875,-4.7189,-4.7638,-4.7863,-4.7863,-4.7638,-4.8072,-4.8177,-4.7982,-4.8192,-4.8162,-4.7952,-4.7967,-4.8087,-4.8297,-4.8521,-4.8335,-4.7743,-4.6891,-4.7327,-4.8341,-4.7426,-4.8066,-4.9311,-4.8666,-4.8254,-4.8096,-4.8465,-4.9471,-5.0373,-4.9583,-4.9946,-5.0758,-5.1224,-5.1008,-5.0977,-5.237,-5.2706,-5.2706,-5.2706,-5.2909,-5.2824,-5.1809,-5.0997,-5.0253,-4.9509,-4.8189,-4.7005,-4.6515,-4.621,-4.5703,-4.4705,-4.5382,-4.6024,-4.6024,-4.7107,-4.7902,-4.7902,-4.8562,-4.8409,-4.6921,-4.6566,-4.5906,-4.4682,-4.2912,-4.2151,-4.2642,-4.1255,-4.1035,-4.2269,-4.2777,-4.3284,-4.3773,0.0,0.0,0.0,0.0,0.0,0.0,0.0,0.0,0.0,0.0,0.0,0.0,0.0,0.0,0.0,0.0,0.0,0.0,0.0,0.0,0.0,0.0,0.0,-3.4059,-3.8048,-4.1128,-4.1889,-4.2854,-4.3409,-4.3409,-4.3494,-4.3494,-4.3424,-4.5218,-4.6309,-4.6309,-4.692,-4.7249,-4.7249,-4.7863,-4.8207,-4.8222,-4.894,-4.897,-4.8312,-4.8341,-4.8671,-4.9284,-4.8626,-4.7997,-4.7459,-4.8716,-4.8207,-4.6621,-4.8535,-4.998,-5.0951,-5.0894,-5.1124,-5.1619,-5.2292,-5.2549,-5.2533,-5.2501,-5.2052,-5.155,-5.1843,-5.1921,-5.1853,-5.1395,-5.1775,-5.2334,-5.2334,-5.2334,-5.252,-5.3298,-5.3501,-5.3501,-5.3501,-5.2909,-5.2334,-5.2317,-5.0625,-4.9306,-4.9965,-4.8951,-4.75,-4.6058,-4.5196,-4.4242,-4.2726,-4.2506,0.0,-4.2506,-4.4434,-4.5821,-4.5838,-4.7699,-4.8359,-4.6938,-4.6126,-4.5348,-4.4649,-4.2489,-4.1914,-4.3341,-4.0629,-4.0121,-4.2286,-4.2354,-4.379,-4.6638,0.0,0.0,0.0,0.0,0.0,0.0,0.0,0.0,0.0,0.0,0.0,0.0,0.0,0.0,0.0,0.0,0.0,0.0,0.0,0.0,0.0,0.0,-3.7139,-3.6949,-3.969,-4.222,-4.3482,-4.5153,-4.6217,-4.6217,-4.6217,-4.6217,-4.6217,-4.6726,-4.704,-4.704,-4.6277,-4.5843,-4.5843,-4.6022,-4.6367,-4.686,-4.7997,-4.8745,-4.9045,-4.9479,-4.9553,-4.9329,-4.9568,-4.9553,-4.9373,-4.9314,-4.9494,-4.9883,-5.0235,-5.1009,-5.1774,-5.0575,-5.1104,-5.2464,-5.1395,-5.1012,-5.0829,-4.9751,-5.0419,-5.1786,-5.1878,-5.2435,-5.3026,-5.2926,-5.301,-5.3179,-5.3179,-5.3179,-5.323,-5.345,-5.3501,-5.3501,-5.3501,-5.3331,-5.301,-5.2435,-5.1826,-5.1133,-5.0253,-4.9763,-4.9204,-4.8257,-4.7919,-4.7648,-4.7225,-4.7158,0.0,-4.7158,-4.7716,-4.8308,-4.8832,-4.7986,-4.7462,-4.7597,-4.594,-4.4835,-4.4615,-4.347,-4.297,-4.3375,-4.2117,-4.1931,-4.3081,-4.3656,-4.4387,0.0,0.0,0.0,0.0,0.0,0.0,0.0,0.0,0.0,0.0,0.0,0.0,0.0,0.0,0.0,0.0,0.0,0.0,0.0,0.0,0.0,0.0,-3.7501,-4.0232,-4.093,-4.2416,-4.3974,-4.5412,-4.6591,-4.7309,-4.7309,-4.7309,-4.7309,-4.7309,-4.7309,-4.7309,-4.7309,-4.683,-4.6157,-4.5319,-4.6636,-4.716,-4.6741,-4.8581,-4.9568,-4.9673,-5.0001,-5.0001,-4.9688,-5.0016,-4.9897,0.0,-4.9883,-5.0336,-5.068,-5.1051,-5.2104,0.0,0.0,0.0,0.0,0.0,-5.2622,-5.2491,-5.1585,-5.2029,-5.3042,-5.3042,-5.3242,-5.3501,-5.3501,-5.3061,-5.2553,-5.2553,-5.2097,-5.1758,-5.2384,-5.2553,-5.2706,-5.3348,-5.3501,-5.3382,-5.2909,-5.23,-5.1691,-5.1133,0.0,0.0,-4.9475,-4.8697,-4.7868,-4.7242,-4.687,-4.6667,-4.6667,-4.7225,-4.7784,-4.8206,-4.7665,-4.731,-4.7445,-4.5686,0.0,0.0,0.0,-4.2811,-4.2506,-4.2917,0.0,0.0,0.0,-4.4533,-4.5487,0.0,0.0,0.0,-4.6704,-4.5602,0.0,0.0,0.0,0.0,0.0,0.0,0.0,0.0,0.0,0.0,0.0,0.0,0.0,0.0,0.0,0.0,-3.9528,-4.278,-4.5371,-4.5738,-4.6127,-4.7174,-4.7309,-4.7309,-4.7309,-4.7309,-4.7309,-4.7309,-4.7309,-4.7339,-4.7414,0.0,0.0,0.0,0.0,-4.8985,-4.7429,-4.9868,-5.0808,-5.03,-5.03,-5.03,-5.03,-5.03,-4.9628,-4.8611,-5.0559,-5.0862,-5.0102,-5.1487,-5.325,-5.5033,-5.5033,-5.4812,-5.4532,-5.5023,-5.5276,-5.5446,-5.5225,0.0,0.0,-5.4465,-5.4025,-5.3501,-5.3501,-5.2553,-5.1438,-5.1438,-5.0524,-4.9813,-5.1133,-5.1438,-5.1809,-5.3179,-5.3501,-5.3501,-5.3501,-5.2435,-5.164,-5.2198,-5.071,-4.9526,-5.0016,-4.8392,-4.6583,-4.5309,-4.4485,-4.4018,-4.4018,-4.5246,-4.6109,-4.6194,0.0,0.0,-4.7073,-4.5534,-4.4649,-4.4733,-4.3379,-4.2286,-4.1745,-4.346,-4.3589,-4.1842,-4.3172,-4.4905,-4.6926,-4.7096,-4.8556,-5.1118,-4.763,-4.7,0.0,0.0,0.0,0.0,0.0,0.0,0.0,0.0,0.0,0.0,0.0,0.0,0.0,0.0,0.0,-4.1124,-4.3669,-4.6077,-4.8222,-4.855,-4.8207,-4.7399,-4.7309,-4.7309,-4.7309,-4.7309,-4.7309,-4.7309,-4.7309,-4.7534,-4.8072,-4.6681,0.0,-4.689,-4.7025,-4.7414,-4.8087,-4.9643,-5.0584,-5.0988,0.0,0.0,-5.0988,-5.0988,-5.0554,-4.9943,-5.1787,-5.1845,-5.0796,-5.2741,-5.4022,-5.4693,-5.4693,-5.4276,-5.3585,-5.2486,-5.2875,-5.3754,-5.2486,-5.2807,-5.3721,-5.3721,-5.3619,-5.3501,-5.3501,-5.3298,0.0,-5.3061,-5.2858,-5.2706,-5.2993,-5.3061,-5.3129,-5.3433,-5.3501,-5.3501,-5.3501,-5.3281,-5.2909,-5.2401,-5.1944,-5.1336,-5.027,-4.9255,-4.8477,-4.8189,-4.802,-4.7919,-4.7919,-4.8189,-4.8595,-4.9187,-4.7378,-4.6802,-4.8426,-4.6126,-4.4869,-4.5449,-4.4637,-4.435,-4.4807,-4.4642,-4.4875,-4.5544,-4.6468,-4.743,-4.8405,-4.9062,-5.0256,-5.1844,-4.993,-4.8952,0.0,0.0,0.0,0.0,0.0,0.0,0.0,0.0,0.0,0.0,0.0,-3.6724,0.0,0.0,-4.0981,-4.27,-4.4864,-4.701,-4.903,-4.9314,-4.894,-4.7923,-4.8087,-4.8027,-4.7369,-4.7593,-4.7653,-4.7339,-4.7309,-4.7593,-4.8252,-4.7653,-4.7294,-4.7309,-4.8252,-4.8626,-4.8282,-4.9912,-5.0885,-5.1214,-5.1214,-5.1214,-5.1214,-5.1804,-5.188,-5.1606,-5.2738,-5.3123,-5.3005,-5.3944,-5.4181,-5.4042,-5.4042,-5.4042,-5.3907,-5.2773,-5.2858,-5.3399,-5.2621,-5.2875,-5.3501,-5.3501,-5.3501,-5.3501,-5.3501,-5.2976,-5.2367,-5.2367,-5.1826,-5.142,-5.2164,-5.2367,-5.2553,-5.3331,-5.3501,-5.3501,-5.3501,-5.3501,-5.3382,-5.2993,-5.2587,-5.1944,-5.0845,-5.0033,-4.9424,-4.9069,-4.9001,-4.9001,-4.9001,-4.9001,-4.9137,-4.9509,-4.7564,-4.6701,-4.78,-4.5855,-4.4767,-4.5111,-4.5442,-4.5623,-4.5686,-4.6004,-4.6336,-4.6685,-4.779,-4.8535,-4.8864,-4.9629,-5.0554,-5.1576,-5.0434,-5.0065,0.0,0.0,0.0,0.0,0.0,0.0,0.0,0.0,-3.7958,-3.7473,-3.8613,-3.981,-3.9965,-4.1587,-4.3202,-4.4146,-4.585,-4.7683,-4.9404,-4.9689,-4.9359,-4.8566,-4.8985,-4.879,-4.7608,-4.7982,-4.8012,-4.7354,-4.7309,-4.7653,-4.8431,-4.885,-4.876,-4.8087,-5.0002,-5.0331,-4.8865,-5.0436,-5.1214,-5.1214,-5.1214,-5.1308,-5.1557,-5.2485,-5.2878,-5.2844,-5.3088,-5.3896,-5.4957,-5.4574,-5.4042,-5.3501,-5.3501,-5.3856,-5.4296,-5.3721,-5.3501,-5.3501,-5.3501,-5.3501,-5.3501,-5.3501,-5.3501,-5.3501,-5.3501,-5.2638,-5.1657,-5.1657,-5.0794,-5.0152,-5.1352,-5.1657,-5.1978,-5.3213,-5.3501,-5.3501,-5.3501,-5.3501,-5.3501,-5.3501,-5.2976,-5.2249,-5.1337,-5.071,-5.0016,-4.9137,-4.9001,-4.9001,-4.9001,-4.9001,-4.9001,-4.9001,-4.78,-4.7005,-4.7005,-4.5771,-4.5038,-4.5038,-4.5908,-4.6272,-4.5935,-4.697,-4.7414,-4.7189,-4.8333,-4.9038,-4.9291,-4.9913,-5.0662,-5.1494,-5.0695,-5.085,-3.5336,-3.2857,-3.077,-3.1986,-3.4235,-3.5971,0.0,0.0,-4.2921,-4.1184,-4.2827,-4.473,-4.534,-4.6139,-4.7134,-4.8417,-4.9284,-5.0031,-5.0885,-5.1005,-5.0541,-4.9344,-4.9269,-4.903,-4.8252,-4.8237,-4.8012,-4.7354,-4.7309,-4.7848,-4.9134,-4.8671,-4.9134,-5.0735,-5.045,-5.048,-5.0885,-5.1109,-5.1214,-5.1214,-5.1214,-5.1727,-5.2694,-5.2856,-5.2782,-5.2516,-5.221,-5.3042,-5.4614,-5.3923,-5.3568,-5.3501,-5.3501,-5.3551,-5.3619,-5.3534,-5.3501,-5.3501,-5.3501,-5.3501,-5.3501,-5.3501,-5.3501,-5.3501,-5.3501,-5.3382,-5.3247,-5.3247,-5.3129,-5.3044,-5.3213,-5.3247,-5.3298,-5.3467,-5.3501,-5.3501,-5.3501,-5.3501,-5.3501,-5.3501,-5.3433,-5.2909,-5.1471,-5.1117,-5.0608,-4.9221,-4.9001,-4.9001,-4.9001,-4.9001,-4.9001,-4.9001,-4.8274,-4.78,-4.78,-4.7022,-4.6532,-4.6532,-4.6094,-4.606,-4.6633,-4.6823,-4.7431,-4.8556,-4.8782,-4.9504,-5.0688,-5.0893,-5.1661,-5.2955,-5.2198,-5.1542,-3.4416,-3.4708,-3.5386,0.0,-3.8554,-4.1336,-4.1124,-4.3641,-4.5828,-4.499,-4.6007,-4.7234,-4.7908,-4.7638,-4.7863,0.0,-4.9419,-4.9598,-5.102,-5.0838,-5.0301,-4.9419,-4.8596,-4.7863,-4.7204,-4.7833,-4.7863,-4.6815,-4.7085,-4.7878,-4.9239,-4.9634,-5.0255,-5.1169,-5.1956,-5.1956,-5.1214,-5.1977,-5.1977,-5.1214,-5.229,-5.2824,-5.2945,-5.4221,-5.4654,-5.4341,-5.4161,-5.4068,-5.3974,-5.4093,-5.389,-5.3501,-5.3501,-5.3754,-5.4093,-5.367,-5.3501,-5.3501,-5.3501,-5.3501,-5.3501,-5.3501,-5.3501,-5.3501,-5.3501,-5.3501,-5.3501,-5.3501,-5.3501,-5.3501,-5.3501,-5.3501,-5.3501,-5.3501,-5.3501,-5.3501,-5.3501,-5.3501,-5.3501,-5.3501,-5.3501,-5.3162,-5.2046,-5.1472,-5.0862,-4.9796,-4.9272,-4.9001,-4.9001,-4.9001,-4.8849,-4.8426,-4.8075,-4.775,-4.731,-4.6972,-4.6786,-4.6786,-4.6921,-4.7124,-4.7445,-4.7851,-4.834,-4.8911,-4.9327,-5.0027,-5.1012,-5.1081,-5.1825,-5.3185,-5.2445,-5.2154,-3.4442,-3.6148,0.0,-3.902,-4.2013,-4.5005,-4.5918,-4.7294,-4.8386,-4.8386,-4.876,-4.9179,-4.9479,-4.8611,-4.8371,-4.9927,-4.9449,-4.9329,-5.075,-5.0376,-4.9523,-4.8356,-4.7174,-4.6082,-4.5065,-4.6651,-4.7429,-4.6651,-4.7204,-4.8072,-4.9254,-5.068,-5.1649,-5.1954,-5.3407,-5.3758,-5.2734,-5.3366,-5.326,-5.2475,-5.378,-5.4201,-5.3882,-5.5385,-5.604,-5.5987,-5.5581,-5.4803,-5.3839,-5.438,-5.416,-5.3501,-5.3501,-5.3822,-5.4228,-5.3704,-5.3636,-5.3771,-5.3568,-5.3501,-5.3501,-5.3501,-5.3501,-5.3501,-5.3501,-5.3501,-5.3501,-5.3501,-5.3501,-5.3501,-5.3501,-5.3501,-5.3501,-5.3501,-5.3501,-5.3501,-5.3501,-5.3501,-5.3501,-5.3501,-5.3501,-5.3247,-5.2435,-5.186,-5.1183,-5.0236,-4.9644,-4.9238,-4.9035,-4.9001,-4.8798,-4.8244,-4.8193,-4.8003,-4.7445,-4.7225,-4.7107,-4.7107,-4.7614,-4.7889,-4.7889,-4.8612,-4.9001,-4.9001,-4.9664,-5.0362,-5.1086,-5.1292,-5.2012,-5.3185,-5.2662,-5.2684,-3.5878,0.0,-3.5731,-4.0172,-4.2372,-4.4287,-4.7474,-4.9703,-5.1094,-5.1094,-5.1109,-5.0945,-5.0285,-4.9658,-4.9434,-5.0091,-5.0166,-5.0151,-5.0211,-4.9703,-4.8371,-4.5723,-4.4811,-4.3643,0.0,-4.4481,-4.6636,-4.7234,-4.7878,-4.8551,-4.9269,-5.1613,-5.3222,-5.3875,-5.4589,-5.5505,-5.6605,-5.5491,-5.5162,-5.557,-5.5645,-5.5804,-5.6116,-5.5839,-5.6104,-5.6697,-5.5243,-5.46,-5.4566,-5.4583,-5.416,-5.3501,-5.3501,-5.3518,-5.3534,-5.3518,-5.3957,-5.4448,-5.3754,-5.3501,-5.3501,-5.3501,-5.3501,-5.3501,-5.3501,-5.3501,-5.3501,-5.3501,-5.3501,-5.3501,-5.3501,-5.3501,-5.3501,-5.3501,-5.3501,-5.3501,-5.3501,-5.3501,-5.3501,-5.3501,-5.3501,-5.3247,-5.2435,-5.2283,-5.1775,-5.0304,-5.0067,-4.9796,-4.9086,-4.9001,-4.9001,-4.8968,-4.8968,-4.8968,-4.8934,-4.8291,-4.7855,-4.7855,-4.7872,-4.7889,-4.7889,-4.8612,-4.9001,-4.9001,-4.9664,-5.0362,-5.1086,-5.1741,-5.2468,-5.3185,-5.3185,-5.3185,0.0,0.0,-4.0935,-4.3374,-4.5978,-4.8566,-5.0975,-5.1708,-5.1872,-5.1872,-4.9793,-4.7758,-4.7085,-4.5708,-4.5376,-4.7324,-4.6847,-4.7176,-4.9822,-4.7788,-4.5978,-4.5978,-4.4575,0.0,0.0,0.0,0.0,-4.6287,-4.8239,-4.9974,-5.1356,-5.3113,-5.4401,-5.5098,-5.6211,-5.6797,-5.6814,-5.6797,-5.6419,-5.5687,-5.5953,-5.649,-5.7301,-5.6706,-5.6579,-5.6765,-5.6275,-5.5497,-5.4634,-5.5141,-5.4617,-5.3501,-5.3501,-5.3805,-5.416,-5.3687,-5.3957,-5.4482,-5.3754,-5.3501,-5.3501,-5.3501,-5.3501,-5.3501,-5.3501,-5.3501,-5.3501,-5.3501,-5.3501,-5.3501,-5.3501,-5.3501,-5.3501,-5.3501,-5.3501,-5.3501,-5.3501,-5.3501,-5.3501,-5.3501,-5.3501,-5.3416,-5.3145,-5.2655,-5.1978,-5.098,-4.9999,-4.9272,-4.9035,-4.9001,-4.9001,-4.9001,-4.9001,-4.9001,-4.9001,-4.8781,-4.8646,-4.8646,-4.8646,-4.8646,-4.8646,-4.8883,-4.9001,-4.9001,-4.9664,-5.0362,-5.1086,-5.1765,-5.2468,-5.3185,-5.3185,-5.3185,0.0,-4.0935,-4.4526,-4.6561,-4.9015,-5.1334,-5.283,-5.268,-5.1992,-5.1304,-4.8581,-4.5828,-4.4197,-4.2476,-4.2102,-4.4511,-4.4182,-4.493,-4.8611,-4.6743,-4.5185,-4.5559,-4.4426,-4.3838,0.0,0.0,0.0,-4.5629,-4.8059,-5.0112,-5.1579,-5.3579,-5.5297,-5.6672,-5.8038,-5.8615,-5.842,-5.8355,-5.7868,-5.6865,-5.6818,-5.7206,-5.7865,-5.7137,-5.6376,-5.5649,-5.619,-5.526,-5.3484,-5.4786,-5.46,-5.3501,-5.3501,-5.3788,-5.4143,-5.367,-5.3805,-5.4143,-5.367,-5.3501,-5.3501,-5.3501,-5.3501,-5.3501,-5.3501,-5.3501,-5.3501,-5.3501,-5.3501,-5.3501,-5.3501,-5.3501,-5.3501,-5.3501,-5.3501,-5.3501,-5.3501,-5.3501,-5.3501,-5.3501,-5.3501,-5.3501,-5.3501,-5.2841,-5.2147,-5.1674,-5.0338,-4.939,-4.939,-4.9171,-4.9001,-4.9001,-4.9001,-4.9001,-4.9001,-4.9001,-4.9001,-4.9001,-4.9001,-4.9001,-4.9001,-4.9226,-4.9376,-4.9394,-5.0297,-5.099,-5.1469,-5.2154,-5.2747,-5.3185,-5.3185,-5.3185,-4.1302,-4.4013,-4.6337,-4.9568,-5.1334,-5.2381,-5.3039,-5.2591,-5.1483,-4.9524,-4.7354,-4.487,0.0,0.0,-3.9723,-4.1901,-4.2216,-4.3384,-4.677,-4.6636,-4.5681,0.0,0.0,0.0,0.0,0.0,0.0,-4.5409,0.0,-4.948,-5.0438,-5.3401,-5.6173,-5.8566,-5.9902,-6.0844,-6.1366,-6.0144,-5.9322,-5.8947,-5.822,-5.7881,-5.7865,-5.7171,-5.5716,-5.3805,-5.5175,-5.4092,-5.1606,-5.3721,-5.416,-5.3501,-5.3501,-5.3501,-5.3501,-5.3501,-5.3501,-5.3501,-5.3501,-5.3501,-5.3501,-5.3501,-5.3501,-5.3501,-5.3501,-5.3501,-5.3501,-5.3501,-5.3501,-5.3501,-5.3501,-5.3501,-5.3501,-5.3501,-5.3501,-5.3501,-5.3501,-5.3501,-5.3501,-5.3501,-5.3501,-5.3501,-5.3501,-5.2875,-5.2367,-5.2367,-5.1099,-5.0135,-5.0084,-4.9458,-4.9001,-4.9001,-4.9001,-4.9001,-4.9001,-4.9001,-4.9001,-4.9001,-4.9001,-4.9001,-4.9063,-4.9664,-5.005,-5.0159,-5.1436,-5.2112,-5.2112,-5.2831,-5.3185,-5.3185,-5.3185,-5.3185,-4.324,-4.6337,-4.9613,-5.2486,-5.2695,-5.2381,-5.3039,-5.1543,-4.9314,-4.6815,-4.2776,-3.8975,0.0,0.0,0.0,-3.9454,-3.9738,0.0,-4.5903,-4.5098,0.0,-4.4975,0.0,-4.6067,-4.6711,-4.8368,0.0,0.0,-5.0326,-5.3462,-5.5816,-5.7416,-5.9003,-6.0556,-6.0613,-6.1094,-6.211,-6.0656,-5.9342,-5.8169,-5.7983,-5.7881,-5.7881,-5.7695,-5.7306,-5.6765,-5.6596,-5.5784,-5.4549,-5.4583,-5.416,-5.3501,-5.3501,-5.3501,-5.3501,-5.3501,-5.3501,-5.3501,-5.3501,-5.3501,-5.3501,-5.3501,-5.3501,-5.3501,-5.3501,-5.3501,-5.3501,-5.3501,-5.3501,-5.3501,-5.3501,-5.3501,-5.3501,-5.3501,-5.3501,-5.3501,-5.3501,-5.3501,-5.3501,-5.3501,-5.3501,-5.3501,-5.3501,-5.3331,-5.3196,-5.3196,-5.1911,-5.0727,-5.0152,-4.9458,-4.9001,-4.9001,-4.9001,-4.9001,-4.9001,-4.9001,-4.9001,-4.9001,-4.9001,-4.9243,-4.9722,-4.989,-5.0269,-5.0841,-5.1667,-5.2112,-5.2112,-5.2831,-5.3185,-5.3185,-5.3185,-5.3185,-4.6322,-4.9164,-5.1962,-5.3758,-5.3189,-5.1992,-5.1214,-4.8985,-4.6082,-4.2566,-3.902,-3.5789,-3.3215,-3.1824,0.0,0.0,0.0,0.0,-4.4306,-4.4261,-4.4257,0.0,-4.6337,0.0,-4.8596,-5.0577,-5.1184,0.0,-5.1905,-5.4057,-5.5979,-5.7721,-5.9289,-6.0719,-6.1163,-6.1398,-6.1383,-6.052,-5.9353,-5.7881,-5.7881,-5.7881,-5.7881,-5.7881,-5.7188,-5.597,0.0,-5.5344,-5.3771,-5.4008,-5.3873,-5.3501,-5.3501,-5.3501,-5.3501,-5.3501,-5.3501,-5.3501,-5.3501,-5.3501,-5.3501,-5.3501,-5.3501,-5.3501,-5.3501,-5.3501,-5.3501,-5.3501,-5.3501,-5.3501,-5.3501,-5.3501,-5.3501,-5.3501,-5.3501,-5.3501,-5.3501,-5.3501,-5.3501,-5.3501,-5.3501,-5.3501,-5.3501,-5.3501,-5.3501,-5.3501,-5.2469,-5.142,-5.0676,-4.9661,-4.9001,-4.9001,-4.9001,-4.9001,-4.9001,-4.9001,-4.9001,-4.9001,-4.9286,-4.9622,-4.9976,-5.0591,-5.112,-5.1519,-5.2242,-5.2576,-5.2576,-5.2999,-5.3185,-5.3185,-5.3185,-5.3185,-4.9418,-5.1678,-5.3339,-5.4042,-5.3069,-5.1304,-4.885,-4.6022,-4.2686,-3.8317,-3.6103,-3.4098,-3.118,-3.0567,-3.1659,-3.519,0.0,-3.8736,-4.2497,-4.3753,-4.4781,-4.6037,-4.6845,-4.7893,-4.9434,-5.1344,-5.2613,-5.2802,-5.286,-5.3381,-5.4503,-5.6915,-5.8842,-6.0212,-6.145,-6.14,-5.9979,-5.9945,-5.9252,-5.7881,-5.7881,-5.7881,-5.7881,-5.7881,-5.6444,-5.4008,0.0,0.0,-5.1758,-5.2993,-5.3501,-5.3501,-5.3501,-5.3501,-5.3501,-5.3501,-5.3501,-5.3501,-5.3501,-5.3501,-5.3501,-5.3501,-5.3501,-5.3501,-5.3501,-5.3501,-5.3501,-5.3501,-5.3501,-5.3501,-5.3501,-5.3501,-5.3501,-5.3501,-5.3501,-5.3501,-5.3501,-5.3501,-5.3501,-5.3501,-5.3501,-5.3501,-5.3501,-5.3501,-5.3501,-5.3501,-5.2824,-5.2029,-5.1269,-5.0016,-4.912,-4.9018,-4.9001,-4.9001,-4.9001,-4.9077,-4.9138,-4.9138,-4.978,-5.0185,-5.0297,-5.1451,-5.2136,-5.2247,-5.2985,-5.3371,-5.3371,-5.3371,-5.3371,-5.3371,-5.324,-5.3185,-5.0046,-5.1678,-5.3339,-5.4042,-5.2381,-5.0121,-4.8626,-4.4975,0.0,0.0,-3.4605,-3.2019,-3.1436,-3.0853,-3.1943,-3.6357,-3.727,-3.8422,-4.1309,-4.321,-4.4601,0.0,-4.6561,-4.8252,-5.0646,-5.0321,0.0,0.0,0.0,-5.5748,-5.8346,-6.0428,-6.1413,-6.1112,-6.0706,-6.008,-5.9218,-5.9201,-5.8761,-5.7881,-5.7881,-5.7881,-5.7881,-5.7881,-5.7289,-5.6207,-5.5869,0.0,-5.3974,-5.3636,-5.3501,-5.3501,-5.3501,-5.3501,-5.3501,-5.3501,-5.3501,-5.3501,-5.3501,-5.3501,-5.3501,-5.3501,-5.3501,-5.3501,-5.3501,-5.3501,-5.3501,-5.3501,-5.3501,-5.3501,-5.3501,-5.3501,-5.3501,-5.3501,-5.3501,-5.3501,-5.3501,-5.3501,-5.3501,-5.3501,-5.3501,-5.3501,-5.3501,-5.3501,-5.3501,-5.3501,-5.2824,-5.2029,-5.1269,-5.0439,-4.9678,-4.9069,-4.9001,-4.9001,-4.9001,-4.9521,-4.9821,-4.9821,-5.0517,-5.1164,-5.1716,-5.1976,-5.2381,-5.2999,-5.3784,-5.4197,-5.4197,-5.4197,-5.4197,-5.4179,-5.3518,-5.3185,-5.0704,-5.2456,-5.4311,-5.464,-5.2456,-4.9314,-4.5978,0.0,0.0,0.0,-3.2317,-3.0868,-3.0582,-3.0253,0.0,-3.5235,-3.6178,-3.7584,-4.092,-4.2491,0.0,-4.6097,-4.692,-4.8072,0.0,0.0,0.0,0.0,0.0,-5.6443,-5.7966,-5.9698,-6.0842,-6.1298,-6.0148,-5.937,-5.9015,-5.9015,-5.8626,-5.7881,-5.7881,-5.7881,-5.7881,-5.7881,-5.7492,-5.6765,-5.6038,0.0,-5.2875,-5.3315,-5.2807,-5.1843,-5.3044,-5.3501,-5.3501,-5.3501,-5.3501,-5.3501,-5.3501,-5.3501,-5.3501,-5.3501,-5.3501,-5.3501,-5.3501,-5.3501,-5.3501,-5.3501,-5.3501,-5.3501,-5.3501,-5.3501,-5.3501,-5.3501,-5.3501,-5.3501,-5.3501,-5.3501,-5.3501,-5.3501,-5.3501,-5.3501,-5.3501,-5.3501,-5.3501,-5.3501,-5.3179,-5.2655,-5.1877,-5.1471,-5.0676,-4.9171,-4.934,-4.9545,-4.9526,-5.02,-5.0608,-5.0589,-5.1241,-5.1741,-5.2089,-5.2468,-5.2831,-5.3185,-5.3995,-5.4399,-5.4399,-5.4399,-5.462,-5.5005,-5.4197,-5.383,-5.1319,-5.3264,-5.5119,-5.4835,-5.2276,-4.8551,-4.3728,-4.0239,0.0,-3.2093,-3.0806,-3.0447,-3.0253,-2.9983,-3.0851,0.0,-3.4666,-3.6133,-4.0367,-4.1452,-4.3015,0.0,-4.713,0.0,-4.9329,0.0,0.0,0.0,0.0,0.0,-5.7404,-5.8441,-5.9573,-6.0774,-5.9488,-5.8778,-5.8778,-5.8778,-5.8473,-5.7881,-5.7881,-5.7881,-5.7881,-5.7729,-5.7256,-5.6528,-5.5784,0.0,0.0,-5.2875,-5.2249,-5.0541,-5.2672,-5.3501,-5.3501,-5.3501,-5.3501,-5.3501,-5.3501,-5.3501,-5.3501,-5.3501,-5.3501,-5.3501,-5.3501,-5.3501,-5.3501,-5.3501,-5.3501,-5.3501,-5.3501,-5.3501,-5.3501,-5.3501,-5.3501,-5.3501,-5.3501,-5.3501,-5.3501,-5.3501,-5.3501,-5.3501,-5.3501,-5.3501,-5.3501,-5.3501,-5.3501,-5.3213,-5.2401,-5.23,-5.1572,-4.9678,-5.0153,-5.0591,-5.0512,-5.1202,-5.163,-5.1576,-5.206,-5.2335,-5.2335,-5.2875,-5.3185,-5.3185,-5.4161,-5.4656,-5.4656,-5.484,-5.5152,-5.5596,-5.4766,-5.4308,-5.1618,-5.3623,-5.4895,-5.3668,-5.09,-4.7563,-4.4092,0.0,-3.6013,-3.3694,-3.1764,-3.0866,-3.2033,-3.124,-3.1509,-3.4861,-3.3409,-3.3663,-3.8871,-3.9649,-4.113,-4.502,0.0,0.0,0.0,0.0,0.0,0.0,0.0,0.0,-5.967,-5.9291,-5.9082,-5.9218,-5.8423,-5.7983,-5.7983,-5.7983,-5.7949,-5.7881,-5.7881,-5.7881,-5.7865,-5.7205,-5.6511,-5.5784,-5.5023,0.0,0.0,-5.2875,-5.2553,-5.1268,-5.2875,-5.3501,-5.3501,-5.3501,-5.3501,-5.3501,-5.3501,-5.3501,-5.3501,-5.3501,-5.3501,-5.3501,-5.3501,-5.3501,-5.3501,-5.3501,-5.3501,-5.3501,-5.3501,-5.3501,-5.3501,-5.3501,-5.3501,-5.3501,-5.3501,-5.3501,-5.3501,-5.3501,-5.3501,-5.3501,-5.3501,-5.3501,-5.3501,-5.3501,-5.3501,-5.3213,-5.2401,-5.23,-5.1978,-5.1099,-5.1703,-5.2198,-5.2188,-5.275,-5.311,-5.3087,-5.3085,-5.3103,-5.3103,-5.3164,-5.3185,-5.3185,-5.4711,-5.5504,-5.5504,-5.6216,-5.6235,-5.5596,-5.4766,-5.4014,-4.9419,-5.2172,-5.4371,-5.3414,-5.0705,-4.7115,-4.2611,0.0,-3.5699,-3.2901,-3.166,-3.1256,-3.1795,-3.115,-3.1076,-3.2796,-3.1854,0.0,-3.7015,-3.7973,-4.0127,-4.5304,0.0,0.0,0.0,0.0,0.0,0.0,0.0,0.0,-5.8619,-5.849,-5.8541,-5.8998,-5.8271,-5.7881,-5.7881,-5.7881,-5.7881,-5.7881,-5.7442,-5.7239,-5.7205,-5.6478,-5.575,-5.5023,-5.4718,0.0,0.0,-5.2131,-5.1539,-4.8883,-5.2198,-5.3501,-5.3501,-5.3501,-5.3501,-5.3501,-5.3501,-5.3501,-5.3501,-5.3501,-5.3501,-5.3501,-5.3501,-5.3501,-5.3501,-5.3501,-5.3501,-5.3501,-5.3501,-5.3501,-5.3501,-5.3501,-5.3501,-5.3501,-5.3501,-5.3501,-5.3501,-5.3501,-5.3501,-5.3501,-5.3501,-5.3501,-5.3501,-5.3501,-5.3501,-5.3382,-5.3061,-5.3027,-5.3073,-5.3247,-5.3155,-5.306,-5.3015,-5.407,-5.452,-5.4009,-5.3939,-5.372,-5.3203,-5.3185,-5.3185,-5.3185,-5.4785,-5.5614,-5.5614,-5.6418,-5.6877,-5.7005,-5.5721,-5.5207,-4.7234,-5.0451,-5.3159,-5.2486,-4.9538,-4.5693,0.0,0.0,-3.4831,-3.2064,-3.1346,-3.1256,-3.1466,-3.0629,-3.0298,-3.1331,-3.0806,-3.1554,-3.5355,-3.6447,-3.8766,0.0,0.0,0.0,0.0,0.0,0.0,0.0,0.0,0.0,0.0,-5.7881,-5.8135,-5.866,-5.8169,-5.7881,-5.7881,-5.7679,-5.756,-5.756,-5.6833,-5.6258,-5.5818,-5.5513,-5.4837,-5.3923,0.0,0.0,0.0,-5.2012,-5.1369,-4.846,-5.2097,-5.3501,-5.3501,-5.3501,-5.3501,-5.3501,-5.3501,-5.3501,-5.3501,-5.3501,-5.3501,-5.3501,-5.3501,-5.3501,-5.3501,-5.3501,-5.3501,-5.3501,-5.3501,-5.3501,-5.3501,-5.3501,-5.3501,-5.3501,-5.3501,-5.3501,-5.3501,-5.3501,-5.3501,-5.3501,-5.3501,-5.3501,-5.3501,-5.3501,-5.3501,-5.3584,-5.3799,-5.3832,-5.4106,-5.4848,-5.4659,-5.449,-5.4447,-5.5404,-5.5642,-5.4818,-5.4748,-5.4399,-5.3592,-5.3794,-5.3922,-5.3922,-5.5262,-5.5941,-5.5959,-5.6767,-5.7317,-5.7611,-5.6473,-5.6253,-4.5618,-4.8701,-5.1094,-5.039,-4.6758,-4.2826,0.0,0.0,-3.314,-3.178,-3.0957,-3.0717,-3.1376,-2.9911,-2.9265,-3.1197,-3.0447,0.0,-3.4069,-3.51,0.0,0.0,0.0,0.0,0.0,0.0,0.0,0.0,0.0,0.0,0.0,-5.7881,-5.7881,-5.7898,-5.7881,-5.7881,-5.7881,-5.7171,-5.6816,-5.6799,-5.6072,-5.4955,-5.3568,-5.4279,-5.3771,0.0,0.0,0.0,0.0,-5.2858,-5.2587,-5.1319,-5.2892,-5.3501,-5.3501,-5.3501,-5.3501,-5.3501,-5.3501,-5.3501,-5.3501,-5.3501,-5.3501,-5.3501,-5.3501,-5.3501,-5.3501,-5.3501,-5.3501,-5.3501,-5.3501,-5.3501,-5.3501,-5.3501,-5.3501,-5.3501,-5.3501,-5.3501,-5.3501,-5.3501,-5.3501,-5.3501,-5.3501,-5.3501,-5.3501,-5.3501,-5.3501,-5.375,-5.4482,-5.4589,-5.4878,-5.5592,-5.6394,-5.6869,-5.685,-5.6835,-5.6455,-5.5629,-5.5574,-5.5225,-5.4418,-5.5133,-5.5596,-5.5596,-5.6363,-5.6804,-5.6804,-5.7593,-5.7574,-5.6822,-5.6804,-5.6804,-4.1564,-4.4018,-4.5636,-4.502,-4.3075,-4.0696,-3.8272,0.0,-3.2991,-3.1195,-3.0657,-3.0447,-3.0238,-2.9684,-2.9774,-3.1256,-3.1569,0.0,0.0,0.0,0.0,0.0,0.0,0.0,0.0,0.0,0.0,0.0,0.0,0.0,0.0,-5.7408,-5.7154,-5.7154,-5.7154,-5.6917,-5.641,-5.6173,-5.6055,-5.6055,-5.531,-5.416,-5.2706,-5.3501,0.0,0.0,0.0,0.0,0.0,-5.2655,-5.23,-5.0642,-5.2706,-5.3501,-5.3501,-5.3501,-5.3501,-5.3501,-5.3501,-5.3501,-5.3501,-5.3501,-5.3501,-5.3501,-5.3501,-5.3501,-5.3501,-5.3501,-5.3501,-5.3501,-5.3501,-5.3501,-5.3501,-5.3501,-5.3501,-5.3501,-5.3501,-5.3501,-5.3501,-5.3501,-5.3501,-5.3501,-5.3501,-5.3501,-5.3501,-5.3501,-5.3501,-5.3783,-5.4513,-5.4589,-5.5072,-5.6367,-5.6765,-5.6912,-5.6912,-5.7328,-5.7281,-5.6473,-5.6418,-5.6051,-5.5244,-5.5467,-5.5614,-5.5614,-5.64,-5.6804,-5.6804,-5.7611,-5.7593,-5.6822,-5.7373,-5.7336,-3.8422,-4.0531,-4.1758,-4.1354,-3.9888,0.0,0.0,0.0,0.0,-3.0806,-3.0717,-3.0627,-2.9771,-2.9606,-2.9774,-3.03,-3.1361,0.0,0.0,0.0,0.0,0.0,0.0,0.0,0.0,0.0,0.0,0.0,0.0,0.0,0.0,0.0,-5.6545,-5.5987,-5.6241,-5.6173,-5.5681,-5.5429,-5.5294,-5.5294,-5.4532,-5.3382,-5.1928,-5.301,0.0,0.0,0.0,0.0,0.0,-5.2909,-5.2655,-5.1522,-5.2942,-5.3501,-5.3501,-5.3501,-5.3501,-5.3501,-5.3501,-5.3501,-5.3501,-5.3501,-5.3501,-5.3501,-5.3501,-5.3501,-5.3501,-5.3501,-5.3501,-5.3501,-5.3501,-5.3501,-5.3501,-5.3501,-5.3501,-5.3501,-5.3501,-5.3501,-5.3501,-5.3501,-5.3501,-5.3501,-5.3501,-5.3501,-5.3501,-5.3501,-5.375,-5.4186,-5.4939,-5.5279,-5.5938,-5.7166,-5.7327,-5.7327,-5.7327,-5.7726,-5.7666,-5.6859,-5.7079,-5.6895,-5.6088,-5.6326,-5.651,-5.651,-5.7005,-5.7262,-5.7262,-5.7758,-5.774,-5.7262,-5.7776,-5.7721,0.0,-3.7973,-3.8895,-3.8895,-3.709,-3.5295,-3.5295,0.0,0.0,0.0,0.0,-3.1062,-2.9864,-2.9711,-2.952,0.0,0.0,0.0,0.0,0.0,0.0,0.0,0.0,0.0,0.0,0.0,0.0,0.0,0.0,0.0,0.0,0.0,-5.6021,-5.4634,-5.5226,-5.5529,-5.5529,-5.4871,-5.4465,-5.4346,-5.3771,-5.2655,-5.1083,-5.2756,0.0,0.0,0.0,0.0,0.0,-5.3501,-5.3501,-5.3501,-5.3501,-5.3501,-5.3501,-5.3501,-5.3501,-5.3501,-5.3501,-5.3501,-5.3501,-5.3501,-5.3501,-5.3501,-5.3501,-5.3501,-5.3501,-5.3501,-5.3501,-5.3501,-5.3501,-5.3501,-5.3501,-5.3501,-5.3501,-5.3501,-5.3501,-5.3501,-5.3501,-5.3501,-5.3517,-5.3551,-5.3501,-5.3517,-5.3551,-5.3501,-5.4139,-5.4878,-5.561,-5.6394,-5.7184,-5.7909,-5.7997,-5.7997,-5.7997,-5.7997,-5.7685,-5.6932,-5.7593,-5.7666,-5.6932,-5.7593,-5.7997,-5.7997,-5.7997,-5.7997,-5.7997,-5.7997,-5.7997,-5.7997,-5.7997,-5.7997,-3.3245,0.0,-3.4128,-3.4128,-3.3679,-3.3215,0.0,-3.1928,-3.0851,-3.1182,-3.0972,0.0,0.0,0.0,0.0,0.0,0.0,0.0,0.0,0.0,0.0,0.0,0.0,0.0,0.0,0.0,0.0,0.0,0.0,0.0,0.0,0.0,-5.4955,-5.46,-5.4228,-5.4025,-5.4025,-5.3856,-5.3179,-5.2012,-5.3027,-5.2097,-4.961,-5.2283,0.0,0.0,0.0,0.0,-5.3501,-5.3501,-5.3501,-5.3501,-5.3501,-5.3501,-5.3501,-5.3501,-5.3501,-5.3501,-5.3501,-5.3501,-5.3501,-5.3501,-5.3501,-5.3501,-5.3501,-5.3501,-5.3501,-5.3501,-5.3501,-5.3501,-5.3501,-5.3501,-5.3501,-5.3501,-5.3501,-5.3501,-5.3501,-5.3501,-5.3501,-5.3501,-5.3979,-5.4154,-5.3584,-5.3979,-5.4154,-5.3584,-5.4139,-5.4878,-5.561,-5.6394,-5.7184,-5.7909,-5.7997,-5.7997,-5.7997,-5.7997,-5.7923,-5.7721,-5.7905,-5.7923,-5.7721,-5.7905,-5.7997,-5.7997,-5.7997,-5.7997,-5.7997,-5.7997,-5.7997,-5.7997,-5.7997,-5.7997,-3.2303,-3.2273,-3.2183,-3.2811,-3.2512,-3.2183,-3.2826,-3.1689,-3.0702,-3.1361,-3.0957,0.0,0.0,0.0,0.0,0.0,0.0,0.0,0.0,0.0,0.0,0.0,0.0,0.0,0.0,0.0,0.0,0.0,0.0,0.0,0.0,0.0,-5.4431,-5.411,-5.3704,-5.3501,-5.3501,-5.3501,-5.2387,-5.0207,-5.2421,-5.1915,-4.91,-5.1746,-5.2503,0.0,0.0,0.0,-5.2909,-5.2215,-5.2553,-5.3501,-5.3501,-5.3501,-5.3501,-5.3501,-5.3501,-5.3501,-5.3501,-5.3501,-5.3501,-5.3501,-5.3501,-5.3501,-5.3501,-5.3501,-5.3501,-5.3501,-5.3501,-5.3501,-5.3501,-5.3501,-5.3501,-5.3501,-5.3501,-5.3501,-5.3501,-5.3501,-5.3501,-5.3501,-5.3832,-5.3979,-5.3551,-5.4106,-5.4342,-5.3618,-5.4747,-5.5656,-5.5695,-5.6703,-5.7565,-5.7973,-5.7997,-5.7997,-5.7997,-5.7997,-5.7997,-5.7997,-5.7997,-5.7997,-5.7997,-5.7997,-5.7997,-5.7997,-5.7997,-5.7997,-5.7997,-5.7997,-5.7997,-5.7997,-5.7997,-5.7997,-3.2213,-3.1929,-3.1795,-3.3036,-3.2287,-3.1555,-3.2901,-3.1644,-3.0492,0.0,0.0,0.0,0.0,-3.121,0.0,0.0,0.0,0.0,0.0,0.0,0.0,0.0,0.0,0.0,0.0,0.0,0.0,0.0,0.0,0.0,0.0,0.0,0.0,-5.3518,-5.3501,-5.345,-5.3315,-5.3315,-5.1917,-4.9177,-5.1883,-5.1698,-4.9077,-5.1176,-5.2131,0.0,0.0,0.0,-5.2046,-5.0896,-5.1572,-5.3331,-5.345,-5.3501,-5.3501,-5.3501,-5.3501,-5.3501,-5.3501,-5.3501,-5.3501,-5.3501,-5.3501,-5.3501,-5.3501,-5.3501,-5.3501,-5.3501,-5.3501,-5.3501,-5.3501,-5.3501,-5.3501,-5.3501,-5.3501,-5.3501,-5.3501,-5.3501,-5.3501,-5.3501,-5.3584,-5.3668,-5.3668,-5.4264,-5.4544,-5.3913,-5.5577,-5.6642,-5.5976,-5.7105,-5.7997,-5.7997,-5.7997,-5.7997,-5.7997,-5.7997,-5.7997,-5.7997,-5.7997,-5.7997,-5.7997,-5.7997,-5.7997,-5.7997,-5.7997,-5.7997,-5.7997,-5.7997,-5.7997,-5.7997,-5.7997,-5.7997,-3.178,-3.1585,-3.169,-3.2452,-3.1255,-3.0223,-3.1511,-3.0285,-2.9549,0.0,0.0,0.0,0.0,-3.4427,-3.5055,0.0,0.0,0.0,0.0,0.0,0.0,0.0,0.0,0.0,0.0,0.0,0.0,0.0,0.0,0.0,0.0,0.0,0.0,-5.3501,-5.3501,-5.3179,-5.2486,-5.2486,-5.1641,-4.9925,-5.1017,-5.0663,-4.9049,-5.0629,-5.1386,0.0,0.0,-5.1065,-5.142,-5.1809,-5.2164,-5.2553,-5.323,-5.3501,-5.3501,-5.3501,-5.3501,-5.3501,-5.3501,-5.3501,-5.3501,-5.3501,-5.3501,-5.3501,-5.3501,-5.3501,-5.3501,-5.3501,-5.3501,-5.3501,-5.3501,-5.3501,-5.3501,-5.3501,-5.3501,-5.3501,-5.3501,-5.3501,-5.3501,-5.3501,-5.3994,-5.4419,-5.4419,-5.5042,-5.5495,-5.5379,-5.6232,-5.6861,-5.6739,-5.7474,-5.7997,-5.7997,-5.7997,-5.7997,-5.7997,-5.7997,-5.7997,-5.7997,-5.7997,-5.7997,-5.7997,-5.7997,-5.7997,-5.7997,-5.7997,-5.7997,-5.7997,-5.7997,-5.7997,-5.7997,-5.7997,-5.7997,-3.1137,-3.0943,-3.1197,-3.2258,-3.1569,-3.1165,-3.3185,-3.1584,-3.0372,-3.3021,0.0,0.0,0.0,0.0,0.0,0.0,0.0,0.0,0.0,0.0,0.0,0.0,0.0,0.0,0.0,0.0,0.0,0.0,0.0,0.0,0.0,0.0,0.0,0.0,-5.2469,-5.2097,-5.1725,-5.1302,-5.0146,-4.8301,-5.0247,-5.0012,-4.7801,-4.974,-5.0608,-5.0541,0.0,-4.9509,-5.0574,-5.0118,-5.0642,-5.1792,-5.2553,-5.2621,-5.2317,-5.2706,-5.3129,-5.3501,-5.3501,-5.3501,-5.3501,-5.3501,-5.3501,-5.3501,-5.3501,-5.3501,-5.3501,-5.3501,-5.3501,-5.3501,-5.3501,-5.3501,-5.3501,-5.3501,-5.3799,-5.3994,-5.3584,-5.3799,-5.3962,-5.3584,-5.3783,-5.3994,-5.3994,-5.4939,-5.5563,-5.5161,-5.6474,-5.7351,-5.6964,-5.754,-5.7997,-5.7997,-5.7997,-5.7997,-5.7997,-5.7997,-5.7997,-5.7997,-5.7997,-5.7997,-5.7997,-5.7997,-5.7997,-5.7997,-5.7997,-5.7997,-5.7997,-5.7997,-5.7997,-5.7997,-5.7997,-5.7997,-3.0926,-3.0746,-3.1031,-3.2183,-3.1765,-3.1824,-3.4831,-3.2916,-3.139,-3.4517,-3.2527,0.0,0.0,0.0,0.0,0.0,0.0,0.0,0.0,0.0,0.0,0.0,0.0,0.0,0.0,0.0,0.0,0.0,0.0,0.0,0.0,0.0,0.0,0.0,-5.1505,-5.1133,-5.0947,-5.0371,-4.9224,-4.7529,-4.9661,-4.9461,-4.7296,-4.907,-4.983,-4.9746,-4.8037,-4.8274,-4.9763,-4.8815,-4.9424,-5.1031,-5.1758,-5.1708,-5.1252,-5.1843,-5.2553,-5.323,-5.323,-5.3348,-5.3501,-5.3501,-5.3501,-5.3501,-5.3501,-5.3501,-5.3501,-5.3501,-5.3501,-5.3501,-5.3501,-5.3501,-5.3501,-5.3501,-5.4042,-5.4405,-5.3668,-5.4074,-5.4419,-5.3865,-5.3618,-5.3618,-5.3946,-5.4939,-5.5581,-5.5208,-5.6781,-5.7815,-5.7234,-5.7637,-5.7997,-5.7997,-5.7997,-5.7997,-5.7997,-5.7997,-5.7997,-5.7997,-5.7997,-5.7997,-5.7997,-5.7997,-5.7997,-5.7997,-5.7997,-5.7997,-5.7997,-5.7997,-5.7997,-5.7997,-5.7997,-5.7997,-3.1615,-3.1436,-3.16,-3.2303,-3.1106,-3.0731,-3.4622,-3.2916,-3.1779,-3.6267,-3.6028,-3.5444,0.0,0.0,0.0,0.0,0.0,0.0,0.0,0.0,0.0,0.0,0.0,0.0,0.0,0.0,0.0,0.0,0.0,0.0,0.0,0.0,0.0,0.0,-5.1219,-5.0879,-5.0185,-5.0118,-5.0033,-4.9852,-4.9376,-4.9038,-4.8855,-4.8987,-4.9086,-4.9069,-4.8917,-4.8934,-4.912,-4.9695,-5.0033,-5.0253,-5.0997,-5.1236,-5.1217,-5.1268,-5.1758,-5.2384,-5.2384,-5.2892,-5.3501,-5.3501,-5.3501,-5.3501,-5.3501,-5.3501,-5.3501,-5.3501,-5.3501,-5.3501,-5.3501,-5.3501,-5.3501,-5.3501,-5.4042,-5.4405,-5.3668,-5.4074,-5.4589,-5.4544,-5.3979,-5.3946,-5.5309,-5.5621,-5.5948,-5.6616,-5.7449,-5.7973,-5.7932,-5.7973,-5.7997,-5.7997,-5.7997,-5.7997,-5.7997,-5.7997,-5.7997,-5.7997,-5.7997,-5.7997,-5.7997,-5.7997,-5.7997,-5.7997,-5.7997,-5.7997,-5.7997,-5.7997,-5.7997,-5.7997,-5.7997,-5.7997,-3.1152,-3.1182,-3.166,-3.2318,-3.133,-3.13,-3.5684,-3.4756,-3.4053,-3.7868,-3.6985,-3.5654,0.0,0.0,0.0,0.0,0.0,0.0,0.0,0.0,0.0,0.0,0.0,0.0,0.0,0.0,0.0,0.0,0.0,0.0,0.0,0.0,0.0,-5.0524,-5.0067,-4.9712,-4.9424,-4.9424,-4.9424,-4.9407,-4.9137,-4.9001,-4.9001,-4.9001,-4.9001,-4.9001,-4.9001,-4.9001,-4.9018,-4.9306,-4.9424,-4.9441,-4.9729,-5.0405,-5.115,-5.0693,-5.1268,-5.23,-5.23,-5.2503,-5.2841,-5.3348,-5.3162,-5.2858,-5.3348,-5.3501,-5.3501,-5.3501,-5.3501,-5.3501,-5.3501,-5.3501,-5.3501,-5.3501,-5.4405,-5.4969,-5.375,-5.4822,-5.5759,-5.4805,-5.4743,-5.5059,-5.5592,-5.6104,-5.6545,-5.6843,-5.754,-5.7997,-5.7997,-5.7997,-5.7997,-5.7997,-5.7997,-5.7997,-5.7997,-5.7997,-5.7997,-5.7997,-5.7997,-5.7997,-5.7997,-5.7997,-5.7997,-5.7997,-5.7997,-5.7997,-5.7997,-5.7997,-5.7997,-5.7997,-5.7997,-5.8272,-3.1135,-3.1152,-3.166,-3.2318,-3.163,-3.2226,-3.7588,-3.6743,-3.6007,-4.0247,-3.9764,-3.8402,-3.7886,0.0,0.0,0.0,0.0,0.0,0.0,0.0,0.0,0.0,0.0,0.0,0.0,0.0,0.0,0.0,0.0,0.0,0.0,0.0,0.0,0.0,-4.9255,-4.89,-4.8663,-4.8663,-4.8545,-4.8308,-4.8308,-4.8545,-4.9001,-4.9001,-4.9001,-4.9001,-4.9001,-4.9001,-4.9001,-4.9001,-4.9001,-4.9001,-4.9001,-4.9627,-5.0456,-4.9932,-5.0541,-5.1606,-5.1606,-5.1758,-5.2046,-5.2604,-5.2401,-5.2063,-5.2621,-5.2942,-5.3129,-5.3129,-5.3315,-5.3501,-5.3501,-5.3668,-5.3865,-5.3865,-5.4987,-5.5741,-5.4485,-5.5616,-5.6589,-5.5512,-5.5524,-5.5762,-5.6049,-5.6518,-5.6912,-5.6912,-5.754,-5.7997,-5.7997,-5.7997,-5.7997,-5.7997,-5.7997,-5.7997,-5.7997,-5.7997,-5.7997,-5.7997,-5.7997,-5.7997,-5.7997,-5.7997,-5.7997,-5.7997,-5.7997,-5.7997,-5.7997,-5.7997,-5.7997,-5.7997,-5.7997,-5.8437,-3.169,-3.1511,-3.166,-3.2318,-3.1989,-3.3336,-4.0256,-3.8547,-3.7288,-4.3577,-4.5029,-4.4702,-4.3094,-4.3029,0.0,0.0,0.0,0.0,0.0,0.0,0.0,0.0,0.0,0.0,0.0,0.0,0.0,0.0,0.0,0.0,0.0,0.0,0.0,0.0,-4.8984,-4.8646,-4.7889,-4.7872,-4.753,-4.6786,-4.6786,-4.7564,-4.8984,-4.8984,-4.8984,-4.8984,-4.8984,-4.8984,-4.8984,-4.8984,-4.9001,-4.9001,-4.9001,-4.9001,-4.9001,-4.9001,-4.9458,-5.0084,-5.0084,-5.0574,-5.12,-5.1185,-5.1185,-5.12,-5.1185,-5.1725,-5.23,-5.23,-5.2875,-5.3501,-5.3501,-5.4059,-5.4589,-5.4589,-5.5787,-5.6668,-5.5865,-5.634,-5.6912,-5.6912,-5.6241,-5.5976,-5.6765,-5.6912,-5.6912,-5.6912,-5.7522,-5.7997,-5.7997,-5.7997,-5.7997,-5.7997,-5.7997,-5.7997,-5.7997,-5.7997,-5.7997,-5.7997,-5.7997,-5.7997,-5.7997,-5.7997,-5.7997,-5.7997,-5.7997,-5.7997,-5.7997,-5.7997,-5.7997,-5.7997,-5.7997,-5.8455,-3.2243,-3.1854,0.0,-3.2318,0.0,0.0,-3.6873,-3.7101,-3.8047,-4.2274,-4.3364,-4.3278,-4.2326,0.0,0.0,0.0,0.0,0.0,0.0,0.0,0.0,0.0,0.0,0.0,0.0,0.0,0.0,0.0,0.0,0.0,0.0,0.0,0.0,0.0,-4.7445,-4.7344,-4.7124,-4.7124,-4.7022,-4.6786,-4.6786,-4.7022,-4.7462,-4.8003,-4.824,-4.824,-4.824,-4.824,-4.824,-4.824,-4.8545,-4.9001,-4.9001,-4.9001,-4.9001,-4.9001,-4.9458,-5.0084,-5.0084,-5.0236,-5.0507,-5.1048,-5.0862,-5.0524,-5.1048,-5.1369,-5.164,-5.2147,-5.2469,-5.279,-5.3348,-5.4059,-5.4589,-5.4589,-5.5787,-5.6668,-5.5865,-5.6755,-5.7516,-5.6989,-5.7141,-5.7389,-5.7637,-5.766,-5.766,-5.766,-5.7862,-5.7997,-5.7997,-5.7997,-5.7997,-5.7997,-5.7997,-5.7997,-5.7997,-5.7997,-5.7997,-5.7997,-5.7997,-5.7997,-5.7997,-5.7997,-5.7997,-5.7997,-5.7997,-5.7997,-5.7997,-5.7997,-5.829,-5.8859,-5.8859,-5.9593,-3.2557,-3.2183,0.0,-3.4167,-3.4682,-3.5185,-3.6816,0.0,0.0,0.0,-4.5599,-4.5936,-4.5001,0.0,0.0,0.0,0.0,0.0,0.0,0.0,0.0,0.0,0.0,0.0,0.0,0.0,0.0,0.0,0.0,0.0,0.0,0.0,0.0,0.0,-4.6786,-4.665,-4.6363,-4.6058,-4.5935,-4.5906,-4.5602,-4.5618,-4.5969,-4.6989,-4.7462,-4.7462,-4.7462,-4.7462,-4.7462,-4.7462,-4.7902,-4.8578,-4.8578,-4.8748,-4.9001,-4.9001,-4.9272,-4.9661,-4.9661,-4.9661,-4.9729,-5.0185,-5.0033,-4.9746,-5.0202,-5.0541,-5.0862,-5.1302,-5.1843,-5.2418,-5.2909,-5.3802,-5.4665,-5.4952,-5.5984,-5.6843,-5.6659,-5.734,-5.7862,-5.7425,-5.7703,-5.7997,-5.7997,-5.7997,-5.7997,-5.7997,-5.7997,-5.7997,-5.7997,-5.7997,-5.7997,-5.7997,-5.7997,-5.7997,-5.7997,-5.7997,-5.7997,-5.7997,-5.7997,-5.7997,-5.7997,-5.7997,-5.7997,-5.7997,-5.7997,-5.7997,-5.7997,-5.7997,-5.8419,-5.9184,-5.8877,-5.9758,-3.2826,-3.2571,-3.3231,-3.6662,-3.6121,0.0,-3.9825,-4.3274,-4.6183,-4.8223,0.0,-5.0393,0.0,0.0,0.0,0.0,0.0,0.0,0.0,0.0,0.0,0.0,0.0,0.0,0.0,0.0,0.0,0.0,0.0,0.0,0.0,0.0,0.0,0.0,-4.638,-4.6058,-4.5399,-4.475,-4.4395,0.0,-4.3656,-4.3724,-4.4547,-4.6007,-4.6701,-4.6701,-4.6701,-4.6701,-4.6701,-4.6701,-4.7141,-4.7787,-4.7787,-4.8223,-4.8815,-4.8883,-4.8866,-4.8815,-4.8951,-4.8968,-4.8917,-4.8984,-4.9001,-4.9001,-4.9001,-4.9475,-4.9999,-5.0067,-5.1065,-5.2163,-5.2364,-5.3455,-5.4731,-5.5592,-5.6367,-5.7065,-5.775,-5.795,-5.7997,-5.7997,-5.7997,-5.7997,-5.7997,-5.7997,-5.7997,-5.7997,-5.7997,-5.7997,-5.7997,-5.7997,-5.7997,-5.7997,-5.7997,-5.7997,-5.7997,-5.7997,-5.7997,-5.7997,-5.7997,-5.7997,-5.7997,-5.7997,-5.7997,-5.7997,-5.7997,-5.7997,-5.7997,-5.7997,-5.8419,-5.9166,-5.8455,-5.9318,-3.3945,-3.2997,0.0,0.0,-3.5497,-3.8401,-4.6149,-4.7139,-4.6666,-4.746,-4.7065,0.0,0.0,0.0,0.0,0.0,0.0,0.0,0.0,0.0,0.0,0.0,0.0,0.0,0.0,0.0,0.0,0.0,0.0,0.0,0.0,0.0,0.0,-4.3267,-4.3267,-4.3183,-4.3031,-4.2861,-4.2777,0.0,-4.2608,-4.2929,-4.3724,-4.5246,-4.594,-4.594,-4.594,-4.594,-4.594,-4.594,-4.6363,-4.7039,-4.7039,-4.7124,-4.7327,-4.7936,-4.7784,-4.7428,-4.8595,-4.8629,-4.824,-4.8815,-4.9001,-4.9001,-4.9001,-4.912,-4.9357,-4.9932,-5.0321,-5.0987,-5.2788,-5.3479,-5.4236,-5.6188,-5.6765,-5.6938,-5.7091,-5.7589,-5.7997,-5.7997,-5.7997,-5.7997,-5.7997,-5.7997,-5.7997,-5.7997,-5.7997,-5.7997,-5.7997,-5.7997,-5.7997,-5.7997,-5.7997,-5.7997,-5.7997,-5.7997,-5.7997,-5.7997,-5.7997,-5.7997,-5.7997,-5.7997,-5.7997,-5.7997,-5.7997,-5.7997,-5.7997,-5.7997,-5.8419,-5.9184,-5.9019,-5.9575,-3.2965,0.0,0.0,-3.5087,0.0,-4.3092,-4.6622,-4.7,-4.6896,-4.7901,0.0,0.0,0.0,0.0,0.0,0.0,0.0,0.0,0.0,0.0,0.0,0.0,0.0,0.0,0.0,0.0,0.0,0.0,0.0,0.0,0.0,-4.2658,-4.2692,-4.2303,-4.2286,-4.2286,-4.2286,-4.1948,-4.1948,-4.2286,-4.1931,-4.2151,-4.2912,-4.4079,-4.4418,-4.4062,-4.4062,-4.4062,-4.4096,-4.4451,-4.5043,-4.5771,-4.6126,-4.6481,-4.6836,-4.7225,-4.7124,-4.6904,-4.7682,-4.7699,-4.7445,-4.7817,-4.8189,-4.8477,-4.8477,-4.8731,-4.9086,-4.9458,-4.9813,-5.0379,-5.1566,-5.2412,-5.3309,-5.4903,-5.609,-5.6989,-5.7351,-5.7726,-5.7997,-5.7997,-5.7997,-5.7997,-5.7997,-5.7997,-5.7997,-5.7997,-5.7997,-5.7997,-5.7997,-5.7997,-5.7997,-5.7997,-5.7997,-5.7997,-5.7997,-5.7997,-5.7997,-5.7997,-5.7997,-5.7997,-5.7997,-5.7997,-5.7997,-5.7997,-5.7997,-5.7997,-5.7997,-5.84,-5.9006,-5.9777,-5.9777,-6.0419,-3.1623,0.0,-3.4576,-3.7435,-4.2113,0.0,-4.5069,-4.5371,-4.6328,0.0,0.0,0.0,0.0,0.0,0.0,0.0,0.0,0.0,0.0,0.0,0.0,0.0,0.0,0.0,0.0,0.0,0.0,0.0,0.0,0.0,-4.1914,-4.2033,-4.2049,-4.1914,-4.1914,-4.1914,-4.1914,-4.1322,-4.1322,-4.1897,-4.1424,-4.1457,-4.1931,-4.2692,-4.276,-4.2286,-4.2286,-4.2286,-4.2354,-4.3115,-4.3792,-4.4479,-4.5213,-4.5872,-4.643,-4.6549,-4.6532,-4.6447,-4.6701,-4.6718,-4.665,-4.6904,-4.7411,-4.7906,-4.8041,-4.8528,-4.9001,-4.9001,-4.9517,-5.0116,-5.0283,-5.1309,-5.2514,-5.3478,-5.5243,-5.6903,-5.7642,-5.7909,-5.7997,-5.7997,-5.7997,-5.7997,-5.7997,-5.7997,-5.7997,-5.7997,-5.7997,-5.7997,-5.7997,-5.7997,-5.7997,-5.7997,-5.7997,-5.7997,-5.7997,-5.7997,-5.7997,-5.7997,-5.7997,-5.7997,-5.7997,-5.7997,-5.7997,-5.7997,-5.7997,-5.7997,-5.7997,-5.8676,-5.9428,-6.0199,-6.0199,-6.0988,-3.2198,0.0,-3.6217,0.0,-3.924,-3.9947,0.0,0.0,0.0,0.0,0.0,0.0,0.0,0.0,0.0,0.0,0.0,0.0,0.0,0.0,0.0,0.0,0.0,0.0,0.0,0.0,0.0,0.0,0.0,0.0,-4.0434,-4.1001,-4.1052,-4.0417,-4.04,-4.04,-4.04,-4.0299,-4.0299,-4.04,-4.0933,-4.0916,-4.0417,-4.1153,-4.1796,-4.2286,-4.2286,-4.2286,-4.2354,-4.3115,-4.3443,-4.3656,-4.4434,-4.4818,-4.4987,-4.5602,-4.5432,-4.5089,-4.6346,-4.638,-4.6058,-4.7344,-4.7804,-4.8007,-4.8663,-4.8934,-4.9001,-4.9001,-4.9488,-5.0189,-5.095,-5.1721,-5.2677,-5.4091,-5.5205,-5.614,-5.6895,-5.754,-5.7997,-5.7997,-5.7997,-5.7997,-5.7997,-5.7997,-5.7997,-5.7997,-5.7997,-5.7997,-5.7997,-5.7997,-5.7997,-5.7997,-5.7997,-5.7997,-5.7997,-5.7997,-5.7997,-5.7997,-5.7997,-5.7997,-5.7997,-5.7997,-5.7997,-5.7997,-5.7997,-5.7997,-5.7997,-5.8107,-5.8565,-5.9349,-5.9349,-5.9869,-3.2551,-3.3681,-3.509,0.0,-3.8668,-3.852,-4.371,0.0,0.0,0.0,0.0,0.0,0.0,0.0,0.0,0.0,0.0,0.0,0.0,0.0,0.0,0.0,0.0,0.0,0.0,0.0,0.0,0.0,0.0,-4.0426,-4.013,-4.0417,-4.0451,-4.0113,-4.0096,-4.0096,-4.0096,-4.0096,-4.0096,-4.0096,-4.0434,-4.0417,-4.0113,-4.0451,-4.0773,-4.1077,-4.1077,-4.1077,-4.1128,-4.1863,-4.2185,-4.2252,-4.2997,-4.3328,-4.3386,-4.4147,-4.4215,-4.4079,-4.5179,-4.5348,-4.5179,-4.5838,-4.6329,-4.6819,-4.7547,-4.8071,-4.8477,-4.8883,-4.9492,-5.0091,-5.0466,-5.1107,-5.2014,-5.3506,-5.4141,-5.4858,-5.6497,-5.7463,-5.7997,-5.7997,-5.7997,-5.7997,-5.7997,-5.7997,-5.7997,-5.7997,-5.7997,-5.7997,-5.7997,-5.7997,-5.7997,-5.7997,-5.7997,-5.7997,-5.7997,-5.7997,-5.7997,-5.7997,-5.7997,-5.7997,-5.7997,-5.8437,-5.8676,-5.8676,-5.8235,-5.7997,-5.7997,-5.8455,-5.9098,-5.9887,-6.0346,-6.0988,0.0,0.0,-3.3529,-3.7731,-3.7167,-3.6605,0.0,0.0,0.0,0.0,0.0,0.0,0.0,0.0,0.0,0.0,0.0,0.0,0.0,0.0,0.0,0.0,0.0,0.0,0.0,0.0,0.0,0.0,0.0,-4.0096,-4.0096,-4.0096,-4.0096,-4.0096,-4.0096,-4.0096,-4.0096,-4.0096,-4.0096,-4.0096,-4.0096,-4.0096,-4.0096,-4.0096,-4.0096,-4.0096,-4.0096,-4.0096,-4.0163,-4.0899,-4.1204,-4.1271,-4.1999,-4.2286,-4.2354,-4.2929,-4.3223,-4.3504,-4.4079,-4.4445,-4.4632,-4.4835,-4.5246,-4.5872,-4.6802,-4.7462,-4.8041,-4.8798,-4.9492,-5.0004,-5.0004,-5.0554,-5.1436,-5.2702,-5.3171,-5.3874,-5.6026,-5.7281,-5.7941,-5.7721,-5.785,-5.7997,-5.7997,-5.7997,-5.7997,-5.7997,-5.7997,-5.7997,-5.7997,-5.7997,-5.7997,-5.7997,-5.7997,-5.7997,-5.7997,-5.7997,-5.7997,-5.7997,-5.7997,-5.7997,-5.7997,-5.8786,-5.9184,-5.9184,-5.8822,-5.851,-5.8309,-5.8712,-5.941,-6.0419,-6.1025,-6.1832,0.0,-3.1296,0.0,-3.4693,-3.3141,0.0,0.0,0.0,0.0,0.0,0.0,0.0,0.0,0.0,0.0,0.0,0.0,0.0,0.0,0.0,0.0,0.0,0.0,0.0,0.0,0.0,0.0,0.0,0.0,-4.0096,-4.0096,-4.0096,-4.0096,-4.0096,-4.0096,-4.0096,-4.0096,-4.0096,-4.0096,-4.0096,-4.0096,-4.0096,-4.0096,-4.0096,-4.0096,-4.0096,-4.0096,-4.0096,-4.0163,-4.0899,-4.1204,-4.1271,-4.1999,-4.2286,-4.2286,-4.2337,-4.2811,-4.3392,-4.3443,-4.3961,-4.4733,-4.5415,-4.5669,-4.5974,-4.7398,-4.7855,-4.8041,-4.8798,-4.9492,-5.0004,-5.0004,-5.0554,-5.1298,-5.2077,-5.2799,-5.3735,-5.5316,-5.6877,-5.7776,-5.7024,-5.7483,-5.7997,-5.7997,-5.7997,-5.7997,-5.7997,-5.7997,-5.7997,-5.7997,-5.7997,-5.7997,-5.7997,-5.7997,-5.7997,-5.7997,-5.7997,-5.7997,-5.7997,-5.7997,-5.7997,-5.7997,-5.8786,-5.9184,-5.9184,-5.9924,-5.9905,-5.9129,-5.8419,-5.8877,-6.0401,-6.0438,-6.13,0.0,0.0,0.0,-3.3486,-3.1457,-2.9745,0.0,0.0,0.0,0.0,0.0,0.0,0.0,0.0,0.0,0.0,0.0,0.0,0.0,0.0,0.0,0.0,0.0,0.0,0.0,0.0,0.0,0.0,0.0,0.0,-4.0054,-3.9243,-3.8941,-3.9377,-3.9402,-3.9157,-3.8684,-3.9157,-3.9157,-3.87,-3.9656,-3.9859,-3.9419,-3.9893,-4.0096,-4.0096,-4.0096,-4.0096,-4.013,-4.04,-4.0476,-4.051,-4.079,-4.0891,-4.101,-4.1931,-4.2472,-4.2844,-4.3826,-4.435,-4.4649,-4.4891,-4.4976,-4.5263,-4.6752,-4.7192,-4.7445,-4.8663,-4.9492,-5.01,-5.0581,-5.0903,-5.1286,-5.1976,-5.3085,-5.403,-5.4063,-5.5739,-5.7152,-5.6877,-5.7446,-5.7997,-5.7997,-5.7997,-5.7997,-5.7997,-5.7997,-5.7997,-5.7997,-5.7997,-5.7997,-5.7997,-5.7997,-5.7997,-5.7997,-5.7997,-5.7997,-5.7997,-5.7997,-5.7997,-5.7997,-5.8786,-5.9423,-5.996,-6.0254,-6.0015,-5.9184,-5.8891,-5.9079,-5.9625,-6.0162,-6.0988,-2.9419,0.0,0.0,0.0,0.0,0.0,0.0,0.0,0.0,0.0,0.0,0.0,0.0,0.0,0.0,0.0,0.0,0.0,0.0,0.0,0.0,0.0,0.0,0.0,0.0,0.0,0.0,0.0,0.0,0.0,-3.9698,-3.8832,-3.843,-3.8633,-3.8633,-3.8396,-3.7905,-3.8396,-3.8379,-3.7922,-3.8886,-3.9225,-3.9005,-3.952,-3.9876,-4.0096,-4.0096,-4.0096,-4.0096,-4.0096,-4.0096,-4.0096,-4.0096,-4.0096,-4.0231,-4.1213,-4.1711,-4.21,-4.3369,-4.3978,-4.4231,-4.4513,-4.4615,-4.4835,-4.6058,-4.643,-4.6735,-4.8223,-4.9115,-4.9855,-5.0832,-5.1462,-5.1916,-5.2358,-5.3255,-5.3849,-5.3314,-5.5115,-5.673,-5.6455,-5.7262,-5.7997,-5.7997,-5.7997,-5.7997,-5.7997,-5.7997,-5.7997,-5.7997,-5.7997,-5.7997,-5.7997,-5.7997,-5.7997,-5.7997,-5.7997,-5.7997,-5.7997,-5.7997,-5.7997,-5.7997,-5.8786,-5.9441,-5.9997,-6.0529,-6.0419,-5.9588,-5.9313,-5.9331,-5.9606,-5.9887,-6.0566,0.0,0.0,0.0,0.0,0.0,0.0,0.0,0.0,0.0,0.0,0.0,0.0,0.0,0.0,0.0,0.0,0.0,0.0,0.0,0.0,0.0,0.0,0.0,0.0,0.0,0.0,0.0,0.0,0.0,-3.9681,-3.8988,-3.8937,-3.8599,-3.7889,-3.7855,-3.7838,-3.7838,-3.7872,-3.7872,-3.7872,-3.7922,-3.8311,-3.8988,-3.9005,-3.9436,-4.0096,-4.0096,-4.0096,-4.0096,-4.0096,-4.0096,-4.0096,-4.0096,-4.0096,-4.0096,-4.013,-4.0578,-4.1322,-4.2066,-4.2811,-4.3511,-4.4333,-4.4615,-4.475,-4.5483,-4.5703,-4.6007,-4.7496,-4.8391,-4.9239,-5.0743,-5.2149,-5.3185,-5.3185,-5.3185,-5.3203,-5.3222,-5.5097,-5.6528,-5.5739,-5.6895,-5.7997,-5.7997,-5.7997,-5.7997,-5.7997,-5.7997,-5.7997,-5.7997,-5.7997,-5.7997,-5.7997,-5.7997,-5.7997,-5.7997,-5.7997,-5.7997,-5.7997,-5.7997,-5.7997,-5.7997,-5.8767,-5.9166,-5.9184,-6.0731,-6.1153,-6.0401,-5.9606,-5.9606,-6.0346,-5.9588,-6.0107,-2.76,0.0,0.0,0.0,0.0,0.0,0.0,0.0,0.0,0.0,0.0,0.0,0.0,0.0,0.0,0.0,0.0,0.0,0.0,0.0,0.0,0.0,0.0,0.0,0.0,0.0,0.0,0.0,-3.7811,-3.7293,-3.8169,-3.7686,-3.732,-3.7094,-3.6552,-3.6225,-3.6225,-3.6806,-3.7117,-3.7134,-3.8176,-3.8802,-3.9005,-3.9554,-3.991,-4.0096,-4.0096,-4.0096,-4.0096,-4.0096,-4.0096,-4.0096,-4.0096,-4.0096,-4.0163,-4.0696,-4.1018,-4.139,-4.2658,-4.325,-4.3511,-4.4333,-4.4615,-4.475,-4.5483,-4.5703,-4.6106,-4.8077,-4.8767,-4.9331,-5.1305,-5.2509,-5.3185,-5.3185,-5.3185,-5.3371,-5.394,-5.5042,-5.5868,-5.5629,-5.6895,-5.7997,-5.7997,-5.7997,-5.7997,-5.7997,-5.7997,-5.7997,-5.7997,-5.7997,-5.7997,-5.7997,-5.7997,-5.7997,-5.7997,-5.7997,-5.7997,-5.7997,-5.7997,-5.7997,-5.7997,-5.8217,-5.8621,-5.9184,-5.9625,-6.0052,-6.0401,-6.0181,-5.9887,-5.9533,-5.9905,-6.0933,-2.76,-2.76,-2.76,0.0,0.0,0.0,-2.775,-3.0166,0.0,0.0,0.0,0.0,0.0,0.0,0.0,0.0,0.0,0.0,0.0,0.0,0.0,0.0,0.0,0.0,0.0,0.0,0.0,-3.8531,-3.7349,-3.6865,-3.7408,-3.6721,-3.6299,-3.6299,-3.5836,-3.56,-3.56,-3.6079,-3.6299,-3.6315,-3.7178,-3.7922,-3.8565,-3.8988,-3.9537,-4.0096,-4.0096,-4.0096,-4.0096,-4.0096,-4.0096,-4.0096,-4.0096,-4.0096,-4.0146,-4.0578,-4.073,-4.0899,-4.2083,-4.2692,-4.3081,-4.3842,-4.4344,-4.4789,-4.5821,-4.6127,-4.6584,-4.8755,-4.9785,-5.0586,-5.2162,-5.2875,-5.3185,-5.3185,-5.3185,-5.3427,-5.4234,-5.5023,-5.5684,-5.6033,-5.7134,-5.7997,-5.7997,-5.7997,-5.7997,-5.7997,-5.7997,-5.7997,-5.7997,-5.7997,-5.7997,-5.7997,-5.7997,-5.7997,-5.7997,-5.7997,-5.7997,-5.7997,-5.7997,-5.7997,-5.7997,-5.7997,-5.8217,-5.8694,-5.9373,-6.0107,-6.0896,-6.0566,-6.0162,-5.9722,-6.0529,-6.141,-2.7705,-2.766,-2.76,0.0,0.0,0.0,-2.775,-3.0478,-3.2787,0.0,0.0,0.0,0.0,0.0,0.0,0.0,0.0,0.0,0.0,0.0,0.0,0.0,0.0,0.0,0.0,-3.7838,-3.7787,-3.7787,-3.7702,-3.7364,-3.6711,-3.5994,-3.56,-3.56,-3.56,-3.56,-3.56,-3.56,-3.5633,-3.5718,-3.5718,-3.6552,-3.8024,-3.8024,-3.8768,-4.0096,-4.0096,-4.0096,-4.0096,-4.0096,-4.0096,-4.0096,-4.0096,-4.0096,-4.0096,-4.0096,-4.0096,-4.0214,-4.0933,-4.1677,-4.2422,-4.3139,-4.3944,-4.4839,-4.6149,-4.663,-4.7195,-4.9485,-5.1143,-5.2381,-5.302,-5.3185,-5.3185,-5.3185,-5.3185,-5.3427,-5.4234,-5.5023,-5.5831,-5.6638,-5.7446,-5.7997,-5.7997,-5.7997,-5.7997,-5.7997,-5.7997,-5.7997,-5.7997,-5.7997,-5.7997,-5.7997,-5.7997,-5.7997,-5.7997,-5.7997,-5.7997,-5.7997,-5.7997,-5.7997,-5.7997,-5.7997,-5.7997,-5.7997,-5.9483,-6.0713,-6.1594,-6.0878,-6.0529,-6.0548,-6.1263,-6.1649,0.0,0.0,0.0,0.0,0.0,0.0,-2.775,-2.8625,-2.9653,0.0,0.0,0.0,0.0,0.0,0.0,0.0,0.0,0.0,0.0,0.0,0.0,0.0,0.0,0.0,0.0,-3.7347,-3.7015,-3.7015,-3.6417,-3.5988,-3.5836,-3.5684,-3.56,-3.56,-3.56,-3.56,-3.56,-3.56,-3.5943,-3.6575,-3.6575,-3.7347,-3.8785,-3.8785,-3.9259,-4.0096,-4.0096,-4.0096,-4.0096,-4.0096,-4.0096,-4.0096,-4.0096,-4.0096,-4.0096,-4.0096,-4.0096,-4.0214,-4.0933,-4.1677,-4.2422,-4.3139,-4.3944,-4.4754,-4.5492,-4.6187,-4.7282,-5.0032,-5.1851,-5.302,-5.3164,-5.3185,-5.3185,-5.3185,-5.3185,-5.3427,-5.4234,-5.5023,-5.5831,-5.6638,-5.7446,-5.7997,-5.7997,-5.7997,-5.7997,-5.7997,-5.7997,-5.7997,-5.7997,-5.7997,-5.7997,-5.7997,-5.7997,-5.7997,-5.7997,-5.7997,-5.7997,-5.7997,-5.7997,-5.7997,-5.7997,-5.7997,-5.7997,-5.7997,-5.8951,-6.0162,-6.1594,-6.1429,-6.1374,-6.1374,-6.152,-6.1942,0.0,0.0,0.0,-2.76,0.0,0.0,0.0,-2.8374,-2.9184,0.0,0.0,0.0,0.0,0.0,0.0,0.0,0.0,0.0,0.0,0.0,0.0,0.0,0.0,0.0,0.0,-3.6434,-3.6197,-3.6197,-3.5842,-3.56,-3.56,-3.56,-3.56,-3.56,-3.56,-3.56,-3.56,-3.56,-3.5785,-3.6197,-3.6197,-3.6992,-3.8447,-3.8447,-3.9039,-4.0096,-4.0096,-4.0096,-4.0096,-4.0096,-4.0096,-4.0096,-4.0096,-4.0096,-4.0096,-4.0096,-4.0096,-4.0146,-4.051,-4.1373,-4.2354,-4.2726,-4.3851,-4.5238,-4.6279,-4.7605,-4.9044,-5.0493,-5.1712,-5.2601,-5.2601,-5.2913,-5.3185,-5.3185,-5.3185,-5.3427,-5.4234,-5.5023,-5.5831,-5.6638,-5.7446,-5.7997,-5.7997,-5.7997,-5.7997,-5.7997,-5.7997,-5.7997,-5.7997,-5.7997,-5.7997,-5.7997,-5.7997,-5.7997,-5.7997,-5.7997,-5.7997,-5.7997,-5.7997,-5.7997,-5.7997,-5.7997,-5.8382,-5.9171,-5.9997,-6.0988,-6.2199,-6.2199,-6.2199,-6.2199,-6.2199,-6.242,0.0,0.0,0.0,0.0,0.0,-2.76,0.0,0.0,0.0,0.0,0.0,0.0,0.0,0.0,0.0,0.0,0.0,0.0,0.0,0.0,0.0,0.0,0.0,0.0,0.0,-3.5031,-3.5295,-3.5583,-3.5464,-3.5447,-3.5583,-3.56,-3.56,-3.56,-3.56,-3.56,-3.56,-3.56,-3.56,-3.56,-3.56,-3.6326,-3.7702,-3.7838,-3.8633,-3.991,-4.0045,-4.0096,-4.0096,-4.0096,-4.0096,-4.0096,-4.0096,-4.0096,-4.0096,-4.0096,-4.0096,-4.0121,-4.0229,-4.1138,-4.2294,-4.2569,-4.4112,-4.6122,-4.7476,-4.9129,-5.0637,-5.0949,-5.1499,-5.2032,-5.2179,-5.2711,-5.3185,-5.3185,-5.3185,-5.339,-5.4032,-5.4913,-5.5776,-5.6436,-5.7336,-5.7997,-5.7997,-5.7997,-5.7997,-5.7997,-5.7997,-5.7997,-5.7997,-5.7997,-5.7997,-5.7997,-5.7997,-5.7997,-5.7997,-5.7997,-5.7997,-5.7997,-5.7997,-5.7997,-5.7997,-5.8143,-5.8914,-6.0382,-6.119,-6.1998,-6.278,-6.2989,-6.297,-6.278,-6.2989,-6.3062,0.0,0.0,0.0,0.0,-2.76,0.0,0.0,0.0,-2.7831,0.0,0.0,0.0,0.0,0.0,0.0,0.0,0.0,0.0,0.0,0.0,0.0,0.0,0.0,0.0,0.0,0.0,-3.418,-3.5498,-3.4996,-3.4912,-3.5566,-3.56,-3.56,-3.56,-3.56,-3.56,-3.56,-3.56,-3.56,-3.56,-3.56,-3.6079,-3.6948,-3.7601,-3.8345,-3.9157,-3.9825,-4.0096,-4.0096,-4.0096,-4.0096,-4.0096,-4.0096,-4.0096,-4.0096,-4.0096,-4.0096,-4.0171,-4.0631,-4.1391,-4.231,-4.3512,-4.5401,-4.7356,-4.8231,-4.9068,-5.0033,-5.1444,-5.1922,-5.216,-5.2894,-5.3133,-5.3185,-5.3185,-5.3185,-5.3222,-5.3314,-5.4528,-5.5633,-5.5702,-5.695,-5.7997,-5.7997,-5.7997,-5.7997,-5.7997,-5.7997,-5.7997,-5.7997,-5.7997,-5.7997,-5.7997,-5.7997,-5.7997,-5.7997,-5.7997,-5.7997,-5.7997,-5.7997,-5.7997,-5.7997,-5.8694,-5.9478,-6.0382,-6.119,-6.1998,-6.278,-6.3576,-6.3558,-6.2817,-6.3594,-6.3943,0.0,0.0,0.0,0.0,0.0,0.0,-2.9475,0.0,-2.8079,0.0,0.0,0.0,0.0,0.0,0.0,0.0,0.0,0.0,0.0,0.0,0.0,0.0,0.0,0.0,0.0,0.0,0.0,0.0,0.0,-3.3812,-3.3677,-3.489,-3.5397,-3.4979,-3.538,-3.56,-3.56,-3.56,-3.56,-3.56,-3.56,-3.6028,-3.6812,-3.7134,-3.7889,-3.9005,-3.9326,-3.9706,-4.0096,-4.0096,-4.0096,-4.0096,-4.0096,-4.0096,-4.0096,-4.0096,-4.0096,-4.0196,-4.0709,-4.1717,-4.3158,-4.5294,-4.6633,-4.7521,-4.8236,-4.8625,-4.8985,-4.9664,-5.0545,-5.1371,-5.172,-5.2509,-5.3185,-5.3185,-5.3185,-5.3185,-5.3185,-5.4454,-5.5614,-5.5614,-5.6895,-5.7997,-5.7997,-5.7997,-5.7997,-5.7997,-5.7997,-5.7997,-5.7997,-5.7997,-5.7997,-5.7997,-5.7997,-5.7997,-5.7997,-5.7997,-5.7997,-5.7997,-5.8437,-5.8712,-5.8712,-5.9924,-6.075,-6.108,-6.1887,-6.2475,-6.278,-6.3668,-6.3906,-6.3576,-6.442,-6.4549,-3.1256,0.0,0.0,0.0,0.0,0.0,0.0,0.0,0.0,0.0,0.0,0.0,0.0,0.0,0.0,0.0,0.0,0.0,0.0,0.0,0.0,0.0,0.0,0.0,0.0,0.0,0.0,0.0,-3.2983,-3.2949,-3.2632,-3.4523,-3.5346,-3.481,-3.5312,-3.56,-3.56,-3.56,-3.56,-3.56,-3.56,-3.591,-3.6468,-3.6711,-3.7388,-3.8413,-3.8819,-3.9292,-3.9808,-4.0028,-4.0096,-4.0096,-4.0096,-4.0096,-4.0096,-4.0096,-4.0096,-4.0204,-4.0897,-4.2402,-4.4382,-4.6606,-4.7472,-4.7736,-4.8172,-4.8306,-4.8361,-4.86,-4.9682,-5.0857,-5.1077,-5.216,-5.3185,-5.3185,-5.3185,-5.3185,-5.3185,-5.4454,-5.5614,-5.5614,-5.6895,-5.7997,-5.7997,-5.7997,-5.7997,-5.7997,-5.7997,-5.7997,-5.7997,-5.7997,-5.7997,-5.7997,-5.7997,-5.7997,-5.7997,-5.7997,-5.7997,-5.7997,-5.8767,-5.9184,-5.9184,-6.075,-6.1594,-6.1594,-6.2401,-6.278,-6.278,-6.3906,-6.442,-6.4439,-6.5246,-6.5209,0.0,0.0,0.0,-3.1998,0.0,0.0,0.0,0.0,-2.8592,0.0,0.0,0.0,0.0,0.0,0.0,0.0,0.0,0.0,0.0,0.0,0.0,0.0,0.0,0.0,0.0,0.0,0.0,-3.1207,-3.1938,-3.2649,-3.3339,-3.4788,-3.5583,-3.5566,-3.5583,-3.56,-3.56,-3.56,-3.56,-3.56,-3.56,-3.5616,-3.565,-3.6434,-3.6829,-3.6948,-3.8386,-3.9005,-3.9089,-3.9808,-4.0096,-4.0096,-4.0096,-4.0096,-4.0096,-4.0096,-4.0096,-4.0254,-4.1375,-4.3548,-4.5957,-4.6818,-4.7644,-4.8267,-4.8287,-4.8306,-4.8489,-4.9335,-5.016,-5.0986,-5.1756,-5.2582,-5.3185,-5.3185,-5.3185,-5.3185,-5.3185,-5.4454,-5.5614,-5.5614,-5.6895,-5.7997,-5.7997,-5.7997,-5.7997,-5.7997,-5.7997,-5.7997,-5.7997,-5.7997,-5.7997,-5.7997,-5.7997,-5.7997,-5.7997,-5.7997,-5.7997,-5.7997,-5.8767,-5.9184,-5.9184,-6.075,-6.1594,-6.1594,-6.2401,-6.278,-6.278,-6.4475,-6.5264,-6.5283,-6.609,-6.6035,0.0,0.0,-3.5809,-3.5335,0.0,0.0,0.0,0.0,0.0,0.0,0.0,0.0,0.0,0.0,0.0,0.0,0.0,0.0,0.0,0.0,0.0,0.0,0.0,0.0,0.0,0.0,0.0,-2.9687,-2.9974,-2.9989,0.0,-3.2506,-3.3931,-3.3423,-3.4844,-3.56,-3.56,-3.56,-3.56,-3.56,-3.56,-3.56,-3.56,-3.5893,-3.6299,-3.6846,-3.7838,-3.8278,-3.8328,-3.9056,-3.9385,-3.9385,-3.9385,-3.9673,-4.0096,-4.0096,-4.0319,-4.0959,-4.3195,-4.4826,-4.6122,-4.7462,-4.8067,-4.8306,-4.8306,-4.8306,-4.8361,-4.8655,-4.9738,-5.0857,-5.1132,-5.2215,-5.3185,-5.3185,-5.3185,-5.3185,-5.3185,-5.4454,-5.5614,-5.5614,-5.6895,-5.7997,-5.7997,-5.7997,-5.7997,-5.7997,-5.7997,-5.7997,-5.7997,-5.7997,-5.7997,-5.7997,-5.7997,-5.7997,-5.7997,-5.7997,-5.7997,-5.7997,-5.9263,-5.9997,-5.9997,-6.1539,-6.2401,-6.2401,-6.2677,-6.278,-6.278,-6.4468,-6.5319,-6.5338,-6.6127,-6.6072,-3.7719,-3.8087,0.0,-3.7475,-3.6918,0.0,-3.5307,0.0,0.0,0.0,0.0,0.0,0.0,0.0,0.0,0.0,0.0,0.0,0.0,0.0,0.0,0.0,0.0,0.0,0.0,0.0,-2.7908,-2.8163,-2.8688,-2.8873,0.0,0.0,-3.3305,-3.3089,-3.4726,-3.56,-3.56,-3.56,-3.56,-3.56,-3.56,-3.56,-3.56,-3.56,-3.5893,-3.6417,-3.7178,-3.7499,-3.7567,-3.8294,-3.8751,-3.8988,-3.8988,-3.9445,-4.0096,-4.0096,-4.0594,-4.1555,-4.3873,-4.5016,-4.5736,-4.7352,-4.7865,-4.792,-4.8214,-4.8306,-4.8361,-4.8673,-4.9756,-5.0875,-5.1151,-5.2215,-5.3185,-5.3185,-5.3185,-5.3185,-5.3185,-5.4234,-5.517,-5.517,-5.6235,-5.7152,-5.7152,-5.7373,-5.7666,-5.796,-5.7997,-5.7997,-5.7997,-5.7997,-5.7997,-5.7997,-5.7997,-5.7997,-5.7997,-5.7997,-5.7997,-5.7997,-5.9245,-6.0107,-6.0401,-6.1667,-6.2658,-6.3264,-6.297,-6.297,-6.3264,-6.4347,-6.4879,-6.4897,-6.5705,-6.565]},{"header":{"parameterUnit":"m.s-1","parameterCategory":1,"la1":30.6,"la2":29.2853,"lo1":-89.7004,"lo2":-87.6739,"dy":0.0162,"dx":0.0183,"nx":112,"ny":82,"refTime":"2023-03-31T12:00:00:Z","depth":0,"parameterNumber":3,"parameterNumberName":"V-component_of_WINDS"},"data":[0.0,0.0,0.0,0.0,0.0,0.0,0.0,0.0,0.0,0.0,0.0,0.0,0.0,0.0,0.0,0.0,0.0,0.0,0.0,0.0,0.0,0.0,0.0,0.0,0.0,0.0,0.0,0.0,0.0,0.0,0.0,0.0,0.0,0.0,0.0,0.0,0.0,0.0,0.0,0.0,0.0,0.0,0.0,0.0,0.0,0.0,0.0,0.0,0.0,0.0,0.0,0.0,0.0,0.0,0.0,0.0,0.0,0.0,0.0,0.0,0.0,0.0,0.0,0.0,0.0,0.0,0.0,0.0,0.0,0.0,0.0,0.0,0.0,0.0,0.0,0.0,0.0,0.0,0.0,0.0,0.0,0.0,0.0,0.0,0.0,0.0,0.0,0.0,0.0,0.0,-2.3096,-2.6426,-2.6558,-2.6607,-2.7057,-2.5924,-2.4409,-2.2727,0.0,0.0,0.0,0.0,0.0,0.0,0.0,0.0,0.0,0.0,0.0,0.0,0.0,0.0,0.0,0.0,0.0,0.0,0.0,0.0,0.0,0.0,0.0,0.0,0.0,0.0,0.0,0.0,0.0,0.0,0.0,0.0,0.0,0.0,0.0,0.0,0.0,0.0,0.0,0.0,0.0,0.0,0.0,0.0,0.0,0.0,0.0,0.0,0.0,0.0,0.0,0.0,0.0,0.0,0.0,0.0,0.0,0.0,0.0,0.0,0.0,0.0,0.0,0.0,0.0,0.0,0.0,0.0,0.0,0.0,0.0,0.0,0.0,0.0,0.0,0.0,0.0,0.0,0.0,0.0,0.0,0.0,0.0,0.0,0.0,0.0,0.0,0.0,0.0,0.0,0.0,0.0,0.0,0.0,0.0,0.0,0.0,0.0,0.0,0.0,0.0,0.0,0.0,0.0,-2.5527,-2.8242,-2.7249,-2.6607,-2.7057,-2.3873,-2.2058,-2.2553,0.0,0.0,0.0,0.0,0.0,0.0,0.0,0.0,0.0,0.0,0.0,0.0,0.0,0.0,0.0,0.0,0.0,0.0,0.0,0.0,0.0,0.0,0.0,0.0,0.0,0.0,0.0,0.0,0.0,0.0,0.0,0.0,0.0,0.0,0.0,0.0,0.0,0.0,0.0,0.0,0.0,0.0,0.0,0.0,0.0,0.0,0.0,0.0,0.0,0.0,0.0,0.0,0.0,0.0,0.0,0.0,0.0,0.0,0.0,0.0,0.0,0.0,0.0,0.0,0.0,0.0,0.0,0.0,0.0,0.0,0.0,0.0,0.0,0.0,0.0,0.0,0.0,0.0,0.0,0.0,0.0,0.0,0.0,0.0,0.0,0.0,0.0,0.0,0.0,0.0,0.0,0.0,0.0,0.0,0.0,0.0,0.0,0.0,0.0,0.0,0.0,0.0,0.0,-2.5146,-2.71,-2.874,-2.7264,-2.6311,-2.6681,-2.3277,-2.1554,-2.2545,-2.3535,0.0,0.0,0.0,0.0,0.0,0.0,0.0,0.0,0.0,0.0,0.0,0.0,0.0,0.0,0.0,0.0,0.0,0.0,0.0,0.0,0.0,0.0,0.0,0.0,0.0,0.0,0.0,0.0,0.0,0.0,0.0,0.0,0.0,0.0,0.0,0.0,0.0,0.0,0.0,0.0,0.0,0.0,0.0,0.0,0.0,0.0,0.0,0.0,0.0,0.0,0.0,0.0,0.0,0.0,0.0,0.0,0.0,0.0,0.0,0.0,0.0,0.0,0.0,0.0,0.0,0.0,0.0,0.0,0.0,0.0,0.0,0.0,0.0,0.0,0.0,0.0,0.0,0.0,0.0,0.0,0.0,0.0,0.0,0.0,0.0,0.0,0.0,0.0,0.0,0.0,0.0,0.0,0.0,0.0,0.0,0.0,0.0,0.0,0.0,0.0,0.0,0.0,-2.6113,-2.7685,-2.8935,-2.7575,-2.6518,-2.6302,-2.3291,-2.1699,-2.2402,-2.1956,0.0,0.0,0.0,0.0,0.0,0.0,0.0,0.0,0.0,0.0,0.0,0.0,0.0,0.0,0.0,0.0,0.0,0.0,0.0,0.0,0.0,0.0,0.0,0.0,0.0,0.0,0.0,0.0,0.0,0.0,0.0,0.0,0.0,0.0,0.0,0.0,0.0,0.0,0.0,0.0,0.0,0.0,0.0,0.0,0.0,0.0,0.0,0.0,0.0,0.0,0.0,0.0,0.0,0.0,0.0,0.0,0.0,0.0,0.0,0.0,0.0,0.0,0.0,0.0,0.0,0.0,0.0,0.0,0.0,0.0,0.0,0.0,0.0,0.0,0.0,0.0,0.0,0.0,0.0,0.0,0.0,0.0,0.0,0.0,0.0,0.0,0.0,0.0,0.0,0.0,0.0,0.0,0.0,0.0,0.0,0.0,0.0,0.0,0.0,0.0,0.0,0.0,-2.5518,-2.6807,-2.9268,-2.8765,-2.7632,-2.6131,-2.3652,-2.2128,-2.2113,-2.099,0.0,0.0,0.0,0.0,0.0,0.0,0.0,0.0,0.0,0.0,0.0,0.0,0.0,0.0,0.0,0.0,0.0,0.0,0.0,0.0,0.0,0.0,0.0,0.0,0.0,0.0,0.0,0.0,0.0,0.0,0.0,0.0,0.0,0.0,0.0,0.0,0.0,0.0,0.0,0.0,0.0,0.0,0.0,0.0,0.0,0.0,0.0,0.0,0.0,0.0,0.0,0.0,0.0,0.0,0.0,0.0,0.0,0.0,0.0,0.0,0.0,0.0,0.0,0.0,0.0,0.0,0.0,0.0,0.0,0.0,0.0,0.0,0.0,0.0,0.0,0.0,0.0,0.0,0.0,0.0,0.0,0.0,0.0,0.0,0.0,0.0,0.0,0.0,0.0,0.0,0.0,0.0,0.0,0.0,0.0,0.0,0.0,0.0,0.0,0.0,0.0,0.0,-2.6221,-2.79,0.0,-2.89,-2.817,-2.7563,-2.5192,-2.3739,-2.3682,0.0,0.0,0.0,0.0,0.0,0.0,0.0,0.0,0.0,0.0,0.0,0.0,0.0,0.0,0.0,0.0,0.0,0.0,0.0,0.0,0.0,0.0,0.0,0.0,0.0,0.0,0.0,0.0,0.0,0.0,0.0,0.0,0.0,0.0,0.0,0.0,0.0,0.0,0.0,0.0,0.0,0.0,0.0,0.0,0.0,0.0,0.0,0.0,0.0,0.0,0.0,0.0,0.0,0.0,0.0,0.0,0.0,0.0,0.0,0.0,0.0,0.0,0.0,0.0,0.0,0.0,0.0,0.0,0.0,0.0,0.0,0.0,0.0,0.0,0.0,0.0,0.0,0.0,0.0,0.0,0.0,0.0,0.0,0.0,0.0,0.0,0.0,0.0,0.0,0.0,0.0,0.0,0.0,0.0,0.0,0.0,0.0,0.0,0.0,0.0,0.0,0.0,-2.4385,-2.6445,-2.832,0.0,-2.9201,-2.8768,-2.8237,-2.5995,-2.4559,-2.4374,0.0,0.0,0.0,0.0,0.0,0.0,0.0,0.0,0.0,0.0,0.0,0.0,0.0,0.0,0.0,0.0,0.0,0.0,0.0,0.0,0.0,0.0,0.0,0.0,0.0,0.0,0.0,0.0,0.0,0.0,0.0,0.0,0.0,0.0,0.0,0.0,0.0,0.0,0.0,0.0,0.0,0.0,0.0,0.0,0.0,0.0,0.0,0.0,0.0,0.0,0.0,0.0,0.0,0.0,0.0,0.0,0.0,0.0,0.0,0.0,0.0,0.0,0.0,0.0,0.0,0.0,0.0,0.0,0.0,0.0,0.0,0.0,0.0,0.0,0.0,0.0,0.0,0.0,0.0,0.0,0.0,0.0,0.0,0.0,0.0,0.0,0.0,0.0,0.0,0.0,0.0,0.0,0.0,0.0,0.0,0.0,0.0,0.0,0.0,0.0,0.0,0.0,-2.4307,-2.5937,-2.7666,-2.943,-2.9941,-2.9537,-2.7957,-2.581,-2.438,0.0,0.0,0.0,0.0,0.0,0.0,0.0,0.0,0.0,0.0,0.0,0.0,0.0,0.0,0.0,0.0,0.0,0.0,0.0,0.0,0.0,0.0,0.0,0.0,0.0,0.0,0.0,0.0,0.0,0.0,0.0,0.0,0.0,0.0,0.0,0.0,0.0,0.0,0.0,0.0,0.0,0.0,0.0,0.0,0.0,0.0,0.0,0.0,0.0,0.0,0.0,0.0,0.0,0.0,0.0,0.0,0.0,0.0,0.0,0.0,0.0,0.0,0.0,0.0,0.0,0.0,0.0,0.0,0.0,0.0,0.0,0.0,0.0,0.0,0.0,0.0,0.0,0.0,0.0,0.0,0.0,0.0,0.0,0.0,0.0,0.0,0.0,0.0,0.0,0.0,0.0,0.0,0.0,0.0,0.0,0.0,0.0,0.0,0.0,0.0,0.0,0.0,0.0,-2.4307,-2.5674,-2.7226,-2.8935,-2.9492,-2.9577,-2.9116,-2.7678,-2.6305,-2.5258,0.0,0.0,0.0,0.0,0.0,0.0,0.0,0.0,0.0,0.0,0.0,0.0,0.0,0.0,0.0,0.0,0.0,0.0,0.0,0.0,0.0,0.0,0.0,0.0,0.0,0.0,0.0,0.0,0.0,0.0,0.0,0.0,0.0,0.0,0.0,0.0,0.0,0.0,0.0,0.0,0.0,0.0,0.0,0.0,0.0,0.0,0.0,0.0,0.0,0.0,0.0,0.0,0.0,0.0,0.0,0.0,0.0,0.0,0.0,0.0,0.0,0.0,0.0,0.0,0.0,0.0,0.0,0.0,0.0,0.0,0.0,0.0,0.0,0.0,0.0,0.0,0.0,0.0,0.0,0.0,0.0,0.0,0.0,0.0,0.0,0.0,0.0,0.0,0.0,0.0,0.0,0.0,0.0,0.0,0.0,0.0,0.0,0.0,0.0,0.0,0.0,0.0,-2.4307,-2.5566,-2.7041,-2.874,-2.915,-2.9307,-2.9307,-2.7988,-2.6826,-2.6045,0.0,0.0,0.0,0.0,0.0,0.0,0.0,0.0,0.0,0.0,0.0,0.0,0.0,0.0,0.0,0.0,0.0,0.0,0.0,0.0,0.0,0.0,0.0,0.0,0.0,0.0,0.0,0.0,0.0,0.0,0.0,0.0,0.0,0.0,0.0,0.0,0.0,0.0,0.0,0.0,0.0,0.0,0.0,0.0,0.0,0.0,0.0,0.0,0.0,0.0,0.0,0.0,0.0,0.0,0.0,0.0,0.0,0.0,0.0,0.0,0.0,0.0,0.0,0.0,0.0,0.0,0.0,0.0,0.0,0.0,0.0,0.0,0.0,0.0,0.0,0.0,0.0,0.0,0.0,0.0,0.0,0.0,0.0,0.0,0.0,0.0,0.0,0.0,0.0,0.0,0.0,0.0,0.0,0.0,0.0,0.0,0.0,0.0,0.0,0.0,0.0,0.0,-2.4365,-2.5557,-2.6982,-2.8682,-2.8857,-2.8857,-2.8857,-2.7383,-2.6406,-2.6338,0.0,0.0,0.0,0.0,0.0,0.0,0.0,0.0,0.0,0.0,0.0,0.0,0.0,0.0,0.0,0.0,0.0,0.0,0.0,0.0,0.0,0.0,0.0,0.0,0.0,0.0,0.0,0.0,0.0,0.0,0.0,0.0,0.0,0.0,0.0,0.0,0.0,0.0,0.0,0.0,0.0,0.0,0.0,0.0,0.0,0.0,0.0,0.0,0.0,0.0,0.0,0.0,0.0,0.0,0.0,0.0,0.0,0.0,0.0,0.0,-3.2579,0.0,0.0,0.0,0.0,0.0,0.0,0.0,0.0,0.0,0.0,0.0,0.0,0.0,0.0,0.0,0.0,0.0,0.0,0.0,0.0,0.0,0.0,0.0,0.0,0.0,0.0,0.0,0.0,0.0,0.0,0.0,0.0,0.0,0.0,0.0,0.0,0.0,0.0,0.0,0.0,0.0,-2.4824,-2.5478,-2.6533,-2.8242,-2.8428,-2.8428,-2.8428,-2.7471,-2.6592,-2.5869,-2.4707,0.0,0.0,0.0,0.0,0.0,0.0,0.0,0.0,0.0,0.0,0.0,0.0,0.0,0.0,0.0,0.0,0.0,0.0,0.0,0.0,0.0,0.0,0.0,0.0,0.0,0.0,0.0,0.0,0.0,0.0,0.0,0.0,0.0,0.0,0.0,0.0,0.0,0.0,0.0,0.0,0.0,0.0,0.0,0.0,0.0,0.0,0.0,0.0,0.0,0.0,0.0,0.0,0.0,0.0,0.0,0.0,0.0,0.0,0.0,0.0,-3.3093,0.0,0.0,0.0,0.0,0.0,0.0,0.0,0.0,0.0,0.0,0.0,0.0,0.0,0.0,0.0,0.0,0.0,0.0,0.0,0.0,0.0,0.0,0.0,0.0,0.0,0.0,0.0,0.0,0.0,0.0,0.0,0.0,0.0,0.0,0.0,0.0,0.0,0.0,0.0,0.0,-2.5008,-2.5644,-2.6621,-2.8135,-2.8291,-2.8291,-2.8291,-2.751,-2.6826,-2.6327,-2.5127,0.0,0.0,0.0,0.0,0.0,0.0,0.0,0.0,0.0,0.0,0.0,0.0,0.0,0.0,0.0,0.0,0.0,0.0,0.0,0.0,0.0,0.0,0.0,0.0,0.0,0.0,0.0,0.0,0.0,0.0,0.0,0.0,0.0,0.0,0.0,0.0,0.0,0.0,0.0,0.0,0.0,0.0,0.0,0.0,0.0,0.0,0.0,0.0,0.0,0.0,0.0,0.0,0.0,-3.2629,-3.3181,-3.369,-3.369,-3.3432,-3.3169,-3.4781,-3.4668,-3.3395,0.0,0.0,0.0,0.0,0.0,0.0,0.0,0.0,0.0,0.0,0.0,0.0,0.0,0.0,0.0,0.0,0.0,0.0,0.0,0.0,0.0,0.0,0.0,0.0,0.0,-2.8073,-2.7797,0.0,0.0,0.0,0.0,0.0,0.0,0.0,0.0,0.0,0.0,0.0,0.0,-2.5018,-2.584,-2.6875,-2.8154,-2.8223,-2.8184,-2.8184,-2.7402,-2.6904,-2.6904,-2.541,-2.4336,0.0,0.0,0.0,0.0,0.0,0.0,0.0,0.0,0.0,0.0,0.0,0.0,0.0,0.0,0.0,0.0,0.0,0.0,0.0,0.0,0.0,0.0,0.0,0.0,0.0,0.0,0.0,0.0,0.0,0.0,0.0,0.0,-3.338,-3.4437,0.0,0.0,0.0,0.0,0.0,0.0,0.0,0.0,0.0,0.0,0.0,0.0,0.0,0.0,-3.2528,-3.3771,-3.4304,-3.4299,-3.5328,-3.5902,-3.5977,-3.5977,-3.6204,-3.6496,-3.5784,0.0,-3.4474,-3.406,0.0,0.0,0.0,0.0,0.0,0.0,0.0,0.0,0.0,0.0,0.0,0.0,0.0,0.0,0.0,0.0,0.0,0.0,0.0,0.0,0.0,0.0,-2.7728,-2.7752,-2.7882,-2.7989,0.0,-2.7652,-2.7473,-2.7648,-2.6659,0.0,0.0,0.0,0.0,0.0,0.0,0.0,-2.5047,-2.584,-2.6875,-2.8154,-2.7969,-2.7806,-2.7806,-2.6963,-2.6475,-2.6475,-2.5537,-2.4785,-2.4355,-2.5079,0.0,0.0,0.0,0.0,0.0,0.0,0.0,0.0,0.0,0.0,0.0,0.0,0.0,0.0,0.0,0.0,0.0,0.0,0.0,0.0,0.0,0.0,0.0,0.0,0.0,0.0,0.0,0.0,0.0,-3.4961,-3.5474,-3.455,-3.5996,-3.6603,0.0,0.0,0.0,0.0,0.0,0.0,0.0,0.0,0.0,-3.3124,-3.3985,-3.401,-3.3124,-3.4801,-3.5667,-3.568,-3.6458,-3.6985,-3.7299,-3.7674,-3.7951,-3.8115,-3.7952,-3.7563,-3.6935,-3.5441,-3.5064,-3.524,0.0,0.0,0.0,0.0,-3.1637,-3.2767,-3.2541,-3.3015,0.0,0.0,0.0,0.0,0.0,0.0,0.0,0.0,0.0,0.0,0.0,0.0,0.0,-2.8461,-2.8615,-2.886,-2.8682,-2.8073,-2.7573,0.0,-2.6775,-2.5742,-2.4609,0.0,0.0,0.0,0.0,-2.5312,-2.5752,-2.6572,-2.7412,-2.8203,-2.8125,-2.792,-2.7738,-2.71,-2.6641,-2.6406,-2.5605,-2.4873,-2.4434,-2.5216,-2.5079,0.0,0.0,0.0,0.0,0.0,0.0,0.0,0.0,0.0,0.0,0.0,0.0,0.0,0.0,0.0,0.0,0.0,0.0,0.0,0.0,0.0,0.0,0.0,0.0,0.0,0.0,0.0,0.0,-3.5685,-3.6002,-3.4142,-3.5114,-3.5679,0.0,0.0,0.0,0.0,0.0,0.0,-3.3715,-3.4236,-3.4412,-3.418,-3.5328,-3.5441,-3.4349,-3.6132,-3.7036,-3.7048,-3.7575,-3.8115,-3.8655,-3.8944,-3.9157,-3.9308,-3.9584,-3.9459,-3.8931,-3.6985,-3.6019,-3.5692,-3.47,-3.4236,-3.4054,-3.3006,-3.3445,-3.4512,-3.4374,-3.5082,-3.6223,-3.6822,0.0,-3.5278,-3.3706,0.0,0.0,0.0,0.0,-2.996,-2.8635,-2.9113,-2.9815,-2.9223,-2.9248,-2.9316,-2.8994,-2.8262,-2.762,0.0,-2.666,-2.5908,-2.4922,0.0,0.0,0.0,0.0,-2.581,-2.6182,-2.707,-2.7822,-2.8252,-2.8193,-2.7959,-2.7539,-2.71,-2.667,-2.625,-2.5391,-2.4756,-2.4424,-2.4894,-2.4883,-2.4131,0.0,0.0,0.0,0.0,0.0,0.0,0.0,0.0,0.0,0.0,0.0,0.0,0.0,0.0,0.0,0.0,0.0,0.0,0.0,0.0,0.0,0.0,0.0,0.0,0.0,0.0,0.0,0.0,0.0,-3.2934,-3.4071,0.0,0.0,0.0,0.0,-3.3726,-3.4285,-3.4884,-3.5345,-3.5968,-3.6496,-3.696,-3.7061,-3.7312,-3.7751,-3.8417,-3.8793,-3.8806,-3.9308,-3.986,-4.0375,-3.9873,-3.9936,-4.0413,-3.991,-3.9672,-3.9559,-3.8366,-3.8191,-3.8442,-3.6307,-3.6081,-3.6722,-3.46,-3.4839,-3.6204,-3.5596,-3.6473,-3.7977,-3.8555,-3.7412,-3.5085,-3.129,-2.9856,0.0,0.0,-2.8655,-2.8392,-2.8335,-2.8951,-2.9613,-2.9587,-2.9238,-2.8945,-2.8926,-2.8262,-2.7708,0.0,-2.6621,-2.5703,-2.5635,0.0,-2.4803,-2.3916,-2.4902,-2.5693,-2.5713,-2.6875,-2.7822,-2.8252,-2.7939,-2.7519,-2.708,-2.666,-2.623,-2.5742,-2.4941,-2.4443,-2.4414,-2.4072,-2.4238,-2.5037,-2.4658,0.0,0.0,0.0,0.0,0.0,0.0,0.0,0.0,0.0,0.0,0.0,0.0,0.0,0.0,0.0,0.0,0.0,0.0,0.0,0.0,0.0,0.0,0.0,0.0,0.0,0.0,0.0,0.0,-3.4489,-3.5572,0.0,-3.6035,-3.5921,-3.5858,-3.5817,-3.5794,-3.6019,-3.6571,-3.6797,-3.7324,-3.8241,-3.8266,-3.853,-3.9082,-3.9295,-3.9396,-3.9408,-3.9961,-4.0136,-3.9986,-4.0149,-4.0325,-4.0488,-3.9936,-4.0099,-4.0701,-3.9936,-3.932,-3.8768,-3.7199,-3.6442,-3.628,-3.6088,-3.6268,-3.672,-3.7431,-3.8065,-3.8379,-3.726,-3.5173,-3.301,-3.245,-3.1614,-3.0872,-3.0945,-3.0696,-3.0269,-2.9656,-2.9746,-2.9971,-2.9971,-3.0078,-3.0029,-2.9463,-2.9156,-2.8785,-2.8174,-2.7246,-2.6562,-2.6562,-2.6426,-2.6123,-2.5547,-2.6328,-2.6982,-2.6982,-2.7617,-2.8125,-2.8271,-2.8154,-2.7783,-2.707,-2.6875,-2.6494,-2.5732,-2.4855,-2.4414,-2.4414,-2.4014,-2.4062,-2.4639,-2.4775,-2.4853,0.0,0.0,0.0,0.0,0.0,0.0,0.0,0.0,0.0,0.0,0.0,0.0,0.0,0.0,0.0,0.0,0.0,0.0,0.0,0.0,0.0,0.0,0.0,0.0,0.0,0.0,-3.6655,-3.6205,-3.6632,-3.702,-3.7315,-3.6769,-3.6523,-3.6793,-3.7086,-3.7423,-3.7726,-3.7927,-3.8379,-3.9132,-3.9333,-3.9597,-3.9973,-4.0162,-4.0162,-3.9973,-4.0337,-4.0425,-4.0262,-4.0438,-4.0413,-4.0237,-4.0249,-4.035,-4.0526,-4.0714,-4.0022,-3.8834,-3.8056,-3.6976,-3.5934,-3.6721,-3.6882,-3.6823,-3.7767,-3.804,-3.7577,-3.5536,-3.3604,-3.2091,-3.22,-3.1743,-3.1181,-3.1467,-3.1334,-3.101,-3.0541,-3.043,-3.043,-3.043,-3.0547,-3.0498,-2.9912,-2.9443,-2.9014,-2.8584,-2.7822,-2.7139,-2.6855,-2.668,-2.6387,-2.581,-2.6201,-2.6572,-2.6572,-2.7197,-2.7656,-2.7656,-2.8037,-2.7949,-2.709,-2.6885,-2.6504,-2.5732,-2.4775,-2.4336,-2.4619,-2.3818,-2.3691,-2.4404,-2.4697,-2.4676,-2.4326,0.0,0.0,0.0,0.0,0.0,0.0,0.0,0.0,0.0,0.0,0.0,0.0,0.0,0.0,0.0,0.0,0.0,0.0,0.0,0.0,0.0,0.0,0.0,-3.6285,-3.6823,-3.7277,-3.7717,-3.7007,-3.6505,-3.6505,-3.6496,-3.6496,-3.6518,-3.8026,-3.8944,-3.8944,-3.9371,-3.9647,-3.9647,-4.0162,-4.045,-4.0463,-4.0974,-4.1,-4.0538,-4.0563,-4.084,-4.1263,-4.0802,-4.0275,-3.9823,-4.0877,-4.045,-3.912,-4.0636,-4.0293,-3.8832,-3.8876,-3.7657,-3.5893,-3.6361,-3.6539,-3.6528,-3.6506,-3.6194,-3.5512,-3.3668,-3.3077,-3.2638,-3.035,-2.9893,-3.0215,-3.0215,-3.0215,-3.0322,-3.0771,-3.0889,-3.0889,-3.0889,-3.0547,-3.0215,-3.0205,-2.9228,-2.8467,-2.8848,-2.8262,-2.7493,-2.6592,-2.6094,-2.5479,-2.4668,-2.4541,0.0,-2.4541,-2.5654,-2.6455,-2.6465,-2.7539,-2.792,-2.71,-2.6631,-2.6182,-2.5713,-2.4531,-2.4199,-2.5086,-2.3457,-2.3164,-2.4414,-2.4453,-2.4336,-2.4149,0.0,0.0,0.0,0.0,0.0,0.0,0.0,0.0,0.0,0.0,0.0,0.0,0.0,0.0,0.0,0.0,0.0,0.0,0.0,0.0,0.0,0.0,-3.509,-3.5063,-3.6449,-3.7435,-3.7384,-3.8225,-3.8781,-3.8781,-3.8781,-3.8781,-3.8781,-3.9207,-3.9471,-3.9471,-3.8831,-3.8467,-3.8467,-3.8617,-3.8906,-3.932,-4.0275,-4.0811,-4.1062,-4.1517,-4.158,-4.13,-4.1593,-4.1672,-4.1521,-4.1379,-4.153,-4.1764,-4.0318,-3.8788,-3.753,-3.8197,-3.6789,-3.4397,-3.5323,-3.5636,-3.5591,-3.4917,-3.4329,-3.3791,-3.3289,-3.2369,-3.1391,-3.0711,-3.0605,-3.0703,-3.0703,-3.0703,-3.0732,-3.0859,-3.0889,-3.0889,-3.0889,-3.0791,-3.0605,-3.0273,-2.9922,-2.9521,-2.9014,-2.873,-2.8408,-2.7861,-2.7666,-2.751,-2.7266,-2.7226,0.0,-2.7226,-2.7549,-2.7891,-2.8193,-2.7705,-2.7402,-2.748,-2.6523,-2.582,-2.5693,-2.5098,-2.4871,-2.5106,-2.4316,-2.4209,-2.4873,-2.5205,-2.5305,0.0,0.0,0.0,0.0,0.0,0.0,0.0,0.0,0.0,0.0,0.0,0.0,0.0,0.0,0.0,0.0,0.0,0.0,0.0,0.0,0.0,0.0,-3.5587,-3.5908,-3.5974,-3.7034,-3.7891,-3.819,-3.9094,-3.9697,-3.9697,-3.9697,-3.9697,-3.9697,-3.9697,-3.9697,-3.9697,-3.9295,-3.873,-3.8027,-3.9132,-3.9572,-3.922,-4.0764,-4.1593,-4.1681,-4.2049,-4.2049,-4.1693,-4.2062,-4.1961,0.0,-4.1856,-4.1586,-4.0857,-3.9886,-3.8204,0.0,0.0,0.0,0.0,0.0,-3.401,-3.3925,-3.342,-3.2907,-3.2425,-3.2425,-3.1754,-3.0889,-3.0889,-3.0635,-3.0342,-3.0342,-3.0078,-2.9883,-3.0244,-3.0342,-3.043,-3.0801,-3.0889,-3.082,-3.0547,-3.0195,-2.9844,-2.9521,0.0,0.0,-2.8564,-2.8115,-2.7637,-2.7275,-2.706,-2.6943,-2.6943,-2.7266,-2.7588,-2.7832,-2.7519,-2.7314,-2.7393,-2.6377,0.0,0.0,0.0,-2.4717,-2.4541,-2.4096,0.0,0.0,0.0,-2.5324,-2.502,0.0,0.0,0.0,-2.3286,-2.3173,0.0,0.0,0.0,0.0,0.0,0.0,0.0,0.0,0.0,0.0,0.0,0.0,0.0,0.0,0.0,0.0,-3.6221,-3.727,-3.8239,-3.8379,-3.8705,-3.9584,-3.9697,-3.9697,-3.9697,-3.9697,-3.9697,-3.9697,-3.9697,-3.9722,-3.9785,0.0,0.0,0.0,0.0,-4.1194,-3.9798,-4.1844,-4.2728,-4.2301,-4.2301,-4.2301,-4.2301,-4.2301,-4.1735,-4.0789,-4.2143,-4.1004,-3.8271,-3.9063,-3.7546,-3.4807,-3.4807,-3.3424,-3.1484,-3.1768,-3.1994,-3.2012,-3.1964,0.0,0.0,-3.1445,-3.1191,-3.0889,-3.0889,-3.0342,-2.9773,-2.9773,-2.917,-2.876,-2.9521,-2.9773,-2.9912,-3.0703,-3.0889,-3.0889,-3.0889,-3.0273,-2.9814,-3.0137,-2.9277,-2.8594,-2.8877,-2.7939,-2.6894,-2.6093,-2.5684,-2.5478,-2.5478,-2.6123,-2.6621,-2.667,0.0,0.0,-2.7178,-2.6289,-2.5713,-2.5762,-2.4982,-2.4414,-2.4102,-2.3597,-2.3482,-2.3854,-2.4675,-2.47,-2.3974,-2.5904,-2.575,-2.3566,-2.3618,-2.3305,0.0,0.0,0.0,0.0,0.0,0.0,0.0,0.0,0.0,0.0,0.0,0.0,0.0,0.0,0.0,-3.7601,-3.8212,-3.9007,-4.0463,-4.0648,-4.045,-3.9772,-3.9697,-3.9697,-3.9697,-3.9697,-3.9697,-3.9697,-3.9697,-3.9885,-4.0337,-3.917,0.0,-3.9346,-3.9459,-3.9785,-4.035,-4.1656,-4.2539,-4.2879,0.0,0.0,-4.2879,-4.2879,-4.2514,-4.1815,-4.1286,-4.0233,-3.8714,-3.6502,-3.425,-3.2217,-3.2217,-3.1732,-3.0937,-3.0303,-3.0527,-3.1035,-3.0379,-3.0488,-3.1016,-3.1016,-3.0957,-3.0889,-3.0889,-3.0771,0.0,-3.0635,-3.0518,-3.043,-3.0596,-3.0635,-3.0674,-3.085,-3.0889,-3.0889,-3.0889,-3.0762,-3.0547,-3.0254,-2.999,-2.9639,-2.9023,-2.8437,-2.7988,-2.7822,-2.7725,-2.7666,-2.7666,-2.7822,-2.8057,-2.8398,-2.7353,-2.7021,-2.7959,-2.6631,-2.584,-2.624,-2.5771,-2.5605,-2.5869,-2.545,-2.4875,-2.4216,-2.4642,-2.4232,-2.2959,-2.5201,-2.4784,-2.2073,-2.3018,-2.3218,0.0,0.0,0.0,0.0,0.0,0.0,0.0,0.0,0.0,0.0,0.0,-3.6167,0.0,0.0,-3.7061,-3.8363,-3.8743,-3.9446,-4.105,-4.1288,-4.0974,-4.0212,-4.035,-4.03,-3.9747,-3.9936,-3.9986,-3.9722,-3.9697,-3.9936,-4.0488,-3.9986,-3.9685,-3.9697,-4.0488,-4.0802,-4.0513,-4.1882,-4.2698,-4.2974,-4.2974,-4.2974,-4.2974,-4.2137,-4.1638,-4.1325,-3.9741,-3.8331,-3.6943,-3.4118,-3.2314,-3.1201,-3.1201,-3.1201,-3.1123,-3.0469,-3.0518,-3.083,-3.0381,-3.0527,-3.0889,-3.0889,-3.0889,-3.0889,-3.0889,-3.0586,-3.0234,-3.0234,-2.9922,-2.9687,-3.0117,-3.0234,-3.0342,-3.0791,-3.0889,-3.0889,-3.0889,-3.0889,-3.082,-3.0596,-3.0361,-2.999,-2.9355,-2.8887,-2.8535,-2.833,-2.8291,-2.8291,-2.8291,-2.8291,-2.8369,-2.8584,-2.7461,-2.6963,-2.7598,-2.6475,-2.5781,-2.6045,-2.5384,-2.5419,-2.6377,-2.5698,-2.5421,-2.5679,-2.5277,-2.473,-2.4031,-2.5424,-2.4931,-2.2694,-2.3184,-2.2487,0.0,0.0,0.0,0.0,0.0,0.0,0.0,0.0,-3.6099,-3.5872,-3.6884,-3.7779,-3.7843,-3.8107,-3.8475,-3.8971,-3.9333,-4.0011,-4.1455,-4.1601,-4.1417,-4.0752,-4.1012,-4.094,-3.9948,-4.0262,-4.0287,-3.9735,-3.9697,-3.9986,-4.0639,-4.099,-4.0915,-4.035,-4.1957,-4.2233,-4.1003,-4.2321,-4.2974,-4.2974,-4.2974,-4.2862,-4.25,-4.1191,-4.03,-3.973,-3.7606,-3.5843,-3.4341,-3.2227,-3.1201,-3.0889,-3.0889,-3.1094,-3.1348,-3.1016,-3.0889,-3.0889,-3.0889,-3.0889,-3.0889,-3.0889,-3.0889,-3.0889,-3.0889,-3.0391,-2.9824,-2.9824,-2.9326,-2.8955,-2.9648,-2.9824,-3.001,-3.0723,-3.0889,-3.0889,-3.0889,-3.0889,-3.0889,-3.0889,-3.0586,-3.0166,-2.9714,-2.9277,-2.8877,-2.8369,-2.8291,-2.8291,-2.8291,-2.8291,-2.8291,-2.8291,-2.7598,-2.7139,-2.7139,-2.6426,-2.5937,-2.5937,-2.5186,-2.5254,-2.6454,-2.5769,-2.5811,-2.6699,-2.5835,-2.5121,-2.4576,-2.5295,-2.471,-2.2927,-2.3036,-2.1716,-3.2238,-3.1317,-3.077,-3.1847,-3.2701,-3.3106,0.0,0.0,-3.6658,-3.5174,-3.6497,-3.8119,-3.8638,-3.9146,-3.9814,-4.0807,-4.1446,-4.2074,-4.2698,-4.2798,-4.2409,-4.1313,-4.125,-4.105,-4.0488,-4.0475,-4.0287,-3.9735,-3.9697,-4.0149,-4.1137,-4.084,-4.1229,-4.2572,-4.2426,-4.2451,-4.2698,-4.2886,-4.2974,-4.2974,-4.2974,-4.2263,-4.0892,-4.065,-3.9324,-3.7029,-3.4639,-3.2984,-3.185,-3.1211,-3.0928,-3.0889,-3.0889,-3.0918,-3.0957,-3.0908,-3.0889,-3.0889,-3.0889,-3.0889,-3.0889,-3.0889,-3.0889,-3.0889,-3.0889,-3.082,-3.0742,-3.0742,-3.0674,-3.0625,-3.0723,-3.0742,-3.0771,-3.0869,-3.0889,-3.0889,-3.0889,-3.0889,-3.0889,-3.0889,-3.085,-3.0547,-2.9717,-2.9587,-2.9219,-2.8418,-2.8291,-2.8291,-2.8291,-2.8291,-2.8291,-2.8291,-2.7871,-2.7598,-2.7598,-2.7148,-2.6865,-2.6865,-2.6412,-2.6392,-2.6924,-2.6829,-2.6427,-2.575,-2.553,-2.4145,-2.1647,-2.326,-2.2597,-1.9931,-2.1222,-2.1481,-2.9983,-3.0775,-3.1862,0.0,-3.3885,-3.5775,-3.5513,-3.7109,-3.8454,-3.7751,-3.8605,-3.9634,-4.0199,-3.9973,-4.0162,0.0,-4.1467,-4.1618,-4.2811,-4.2753,-4.2208,-4.1376,-4.0777,-4.0162,-3.9609,-4.0136,-4.0162,-3.9283,-3.9509,-4.0174,-4.1225,-4.0193,-4.0605,-4.2936,-4.2167,-4.2167,-4.2974,-4.3614,-4.3614,-4.2974,-4.2344,-4.155,-4.0534,-3.8676,-3.6432,-3.4038,-3.3028,-3.2008,-3.1162,-3.123,-3.1113,-3.0889,-3.0889,-3.1035,-3.123,-3.0986,-3.0889,-3.0889,-3.0889,-3.0889,-3.0889,-3.0889,-3.0889,-3.0889,-3.0889,-3.0889,-3.0889,-3.0889,-3.0889,-3.0889,-3.0889,-3.0889,-3.0889,-3.0889,-3.0889,-3.0889,-3.0889,-3.0889,-3.0889,-3.0889,-3.0889,-3.0693,-3.0049,-2.9792,-2.9365,-2.875,-2.8447,-2.8291,-2.8291,-2.8291,-2.8203,-2.7959,-2.7826,-2.7568,-2.7314,-2.7119,-2.7012,-2.7012,-2.709,-2.7207,-2.7393,-2.7627,-2.7559,-2.7182,-2.6296,-2.4806,-2.2712,-2.3414,-2.2266,-1.9424,-2.0923,-2.1072,-2.89,-3.0331,0.0,-3.2742,-3.5253,-3.7764,-3.853,-3.9685,-4.0601,-4.0601,-4.0915,-4.1266,-4.1517,-4.0789,-4.0588,-4.1986,-4.1492,-4.1392,-4.2585,-4.2271,-4.1555,-4.0485,-3.9584,-3.8668,-3.7814,-3.9145,-3.9798,-3.9145,-3.9609,-4.0337,-4.1238,-4.0042,-4.0262,-4.2448,-4.1914,-4.1718,-4.2041,-4.3312,-4.3225,-4.1834,-4.1081,-4.0198,-3.9147,-3.6139,-3.3923,-3.2324,-3.209,-3.1641,-3.1084,-3.1396,-3.1269,-3.0889,-3.0889,-3.1074,-3.1309,-3.1006,-3.0967,-3.1045,-3.0928,-3.0889,-3.0889,-3.0889,-3.0889,-3.0889,-3.0889,-3.0889,-3.0889,-3.0889,-3.0889,-3.0889,-3.0889,-3.0889,-3.0889,-3.0889,-3.0889,-3.0889,-3.0889,-3.0889,-3.0889,-3.0889,-3.0889,-3.0742,-3.0273,-2.9941,-2.9551,-2.9004,-2.8662,-2.8428,-2.831,-2.8291,-2.8174,-2.7924,-2.7894,-2.7715,-2.7393,-2.7266,-2.7197,-2.7197,-2.749,-2.7718,-2.7718,-2.8066,-2.8291,-2.8291,-2.6825,-2.5316,-2.3822,-2.3375,-2.1877,-1.9424,-2.0479,-2.0422,-3.0105,0.0,-2.9916,-3.3709,-3.5554,-3.7161,-3.9835,-4.1706,-4.2873,-4.2873,-4.2886,-4.2748,-4.2288,-4.1668,-4.148,-4.2125,-4.2187,-4.2175,-4.2225,-4.1706,-4.0498,-3.8366,-3.76,-3.6621,0.0,-3.7324,-3.9132,-3.9634,-4.0174,-4.0739,-4.125,-4.0688,-4.0654,-4.1247,-4.1793,-4.1259,-3.9635,-4.1343,-4.1098,-3.9001,-3.8963,-3.7906,-3.5836,-3.3386,-3.2473,-3.2734,-3.1894,-3.1523,-3.1504,-3.1514,-3.1269,-3.0889,-3.0889,-3.0898,-3.0908,-3.0898,-3.1152,-3.1435,-3.1035,-3.0889,-3.0889,-3.0889,-3.0889,-3.0889,-3.0889,-3.0889,-3.0889,-3.0889,-3.0889,-3.0889,-3.0889,-3.0889,-3.0889,-3.0889,-3.0889,-3.0889,-3.0889,-3.0889,-3.0889,-3.0889,-3.0889,-3.0742,-3.0273,-3.0185,-2.9893,-2.9043,-2.8906,-2.875,-2.834,-2.8291,-2.8291,-2.8271,-2.8271,-2.8271,-2.8252,-2.7881,-2.7699,-2.7699,-2.7708,-2.7718,-2.7718,-2.8066,-2.8291,-2.8291,-2.6825,-2.5316,-2.3822,-2.2363,-2.0866,-1.9424,-1.9424,-1.9424,0.0,0.0,-3.4349,-3.6395,-3.858,-4.0752,-4.2773,-4.3388,-4.3526,-4.3526,-4.1781,-4.0074,-3.9509,-3.8354,-3.799,-3.971,-3.9397,-3.9673,-4.1898,-4.0099,-3.858,-3.858,-3.7486,0.0,0.0,0.0,0.0,-3.6654,-3.8028,-3.8694,-3.8262,-3.8677,-3.9163,-3.9665,-4.0559,-4.0513,-3.9505,-4.0513,-4.0336,-3.8902,-3.7475,-3.5902,-3.4175,-3.307,-3.2666,-3.2773,-3.249,-3.2041,-3.1543,-3.1836,-3.1533,-3.0889,-3.0889,-3.1064,-3.1269,-3.0996,-3.1152,-3.1455,-3.1035,-3.0889,-3.0889,-3.0889,-3.0889,-3.0889,-3.0889,-3.0889,-3.0889,-3.0889,-3.0889,-3.0889,-3.0889,-3.0889,-3.0889,-3.0889,-3.0889,-3.0889,-3.0889,-3.0889,-3.0889,-3.0889,-3.0889,-3.084,-3.0684,-3.04,-3.001,-2.9434,-2.8867,-2.8447,-2.831,-2.8291,-2.8291,-2.8291,-2.8291,-2.8291,-2.8291,-2.8164,-2.8086,-2.8086,-2.8086,-2.8086,-2.8086,-2.8223,-2.8291,-2.8291,-2.6825,-2.5316,-2.3822,-2.2307,-2.0866,-1.9424,-1.9424,-1.9424,0.0,-3.4349,-3.7362,-3.9069,-4.1128,-4.3074,-4.433,-4.4204,-4.3627,-4.3049,-4.0764,-3.8454,-3.7086,-3.5642,-3.5328,-3.7349,-3.7073,-3.7701,-4.088,-3.9309,-3.7914,-3.8228,-3.736,-3.6784,0.0,0.0,0.0,-3.6133,-3.7211,-3.7676,-3.7132,-3.7691,-3.8094,-3.8226,-3.924,-3.9258,-3.8029,-3.9084,-3.8758,-3.7194,-3.5676,-3.4373,-3.3408,-3.2988,-3.2549,-3.2129,-3.2441,-3.1904,-3.0879,-3.1631,-3.1523,-3.0889,-3.0889,-3.1055,-3.126,-3.0986,-3.1064,-3.126,-3.0986,-3.0889,-3.0889,-3.0889,-3.0889,-3.0889,-3.0889,-3.0889,-3.0889,-3.0889,-3.0889,-3.0889,-3.0889,-3.0889,-3.0889,-3.0889,-3.0889,-3.0889,-3.0889,-3.0889,-3.0889,-3.0889,-3.0889,-3.0889,-3.0889,-3.0508,-3.0107,-2.9834,-2.9062,-2.8516,-2.8516,-2.8389,-2.8291,-2.8291,-2.8291,-2.8291,-2.8291,-2.8291,-2.8291,-2.8291,-2.8291,-2.8291,-2.8291,-2.778,-2.7511,-2.752,-2.5489,-2.398,-2.2983,-2.1536,-2.0314,-1.9424,-1.9424,-1.9424,-3.458,-3.6849,-3.8881,-4.1685,-4.3074,-4.3953,-4.4505,-4.4129,-4.32,-4.1463,-3.9735,-3.7651,0.0,0.0,-3.3332,-3.5082,-3.5345,-3.6323,-3.9245,-3.9132,-3.8416,0.0,0.0,0.0,0.0,0.0,0.0,-3.8103,0.0,-3.754,-3.7664,-3.774,-3.7533,-3.7042,-3.807,-3.756,-3.543,-3.6947,-3.6531,-3.4033,-3.3613,-3.3418,-3.3408,-3.3008,-3.2168,-3.1064,-3.1855,-3.1309,-2.9795,-3.1016,-3.1269,-3.0889,-3.0889,-3.0889,-3.0889,-3.0889,-3.0889,-3.0889,-3.0889,-3.0889,-3.0889,-3.0889,-3.0889,-3.0889,-3.0889,-3.0889,-3.0889,-3.0889,-3.0889,-3.0889,-3.0889,-3.0889,-3.0889,-3.0889,-3.0889,-3.0889,-3.0889,-3.0889,-3.0889,-3.0889,-3.0889,-3.0889,-3.0889,-3.0527,-3.0234,-3.0234,-2.9502,-2.8945,-2.8916,-2.8555,-2.8291,-2.8291,-2.8291,-2.8291,-2.8291,-2.8291,-2.8291,-2.8291,-2.8291,-2.8291,-2.8184,-2.6825,-2.6054,-2.5972,-2.3103,-2.1586,-2.1586,-2.0148,-1.9424,-1.9424,-1.9424,-1.9424,-3.6282,-3.8881,-4.1722,-4.4041,-4.4217,-4.3953,-4.4505,-4.325,-4.1379,-3.9283,-3.5893,-3.2704,0.0,0.0,0.0,-3.3106,-3.3345,0.0,-3.8517,-3.7926,0.0,-3.7739,0.0,-3.8655,-3.9195,-3.8993,0.0,0.0,-3.8009,-3.6487,-3.4624,-3.6666,-3.7228,-3.5848,-3.76,-3.7714,-3.5859,-3.564,-3.4868,-3.3584,-3.3476,-3.3418,-3.3418,-3.331,-3.3086,-3.2773,-3.2676,-3.2207,-3.1573,-3.1514,-3.1269,-3.0889,-3.0889,-3.0889,-3.0889,-3.0889,-3.0889,-3.0889,-3.0889,-3.0889,-3.0889,-3.0889,-3.0889,-3.0889,-3.0889,-3.0889,-3.0889,-3.0889,-3.0889,-3.0889,-3.0889,-3.0889,-3.0889,-3.0889,-3.0889,-3.0889,-3.0889,-3.0889,-3.0889,-3.0889,-3.0889,-3.0889,-3.0889,-3.0791,-3.0713,-3.0713,-2.9971,-2.9287,-2.8955,-2.8555,-2.8291,-2.8291,-2.8291,-2.8291,-2.8291,-2.8291,-2.8291,-2.8291,-2.8291,-2.7789,-2.6717,-2.6318,-2.5544,-2.4386,-2.2533,-2.1586,-2.1586,-2.0148,-1.9424,-1.9424,-1.9424,-1.9424,-3.8868,-4.1254,-4.3601,-4.5108,-4.4631,-4.3627,-4.2974,-4.1103,-3.8668,-3.5717,-3.2742,-3.003,-2.7871,-2.6703,0.0,0.0,0.0,0.0,-3.726,-3.7222,-3.7136,0.0,-3.8881,0.0,-4.0777,-4.0141,-3.981,0.0,-3.8145,-3.6376,-3.5065,-3.6331,-3.651,-3.5144,-3.666,-3.68,-3.5439,-3.4941,-3.4267,-3.3418,-3.3418,-3.3418,-3.3418,-3.3418,-3.3018,-3.2314,0.0,-3.1953,-3.1045,-3.1182,-3.1103,-3.0889,-3.0889,-3.0889,-3.0889,-3.0889,-3.0889,-3.0889,-3.0889,-3.0889,-3.0889,-3.0889,-3.0889,-3.0889,-3.0889,-3.0889,-3.0889,-3.0889,-3.0889,-3.0889,-3.0889,-3.0889,-3.0889,-3.0889,-3.0889,-3.0889,-3.0889,-3.0889,-3.0889,-3.0889,-3.0889,-3.0889,-3.0889,-3.0889,-3.0889,-3.0889,-3.0293,-2.9687,-2.9258,-2.8672,-2.8291,-2.8291,-2.8291,-2.8291,-2.8291,-2.8291,-2.8291,-2.8291,-2.7672,-2.6943,-2.6155,-2.4812,-2.3702,-2.287,-2.1373,-2.0644,-2.0644,-1.9815,-1.9424,-1.9424,-1.9424,-1.9424,-4.1559,-4.3363,-4.4756,-4.5347,-4.4531,-4.3049,-4.099,-3.8617,-3.5818,-3.2152,-3.0294,-2.8612,-2.6163,-2.5649,-2.6565,-2.9528,0.0,-3.2503,-3.5739,-3.6795,-3.7575,-3.863,-3.9308,-4.0187,-4.1388,-4.0933,-4.0645,-4.0976,-3.8758,-3.7291,-3.711,-3.6434,-3.5706,-3.4851,-3.5478,-3.5449,-3.4629,-3.4609,-3.4209,-3.3418,-3.3418,-3.3418,-3.3418,-3.3418,-3.2588,-3.1182,0.0,0.0,-2.9883,-3.0596,-3.0889,-3.0889,-3.0889,-3.0889,-3.0889,-3.0889,-3.0889,-3.0889,-3.0889,-3.0889,-3.0889,-3.0889,-3.0889,-3.0889,-3.0889,-3.0889,-3.0889,-3.0889,-3.0889,-3.0889,-3.0889,-3.0889,-3.0889,-3.0889,-3.0889,-3.0889,-3.0889,-3.0889,-3.0889,-3.0889,-3.0889,-3.0889,-3.0889,-3.0889,-3.0889,-3.0889,-3.0498,-3.0039,-2.9675,-2.8877,-2.8359,-2.8301,-2.8291,-2.8291,-2.8291,-2.8121,-2.8014,-2.8014,-2.6608,-2.5709,-2.5489,-2.2975,-2.1529,-2.1309,-2.0074,-1.9426,-1.9426,-1.9426,-1.9426,-1.9426,-1.9444,-1.9424,-4.2087,-4.3363,-4.4756,-4.5347,-4.3953,-4.215,-4.0802,-3.7739,0.0,0.0,-2.9101,-2.6927,-2.6436,-2.5946,-2.6804,-3.0507,-3.1273,-3.224,-3.4663,-3.6257,-3.7425,0.0,-3.9069,-4.0488,-4.2497,-4.1758,0.0,0.0,0.0,-4.0133,-3.7891,-3.6669,-3.5815,-3.5283,-3.5049,-3.4687,-3.4189,-3.418,-3.3926,-3.3418,-3.3418,-3.3418,-3.3418,-3.3418,-3.3076,-3.2451,-3.2256,0.0,-3.1162,-3.0967,-3.0889,-3.0889,-3.0889,-3.0889,-3.0889,-3.0889,-3.0889,-3.0889,-3.0889,-3.0889,-3.0889,-3.0889,-3.0889,-3.0889,-3.0889,-3.0889,-3.0889,-3.0889,-3.0889,-3.0889,-3.0889,-3.0889,-3.0889,-3.0889,-3.0889,-3.0889,-3.0889,-3.0889,-3.0889,-3.0889,-3.0889,-3.0889,-3.0889,-3.0889,-3.0889,-3.0889,-3.0498,-3.0039,-2.9675,-2.9121,-2.8682,-2.833,-2.8291,-2.8291,-2.8291,-2.7168,-2.649,-2.649,-2.5049,-2.3654,-2.242,-2.1862,-2.1031,-1.9815,-1.9775,-1.9726,-1.9726,-1.9726,-1.9726,-1.972,-1.9479,-1.9424,-4.264,-4.4016,-4.5573,-4.5849,-4.4016,-4.1471,-3.858,0.0,0.0,0.0,-2.7118,-2.5959,-2.5661,-2.5385,0.0,-2.9566,-3.0357,-3.1537,-3.4336,-3.5655,0.0,-3.868,-3.9371,-4.0337,0.0,0.0,0.0,0.0,0.0,-3.8702,-3.8823,-3.6404,-3.5127,-3.5391,-3.4726,-3.4277,-3.4072,-3.4072,-3.3848,-3.3418,-3.3418,-3.3418,-3.3418,-3.3418,-3.3193,-3.2773,-3.2353,0.0,-3.0527,-3.0781,-3.0488,-2.9932,-3.0625,-3.0889,-3.0889,-3.0889,-3.0889,-3.0889,-3.0889,-3.0889,-3.0889,-3.0889,-3.0889,-3.0889,-3.0889,-3.0889,-3.0889,-3.0889,-3.0889,-3.0889,-3.0889,-3.0889,-3.0889,-3.0889,-3.0889,-3.0889,-3.0889,-3.0889,-3.0889,-3.0889,-3.0889,-3.0889,-3.0889,-3.0889,-3.0889,-3.0889,-3.0703,-3.04,-2.9951,-2.9717,-2.9258,-2.8389,-2.8486,-2.8246,-2.7241,-2.6692,-2.5995,-2.4948,-2.3487,-2.2363,-2.1643,-2.0866,-2.0148,-1.9424,-1.9653,-1.98,-1.98,-1.98,-1.988,-2.002,-1.9726,-1.9593,-4.3062,-4.4694,-4.625,-4.6012,-4.3865,-4.0739,-3.6611,-3.369,0.0,-2.6929,-2.585,-2.5548,-2.5385,-2.5159,-2.5887,0.0,-2.9089,-3.0319,-3.3872,-3.4705,-3.6094,0.0,-3.9546,0.0,-4.1392,0.0,0.0,0.0,0.0,0.0,-3.8538,-3.5725,-3.4394,-3.5088,-3.4346,-3.3935,-3.3935,-3.3935,-3.376,-3.3418,-3.3418,-3.3418,-3.3418,-3.333,-3.3057,-3.2637,-3.2207,0.0,0.0,-3.0527,-3.0166,-2.918,-3.041,-3.0889,-3.0889,-3.0889,-3.0889,-3.0889,-3.0889,-3.0889,-3.0889,-3.0889,-3.0889,-3.0889,-3.0889,-3.0889,-3.0889,-3.0889,-3.0889,-3.0889,-3.0889,-3.0889,-3.0889,-3.0889,-3.0889,-3.0889,-3.0889,-3.0889,-3.0889,-3.0889,-3.0889,-3.0889,-3.0889,-3.0889,-3.0889,-3.0889,-3.0889,-3.0723,-3.0254,-3.0195,-2.9775,-2.8682,-2.852,-2.7899,-2.6435,-2.5948,-2.5042,-2.3505,-2.1964,-2.1145,-2.1145,-2.0033,-1.9424,-1.9424,-1.9713,-1.9893,-1.9893,-1.996,-2.0074,-2.0167,-1.9933,-1.9766,-4.3313,-4.4995,-4.6062,-4.5033,-4.271,-3.991,-3.6998,0.0,-3.0218,-2.8273,-2.6653,-2.59,-2.6879,-2.6214,-2.644,-2.9252,-2.8096,-2.8309,-3.2616,-3.3269,-3.4512,-3.7776,0.0,0.0,0.0,0.0,0.0,0.0,0.0,0.0,-3.5236,-3.4491,-3.4111,-3.4189,-3.373,-3.3476,-3.3476,-3.3476,-3.3457,-3.3418,-3.3418,-3.3418,-3.3408,-3.3027,-3.2627,-3.2207,-3.1768,0.0,0.0,-3.0527,-3.0342,-2.96,-3.0527,-3.0889,-3.0889,-3.0889,-3.0889,-3.0889,-3.0889,-3.0889,-3.0889,-3.0889,-3.0889,-3.0889,-3.0889,-3.0889,-3.0889,-3.0889,-3.0889,-3.0889,-3.0889,-3.0889,-3.0889,-3.0889,-3.0889,-3.0889,-3.0889,-3.0889,-3.0889,-3.0889,-3.0889,-3.0889,-3.0889,-3.0889,-3.0889,-3.0889,-3.0889,-3.0723,-3.0254,-3.0195,-3.001,-2.9502,-2.8145,-2.7173,-2.7023,-2.4179,-2.2339,-2.2193,-2.0577,-1.9591,-1.9591,-1.9482,-1.9424,-1.9424,-1.9913,-2.0133,-2.0133,-2.0461,-2.0468,-2.0167,-1.9933,-1.9659,-4.1467,-4.3777,-4.5623,-4.4819,-4.2547,-3.9534,-3.5755,0.0,-2.9955,-2.7607,-2.6625,-2.6285,-2.6738,-2.6138,-2.6076,-2.758,-2.6788,0.0,-3.106,-3.1863,-3.3671,-3.8015,0.0,0.0,0.0,0.0,0.0,0.0,0.0,0.0,-3.4015,-3.3769,-3.3799,-3.4062,-3.3643,-3.3418,-3.3418,-3.3418,-3.3418,-3.3418,-3.3164,-3.3047,-3.3027,-3.2607,-3.2187,-3.1768,-3.1592,0.0,0.0,-3.0098,-2.9756,-2.8223,-3.0137,-3.0889,-3.0889,-3.0889,-3.0889,-3.0889,-3.0889,-3.0889,-3.0889,-3.0889,-3.0889,-3.0889,-3.0889,-3.0889,-3.0889,-3.0889,-3.0889,-3.0889,-3.0889,-3.0889,-3.0889,-3.0889,-3.0889,-3.0889,-3.0889,-3.0889,-3.0889,-3.0889,-3.0889,-3.0889,-3.0889,-3.0889,-3.0889,-3.0889,-3.0889,-3.082,-3.0635,-3.0615,-3.0181,-2.8986,-2.804,-2.7035,-2.5857,-2.3862,-2.2097,-2.0732,-2.0033,-1.9553,-1.943,-1.9424,-1.9424,-1.9424,-1.994,-2.0173,-2.0173,-2.0535,-2.0702,-2.0748,-2.0281,-2.0094,-3.9634,-4.2333,-4.4606,-4.4041,-4.1568,-3.8341,0.0,0.0,-2.9227,-2.6964,-2.6361,-2.6285,-2.6461,-2.5757,-2.5423,-2.6348,-2.585,-2.6477,-2.9666,-3.0583,-3.2528,0.0,0.0,0.0,0.0,0.0,0.0,0.0,0.0,0.0,0.0,-3.3418,-3.3564,-3.3867,-3.3584,-3.3418,-3.3418,-3.3301,-3.3232,-3.3232,-3.2812,-3.248,-3.2226,-3.2051,-3.166,-3.1133,0.0,0.0,0.0,-3.0029,-2.9658,-2.7978,-3.0078,-3.0889,-3.0889,-3.0889,-3.0889,-3.0889,-3.0889,-3.0889,-3.0889,-3.0889,-3.0889,-3.0889,-3.0889,-3.0889,-3.0889,-3.0889,-3.0889,-3.0889,-3.0889,-3.0889,-3.0889,-3.0889,-3.0889,-3.0889,-3.0889,-3.0889,-3.0889,-3.0889,-3.0889,-3.0889,-3.0889,-3.0889,-3.0889,-3.0889,-3.0889,-3.0704,-3.0206,-3.0147,-2.953,-2.7871,-2.7029,-2.599,-2.4598,-2.3233,-2.1708,-2.002,-1.9927,-1.98,-1.9506,-1.9579,-1.9626,-1.9626,-2.0114,-2.0361,-2.0368,-2.0661,-2.0862,-2.0969,-2.0555,-2.0474,-3.8278,-4.0955,-4.2873,-4.2376,-3.9321,-3.6015,0.0,0.0,-2.7808,-2.6725,-2.6034,-2.5774,-2.6386,-2.5154,-2.4556,-2.6235,-2.5548,0.0,-2.8524,-2.9453,0.0,0.0,0.0,0.0,0.0,0.0,0.0,0.0,0.0,0.0,0.0,-3.3418,-3.3418,-3.3428,-3.3418,-3.3418,-3.3418,-3.3008,-3.2803,-3.2793,-3.2373,-3.1728,-3.0928,-3.1338,-3.1045,0.0,0.0,0.0,0.0,-3.0518,-3.0361,-2.9629,-3.0537,-3.0889,-3.0889,-3.0889,-3.0889,-3.0889,-3.0889,-3.0889,-3.0889,-3.0889,-3.0889,-3.0889,-3.0889,-3.0889,-3.0889,-3.0889,-3.0889,-3.0889,-3.0889,-3.0889,-3.0889,-3.0889,-3.0889,-3.0889,-3.0889,-3.0889,-3.0889,-3.0889,-3.0889,-3.0889,-3.0889,-3.0889,-3.0889,-3.0889,-3.0889,-3.0333,-2.8664,-2.8417,-2.7811,-2.6219,-2.4594,-2.3628,-2.3621,-2.1817,-2.0548,-2.0247,-2.0227,-2.01,-1.9806,-2.0067,-2.0167,-2.0167,-2.0514,-2.0675,-2.0675,-2.0962,-2.0955,-2.0681,-2.0675,-2.0675,-3.4876,-3.6935,-3.8378,-3.7776,-3.6144,-3.4148,-3.2114,0.0,-2.7682,-2.6176,-2.5724,-2.5548,-2.5372,-2.4908,-2.4983,-2.6285,-2.649,0.0,0.0,0.0,0.0,0.0,0.0,0.0,0.0,0.0,0.0,0.0,0.0,0.0,0.0,-3.3144,-3.2998,-3.2998,-3.2998,-3.2861,-3.2568,-3.2432,-3.2363,-3.2363,-3.1934,-3.1269,-3.043,-3.0889,0.0,0.0,0.0,0.0,0.0,-3.04,-3.0195,-2.9238,-3.043,-3.0889,-3.0889,-3.0889,-3.0889,-3.0889,-3.0889,-3.0889,-3.0889,-3.0889,-3.0889,-3.0889,-3.0889,-3.0889,-3.0889,-3.0889,-3.0889,-3.0889,-3.0889,-3.0889,-3.0889,-3.0889,-3.0889,-3.0889,-3.0889,-3.0889,-3.0889,-3.0889,-3.0889,-3.0889,-3.0889,-3.0889,-3.0889,-3.0889,-3.0889,-3.0274,-2.8605,-2.8417,-2.7383,-2.4655,-2.3876,-2.3574,-2.3574,-2.2006,-2.0848,-2.0555,-2.0535,-2.0401,-2.0107,-2.012,-2.0173,-2.0173,-2.0528,-2.0675,-2.0675,-2.0969,-2.0962,-2.0681,-2.0882,-2.0869,-3.224,-3.401,-3.5039,-3.47,-3.347,0.0,0.0,0.0,0.0,-2.585,-2.5774,-2.5699,-2.4926,-2.4788,-2.4983,-2.5481,-2.6373,0.0,0.0,0.0,0.0,0.0,0.0,0.0,0.0,0.0,0.0,0.0,0.0,0.0,0.0,0.0,-3.2646,-3.2324,-3.2471,-3.2432,-3.2229,-3.2002,-3.1924,-3.1924,-3.1484,-3.082,-2.998,-3.0605,0.0,0.0,0.0,0.0,0.0,-3.0547,-3.04,-2.9746,-3.0566,-3.0889,-3.0889,-3.0889,-3.0889,-3.0889,-3.0889,-3.0889,-3.0889,-3.0889,-3.0889,-3.0889,-3.0889,-3.0889,-3.0889,-3.0889,-3.0889,-3.0889,-3.0889,-3.0889,-3.0889,-3.0889,-3.0889,-3.0889,-3.0889,-3.0889,-3.0889,-3.0889,-3.0889,-3.0889,-3.0889,-3.0889,-3.0889,-3.0889,-3.0333,-2.9344,-2.7692,-2.6961,-2.5566,-2.2952,-2.2654,-2.2654,-2.2654,-2.1727,-2.0989,-2.0695,-2.0775,-2.0708,-2.0414,-2.0501,-2.0568,-2.0568,-2.0748,-2.0842,-2.0842,-2.1022,-2.1015,-2.0842,-2.1029,-2.1009,0.0,-3.1863,-3.2709,-3.2709,-3.1122,-2.9616,-2.9616,0.0,0.0,0.0,0.0,-2.6122,-2.5059,-2.4876,-2.477,0.0,0.0,0.0,0.0,0.0,0.0,0.0,0.0,0.0,0.0,0.0,0.0,0.0,0.0,0.0,0.0,0.0,-3.2344,-3.1543,-3.1885,-3.2141,-3.2141,-3.168,-3.1445,-3.1377,-3.1045,-3.04,-2.9567,-3.0459,0.0,0.0,0.0,0.0,0.0,-3.0889,-3.0889,-3.0889,-3.0889,-3.0889,-3.0889,-3.0889,-3.0889,-3.0889,-3.0889,-3.0889,-3.0889,-3.0889,-3.0889,-3.0889,-3.0889,-3.0889,-3.0889,-3.0889,-3.0889,-3.0889,-3.0889,-3.0889,-3.0889,-3.0889,-3.0889,-3.0889,-3.0889,-3.0889,-3.0889,-3.0889,-3.082,-3.0762,-3.0889,-3.082,-3.0762,-3.0889,-2.9471,-2.7811,-2.6227,-2.4594,-2.2959,-2.1292,-2.1109,-2.1109,-2.1109,-2.1109,-2.0995,-2.0722,-2.0962,-2.0989,-2.0722,-2.0962,-2.1109,-2.1109,-2.1109,-2.1109,-2.1109,-2.1109,-2.1109,-2.1109,-2.1109,-2.1109,-2.7957,0.0,-2.8637,-2.8637,-2.826,-2.7871,0.0,-2.6791,-2.5887,-2.6223,-2.6047,0.0,0.0,0.0,0.0,0.0,0.0,0.0,0.0,0.0,0.0,0.0,0.0,0.0,0.0,0.0,0.0,0.0,0.0,0.0,0.0,0.0,-3.1728,-3.1523,-3.1309,-3.1191,-3.1191,-3.1094,-3.0703,-3.0029,-3.0615,-3.0078,-2.8643,-3.0185,0.0,0.0,0.0,0.0,-3.0889,-3.0889,-3.0889,-3.0889,-3.0889,-3.0889,-3.0889,-3.0889,-3.0889,-3.0889,-3.0889,-3.0889,-3.0889,-3.0889,-3.0889,-3.0889,-3.0889,-3.0889,-3.0889,-3.0889,-3.0889,-3.0889,-3.0889,-3.0889,-3.0889,-3.0889,-3.0889,-3.0889,-3.0889,-3.0889,-3.0889,-3.0889,-2.9844,-2.9403,-3.0704,-2.9844,-2.9403,-3.0704,-2.9471,-2.7811,-2.6227,-2.4594,-2.2959,-2.1292,-2.1109,-2.1109,-2.1109,-2.1109,-2.1082,-2.1009,-2.1076,-2.1082,-2.1009,-2.1076,-2.1109,-2.1109,-2.1109,-2.1109,-2.1109,-2.1109,-2.1109,-2.1109,-2.1109,-2.1109,-2.7165,-2.714,-2.7065,-2.7532,-2.7281,-2.7065,-2.7544,-2.659,-2.5762,-2.6373,-2.6034,0.0,0.0,0.0,0.0,0.0,0.0,0.0,0.0,0.0,0.0,0.0,0.0,0.0,0.0,0.0,0.0,0.0,0.0,0.0,0.0,0.0,-3.1426,-3.124,-3.1006,-3.0889,-3.0889,-3.0889,-3.0628,-3.0093,-3.0648,-3.0352,-2.9357,-3.0177,-3.0312,0.0,0.0,0.0,-3.0547,-3.0146,-3.0342,-3.0889,-3.0889,-3.0889,-3.0889,-3.0889,-3.0889,-3.0889,-3.0889,-3.0889,-3.0889,-3.0889,-3.0889,-3.0889,-3.0889,-3.0889,-3.0889,-3.0889,-3.0889,-3.0889,-3.0889,-3.0889,-3.0889,-3.0889,-3.0889,-3.0889,-3.0889,-3.0889,-3.0889,-3.0889,-3.0147,-2.9844,-3.0762,-2.953,-2.897,-3.0645,-2.8197,-2.6175,-2.6045,-2.3923,-2.2097,-2.1172,-2.1109,-2.1109,-2.1109,-2.1109,-2.1109,-2.1109,-2.1109,-2.1109,-2.1109,-2.1109,-2.1109,-2.1109,-2.1109,-2.1109,-2.1109,-2.1109,-2.1109,-2.1109,-2.1109,-2.1109,-2.709,-2.6851,-2.6738,-2.772,-2.7092,-2.6537,-2.7607,-2.6553,-2.5586,0.0,0.0,0.0,0.0,-2.6189,0.0,0.0,0.0,0.0,0.0,0.0,0.0,0.0,0.0,0.0,0.0,0.0,0.0,0.0,0.0,0.0,0.0,0.0,0.0,-3.0898,-3.0889,-3.0859,-3.0781,-3.0781,-3.0658,-3.0358,-3.0561,-3.0528,-3.0222,-3.0145,-3.0098,0.0,0.0,0.0,-3.0049,-2.9385,-2.9775,-3.0791,-3.0859,-3.0889,-3.0889,-3.0889,-3.0889,-3.0889,-3.0889,-3.0889,-3.0889,-3.0889,-3.0889,-3.0889,-3.0889,-3.0889,-3.0889,-3.0889,-3.0889,-3.0889,-3.0889,-3.0889,-3.0889,-3.0889,-3.0889,-3.0889,-3.0889,-3.0889,-3.0889,-3.0889,-3.0704,-3.0518,-3.0518,-2.9157,-2.8545,-2.9962,-2.6434,-2.4116,-2.5436,-2.2999,-2.1109,-2.1109,-2.1109,-2.1109,-2.1109,-2.1109,-2.1109,-2.1109,-2.1109,-2.1109,-2.1109,-2.1109,-2.1109,-2.1109,-2.1109,-2.1109,-2.1109,-2.1109,-2.1109,-2.1109,-2.1109,-2.1109,-2.6725,-2.6562,-2.665,-2.7291,-2.6226,-2.536,-2.6499,-2.5468,-2.4795,0.0,0.0,0.0,0.0,-2.8888,-2.9415,0.0,0.0,0.0,0.0,0.0,0.0,0.0,0.0,0.0,0.0,0.0,0.0,0.0,0.0,0.0,0.0,0.0,0.0,-3.0889,-3.0889,-3.0703,-3.0303,-3.0303,-2.989,-2.9189,-2.9603,-2.9398,-2.8676,-2.9378,-2.9668,0.0,0.0,-2.9482,-2.9687,-2.9912,-3.0117,-3.0342,-3.0732,-3.0889,-3.0889,-3.0889,-3.0889,-3.0889,-3.0889,-3.0889,-3.0889,-3.0889,-3.0889,-3.0889,-3.0889,-3.0889,-3.0889,-3.0889,-3.0889,-3.0889,-3.0889,-3.0889,-3.0889,-3.0889,-3.0889,-3.0889,-3.0889,-3.0889,-3.0889,-3.0889,-2.9776,-2.8783,-2.8783,-2.7443,-2.647,-2.6712,-2.4962,-2.3698,-2.3938,-2.2278,-2.1109,-2.1109,-2.1109,-2.1109,-2.1109,-2.1109,-2.1109,-2.1109,-2.1109,-2.1109,-2.1109,-2.1109,-2.1109,-2.1109,-2.1109,-2.1109,-2.1109,-2.1109,-2.1109,-2.1109,-2.1109,-2.1109,-2.6185,-2.6021,-2.6235,-2.7067,-2.649,-2.6151,-2.7907,-2.6502,-2.5485,-2.7708,0.0,0.0,0.0,0.0,0.0,0.0,0.0,0.0,0.0,0.0,0.0,0.0,0.0,0.0,0.0,0.0,0.0,0.0,0.0,0.0,0.0,0.0,0.0,0.0,-3.0293,-3.0078,-2.9863,-2.9619,-2.9391,-2.9094,-2.9451,-2.9312,-2.8864,-2.908,-2.9219,-2.918,0.0,-2.8584,-2.9199,-2.8935,-2.9238,-2.9902,-3.0342,-3.0381,-3.0205,-3.043,-3.0674,-3.0889,-3.0889,-3.0889,-3.0889,-3.0889,-3.0889,-3.0889,-3.0889,-3.0889,-3.0889,-3.0889,-3.0889,-3.0889,-3.0889,-3.0889,-3.0889,-3.0889,-3.0206,-2.9776,-3.0704,-3.0206,-2.9835,-3.0704,-3.0274,-2.9776,-2.9776,-2.7692,-2.628,-2.7202,-2.4409,-2.2591,-2.345,-2.216,-2.1109,-2.1109,-2.1109,-2.1109,-2.1109,-2.1109,-2.1109,-2.1109,-2.1109,-2.1109,-2.1109,-2.1109,-2.1109,-2.1109,-2.1109,-2.1109,-2.1109,-2.1109,-2.1109,-2.1109,-2.1109,-2.1109,-2.595,-2.5799,-2.6038,-2.7065,-2.6713,-2.6763,-2.9227,-2.762,-2.6339,-2.8963,-2.7293,0.0,0.0,0.0,0.0,0.0,0.0,0.0,0.0,0.0,0.0,0.0,0.0,0.0,0.0,0.0,0.0,0.0,0.0,0.0,0.0,0.0,0.0,0.0,-2.9736,-2.9521,-2.9414,-2.9082,-2.8995,-2.9197,-2.9253,-2.9208,-2.9054,-2.8832,-2.8769,-2.8721,-2.7734,-2.7871,-2.873,-2.8184,-2.8535,-2.9463,-2.9883,-2.9853,-2.9665,-2.9932,-3.0342,-3.0732,-3.0732,-3.0801,-3.0889,-3.0889,-3.0889,-3.0889,-3.0889,-3.0889,-3.0889,-3.0889,-3.0889,-3.0889,-3.0889,-3.0889,-3.0889,-3.0889,-2.9648,-2.8852,-3.0518,-2.9589,-2.8783,-3.0089,-3.0645,-3.0645,-2.9903,-2.7692,-2.6288,-2.7151,-2.3737,-2.1544,-2.2834,-2.1908,-2.1109,-2.1109,-2.1109,-2.1109,-2.1109,-2.1109,-2.1109,-2.1109,-2.1109,-2.1109,-2.1109,-2.1109,-2.1109,-2.1109,-2.1109,-2.1109,-2.1109,-2.1109,-2.1109,-2.1109,-2.1109,-2.1109,-2.6587,-2.6436,-2.6575,-2.7165,-2.6101,-2.5787,-2.9051,-2.762,-2.6666,-3.0432,-3.0231,-2.9741,0.0,0.0,0.0,0.0,0.0,0.0,0.0,0.0,0.0,0.0,0.0,0.0,0.0,0.0,0.0,0.0,0.0,0.0,0.0,0.0,0.0,0.0,-2.9646,-2.9375,-2.8975,-2.8935,-2.8887,-2.8927,-2.8579,-2.8384,-2.8349,-2.8354,-2.834,-2.833,-2.8242,-2.8252,-2.8359,-2.8691,-2.8887,-2.9014,-2.9443,-2.9655,-2.957,-2.96,-2.9883,-3.0244,-3.0244,-3.0537,-3.0889,-3.0889,-3.0889,-3.0889,-3.0889,-3.0889,-3.0889,-3.0889,-3.0889,-3.0889,-3.0889,-3.0889,-3.0889,-3.0889,-2.9648,-2.8852,-3.0518,-2.9589,-2.8417,-2.8545,-2.9844,-2.9903,-2.6901,-2.6158,-2.5497,-2.4178,-2.2341,-2.1172,-2.1229,-2.1172,-2.1109,-2.1109,-2.1109,-2.1109,-2.1109,-2.1109,-2.1109,-2.1109,-2.1109,-2.1109,-2.1109,-2.1109,-2.1109,-2.1109,-2.1109,-2.1109,-2.1109,-2.1109,-2.1109,-2.1109,-2.1109,-2.1109,-2.6197,-2.6223,-2.6625,-2.7178,-2.6289,-2.6264,-2.9942,-2.9164,-2.8574,-3.1775,-3.1035,-2.9917,0.0,0.0,0.0,0.0,0.0,0.0,0.0,0.0,0.0,0.0,0.0,0.0,0.0,0.0,0.0,0.0,0.0,0.0,0.0,0.0,0.0,-2.917,-2.8906,-2.8701,-2.8535,-2.8535,-2.8535,-2.8525,-2.8369,-2.8291,-2.8291,-2.8291,-2.8291,-2.8291,-2.8291,-2.8291,-2.8301,-2.8467,-2.8535,-2.8545,-2.8711,-2.9101,-2.9531,-2.9268,-2.96,-3.0195,-3.0195,-3.0312,-3.0508,-3.0801,-3.0693,-3.0518,-3.0801,-3.0889,-3.0889,-3.0889,-3.0889,-3.0889,-3.0889,-3.0889,-3.0889,-3.0889,-2.8852,-2.7632,-3.0333,-2.8009,-2.6001,-2.8,-2.8119,-2.7452,-2.6219,-2.52,-2.4294,-2.369,-2.216,-2.1109,-2.1109,-2.1109,-2.1109,-2.1109,-2.1109,-2.1109,-2.1109,-2.1109,-2.1109,-2.1109,-2.1109,-2.1109,-2.1109,-2.1109,-2.1109,-2.1109,-2.1109,-2.1109,-2.1109,-2.1109,-2.1109,-2.1109,-2.1109,-2.1209,-2.6126,-2.6197,-2.6625,-2.7178,-2.66,-2.6862,-3.0643,-3.0288,-3.0013,-3.2883,-3.1772,-3.041,-3.0679,0.0,0.0,0.0,0.0,0.0,0.0,0.0,0.0,0.0,0.0,0.0,0.0,0.0,0.0,0.0,0.0,0.0,0.0,0.0,0.0,0.0,-2.8437,-2.8232,-2.8096,-2.8096,-2.8027,-2.7891,-2.7891,-2.8027,-2.8291,-2.8291,-2.8291,-2.8291,-2.8291,-2.8291,-2.8291,-2.8291,-2.8291,-2.8291,-2.8291,-2.8652,-2.9131,-2.8828,-2.918,-2.9795,-2.9795,-2.9883,-3.0049,-3.0371,-3.0254,-3.0059,-3.0381,-3.0566,-3.0674,-3.0674,-3.0781,-3.0889,-3.0889,-3.0518,-3.0089,-3.0089,-2.764,-2.5993,-2.8742,-2.6305,-2.424,-2.6478,-2.6409,-2.5855,-2.5322,-2.4355,-2.3574,-2.3574,-2.216,-2.1109,-2.1109,-2.1109,-2.1109,-2.1109,-2.1109,-2.1109,-2.1109,-2.1109,-2.1109,-2.1109,-2.1109,-2.1109,-2.1109,-2.1109,-2.1109,-2.1109,-2.1109,-2.1109,-2.1109,-2.1109,-2.1109,-2.1109,-2.1109,-2.1269,-2.665,-2.6499,-2.6625,-2.7178,-2.6901,-2.7419,-3.089,-3.073,-3.067,-3.3589,-3.2791,-3.1739,-3.2547,-3.1191,0.0,0.0,0.0,0.0,0.0,0.0,0.0,0.0,0.0,0.0,0.0,0.0,0.0,0.0,0.0,0.0,0.0,0.0,0.0,0.0,-2.8281,-2.8086,-2.7718,-2.7708,-2.7441,-2.7012,-2.7012,-2.7461,-2.8281,-2.8281,-2.8281,-2.8281,-2.8281,-2.8281,-2.8281,-2.8281,-2.8291,-2.8291,-2.8291,-2.8291,-2.8291,-2.8291,-2.8555,-2.8916,-2.8916,-2.9199,-2.956,-2.9626,-2.9626,-2.956,-2.9626,-2.9863,-3.0195,-3.0195,-3.0527,-3.0889,-3.0889,-2.9658,-2.8417,-2.8417,-2.594,-2.4054,-2.568,-2.4717,-2.3574,-2.3574,-2.4893,-2.5436,-2.3876,-2.3574,-2.3574,-2.3574,-2.2153,-2.1109,-2.1109,-2.1109,-2.1109,-2.1109,-2.1109,-2.1109,-2.1109,-2.1109,-2.1109,-2.1109,-2.1109,-2.1109,-2.1109,-2.1109,-2.1109,-2.1109,-2.1109,-2.1109,-2.1109,-2.1109,-2.1109,-2.1109,-2.1109,-2.1276,-2.7115,-2.6788,0.0,-2.7178,0.0,0.0,-2.9726,-3.0652,-3.1714,-3.4539,-3.3576,-3.2171,-3.204,0.0,0.0,0.0,0.0,0.0,0.0,0.0,0.0,0.0,0.0,0.0,0.0,0.0,0.0,0.0,0.0,0.0,0.0,0.0,0.0,0.0,-2.7393,-2.7334,-2.7207,-2.7207,-2.7148,-2.7012,-2.7012,-2.7148,-2.7402,-2.7715,-2.7851,-2.7851,-2.7851,-2.7851,-2.7851,-2.7851,-2.8027,-2.8291,-2.8291,-2.8291,-2.8291,-2.8291,-2.8555,-2.8916,-2.8916,-2.9004,-2.916,-2.9473,-2.9365,-2.917,-2.9473,-2.9658,-2.9814,-3.0107,-3.0293,-3.0478,-3.0801,-2.9658,-2.8417,-2.8417,-2.594,-2.4054,-2.568,-2.3799,-2.2223,-2.3387,-2.3014,-2.2389,-2.1908,-2.1846,-2.1846,-2.1846,-2.1418,-2.1109,-2.1109,-2.1109,-2.1109,-2.1109,-2.1109,-2.1109,-2.1109,-2.1109,-2.1109,-2.1109,-2.1109,-2.1109,-2.1109,-2.1109,-2.1109,-2.1109,-2.1109,-2.1109,-2.1109,-2.1109,-2.1216,-2.1423,-2.1423,-2.169,-2.7379,-2.7065,0.0,-2.7668,-2.7525,-2.7676,-2.9548,0.0,0.0,0.0,-3.3665,-3.1645,-3.2695,0.0,0.0,0.0,0.0,0.0,0.0,0.0,0.0,0.0,0.0,0.0,0.0,0.0,0.0,0.0,0.0,0.0,0.0,0.0,0.0,0.0,-2.7012,-2.6934,-2.6768,-2.6592,-2.6454,-2.6504,-2.6328,-2.6338,-2.6473,-2.7129,-2.7402,-2.7402,-2.7402,-2.7402,-2.7402,-2.7402,-2.7656,-2.8047,-2.8047,-2.8144,-2.8291,-2.8291,-2.8447,-2.8672,-2.8672,-2.8672,-2.8711,-2.8975,-2.8887,-2.8721,-2.8984,-2.918,-2.9365,-2.9619,-2.9932,-3.0264,-3.0547,-2.9517,-2.823,-2.7623,-2.5513,-2.369,-2.3977,-2.2514,-2.1418,-2.2404,-2.179,-2.1109,-2.1109,-2.1109,-2.1109,-2.1109,-2.1109,-2.1109,-2.1109,-2.1109,-2.1109,-2.1109,-2.1109,-2.1109,-2.1109,-2.1109,-2.1109,-2.1109,-2.1109,-2.1109,-2.1109,-2.1109,-2.1109,-2.1109,-2.1109,-2.1109,-2.1109,-2.1109,-2.1263,-2.1614,-2.143,-2.175,-2.7362,-2.721,-2.7394,-2.8131,-2.8539,0.0,-2.9875,-3.0512,-3.2113,-3.6256,0.0,-3.073,0.0,0.0,0.0,0.0,0.0,0.0,0.0,0.0,0.0,0.0,0.0,0.0,0.0,0.0,0.0,0.0,0.0,0.0,0.0,0.0,0.0,0.0,-2.6777,-2.6592,-2.6211,-2.5771,-2.5567,0.0,-2.5205,-2.5244,-2.5654,-2.6562,-2.6963,-2.6963,-2.6963,-2.6963,-2.6963,-2.6963,-2.7217,-2.766,-2.766,-2.7842,-2.8184,-2.8223,-2.8213,-2.8184,-2.8262,-2.8271,-2.8242,-2.8281,-2.8291,-2.8291,-2.8291,-2.8564,-2.8867,-2.8906,-2.9482,-3.0041,-3.0005,-2.9175,-2.7887,-2.6219,-2.4655,-2.3201,-2.1664,-2.1235,-2.1109,-2.1109,-2.1109,-2.1109,-2.1109,-2.1109,-2.1109,-2.1109,-2.1109,-2.1109,-2.1109,-2.1109,-2.1109,-2.1109,-2.1109,-2.1109,-2.1109,-2.1109,-2.1109,-2.1109,-2.1109,-2.1109,-2.1109,-2.1109,-2.1109,-2.1109,-2.1109,-2.1109,-2.1109,-2.1109,-2.1263,-2.1608,-2.1276,-2.159,-2.682,-2.6661,0.0,0.0,-2.7115,-2.8156,-2.8977,-2.9456,-3.0523,-3.3387,-3.2347,0.0,0.0,0.0,0.0,0.0,0.0,0.0,0.0,0.0,0.0,0.0,0.0,0.0,0.0,0.0,0.0,0.0,0.0,0.0,0.0,0.0,0.0,-2.498,-2.498,-2.4932,-2.4844,-2.4746,-2.4697,0.0,-2.46,-2.4785,-2.5244,-2.6123,-2.6523,-2.6523,-2.6523,-2.6523,-2.6523,-2.6523,-2.6768,-2.7158,-2.7158,-2.7207,-2.7324,-2.7676,-2.7588,-2.7383,-2.8057,-2.8076,-2.7851,-2.8184,-2.8291,-2.8291,-2.8291,-2.8359,-2.8496,-2.8828,-2.9053,-2.9068,-2.8438,-2.8137,-2.7263,-2.4723,-2.3876,-2.3512,-2.3139,-2.2034,-2.1109,-2.1109,-2.1109,-2.1109,-2.1109,-2.1109,-2.1109,-2.1109,-2.1109,-2.1109,-2.1109,-2.1109,-2.1109,-2.1109,-2.1109,-2.1109,-2.1109,-2.1109,-2.1109,-2.1109,-2.1109,-2.1109,-2.1109,-2.1109,-2.1109,-2.1109,-2.1109,-2.1109,-2.1109,-2.1109,-2.1263,-2.1614,-2.1554,-2.1683,-2.6576,0.0,0.0,-2.7167,0.0,-2.7851,-2.836,-2.9014,-2.9733,-3.059,0.0,0.0,0.0,0.0,0.0,0.0,0.0,0.0,0.0,0.0,0.0,0.0,0.0,0.0,0.0,0.0,0.0,0.0,0.0,0.0,0.0,-2.4629,-2.4648,-2.4424,-2.4414,-2.4414,-2.4414,-2.4219,-2.4219,-2.4414,-2.4209,-2.4336,-2.4775,-2.5449,-2.5644,-2.5439,-2.5439,-2.5439,-2.5459,-2.5664,-2.6006,-2.6426,-2.6631,-2.6836,-2.7041,-2.7266,-2.7207,-2.708,-2.7529,-2.7539,-2.7393,-2.7607,-2.7822,-2.7988,-2.7988,-2.8135,-2.834,-2.8555,-2.876,-2.8794,-2.8436,-2.7941,-2.7235,-2.5894,-2.4607,-2.3387,-2.2591,-2.1727,-2.1109,-2.1109,-2.1109,-2.1109,-2.1109,-2.1109,-2.1109,-2.1109,-2.1109,-2.1109,-2.1109,-2.1109,-2.1109,-2.1109,-2.1109,-2.1109,-2.1109,-2.1109,-2.1109,-2.1109,-2.1109,-2.1109,-2.1109,-2.1109,-2.1109,-2.1109,-2.1109,-2.1109,-2.1109,-2.1256,-2.1476,-2.1757,-2.1757,-2.1991,-2.6242,0.0,-2.7627,-2.8081,-2.7742,0.0,-2.7754,-2.8489,-2.8949,0.0,0.0,0.0,0.0,0.0,0.0,0.0,0.0,0.0,0.0,0.0,0.0,0.0,0.0,0.0,0.0,0.0,0.0,0.0,0.0,0.0,-2.4199,-2.4268,-2.4277,-2.4199,-2.4199,-2.4199,-2.4199,-2.3857,-2.3857,-2.4189,-2.3916,-2.3935,-2.4209,-2.4648,-2.4687,-2.4414,-2.4414,-2.4414,-2.4453,-2.4893,-2.5283,-2.5615,-2.6103,-2.6484,-2.6807,-2.6875,-2.6865,-2.6816,-2.6963,-2.6973,-2.6934,-2.708,-2.7373,-2.7728,-2.7806,-2.8018,-2.8291,-2.8291,-2.8373,-2.8427,-2.8449,-2.7642,-2.6902,-2.7248,-2.5395,-2.3135,-2.1839,-2.1292,-2.1109,-2.1109,-2.1109,-2.1109,-2.1109,-2.1109,-2.1109,-2.1109,-2.1109,-2.1109,-2.1109,-2.1109,-2.1109,-2.1109,-2.1109,-2.1109,-2.1109,-2.1109,-2.1109,-2.1109,-2.1109,-2.1109,-2.1109,-2.1109,-2.1109,-2.1109,-2.1109,-2.1109,-2.1109,-2.1356,-2.163,-2.1911,-2.1911,-2.2198,-2.5155,0.0,-2.5301,0.0,-2.5605,-2.588,0.0,0.0,0.0,0.0,0.0,0.0,0.0,0.0,0.0,0.0,0.0,0.0,0.0,0.0,0.0,0.0,0.0,0.0,0.0,0.0,0.0,0.0,0.0,0.0,-2.3286,-2.3672,-2.3701,-2.3276,-2.3266,-2.3266,-2.3266,-2.3208,-2.3208,-2.3266,-2.3633,-2.3623,-2.3276,-2.376,-2.4131,-2.4414,-2.4414,-2.4414,-2.4453,-2.4893,-2.5145,-2.5205,-2.5654,-2.581,-2.5908,-2.6328,-2.623,-2.5966,-2.6758,-2.6777,-2.6592,-2.7334,-2.7669,-2.7787,-2.8096,-2.8252,-2.8291,-2.8291,-2.7431,-2.6546,-2.6735,-2.5787,-2.4844,-2.5511,-2.4291,-2.3039,-2.3204,-2.216,-2.1109,-2.1109,-2.1109,-2.1109,-2.1109,-2.1109,-2.1109,-2.1109,-2.1109,-2.1109,-2.1109,-2.1109,-2.1109,-2.1109,-2.1109,-2.1109,-2.1109,-2.1109,-2.1109,-2.1109,-2.1109,-2.1109,-2.1109,-2.1109,-2.1109,-2.1109,-2.1109,-2.1109,-2.1109,-2.1149,-2.1316,-2.1675,-2.1675,-2.179,-2.5147,-2.498,-2.4799,0.0,-2.5231,-2.5315,-2.5811,0.0,0.0,0.0,0.0,0.0,0.0,0.0,0.0,0.0,0.0,0.0,0.0,0.0,0.0,0.0,0.0,0.0,0.0,0.0,0.0,0.0,0.0,-2.334,-2.311,-2.3276,-2.3296,-2.3101,-2.3091,-2.3091,-2.3091,-2.3091,-2.3091,-2.3091,-2.3286,-2.3276,-2.3101,-2.3296,-2.3481,-2.3656,-2.3656,-2.3656,-2.3686,-2.417,-2.4355,-2.4394,-2.4824,-2.4953,-2.5049,-2.5488,-2.5527,-2.5449,-2.6084,-2.6182,-2.6084,-2.6465,-2.6748,-2.7031,-2.7451,-2.7754,-2.7988,-2.8223,-2.7222,-2.6145,-2.6271,-2.5134,-2.391,-2.3543,-2.2912,-2.2303,-2.2041,-2.1484,-2.1109,-2.1109,-2.1109,-2.1109,-2.1109,-2.1109,-2.1109,-2.1109,-2.1109,-2.1109,-2.1109,-2.1109,-2.1109,-2.1109,-2.1109,-2.1109,-2.1109,-2.1109,-2.1109,-2.1109,-2.1109,-2.1109,-2.1109,-2.1269,-2.1356,-2.1356,-2.1196,-2.1109,-2.1109,-2.1276,-2.151,-2.1797,-2.1964,-2.2198,0.0,0.0,-2.4528,-2.4915,-2.4776,-2.4632,0.0,0.0,0.0,0.0,0.0,0.0,0.0,0.0,0.0,0.0,0.0,0.0,0.0,0.0,0.0,0.0,0.0,0.0,0.0,0.0,0.0,0.0,0.0,-2.3091,-2.3091,-2.3091,-2.3091,-2.3091,-2.3091,-2.3091,-2.3091,-2.3091,-2.3091,-2.3091,-2.3091,-2.3091,-2.3091,-2.3091,-2.3091,-2.3091,-2.3091,-2.3091,-2.313,-2.3613,-2.3789,-2.3828,-2.4248,-2.4414,-2.4453,-2.4785,-2.5018,-2.5117,-2.5449,-2.5596,-2.5703,-2.582,-2.6123,-2.6484,-2.7021,-2.7402,-2.7806,-2.8174,-2.7222,-2.61,-2.61,-2.4931,-2.3576,-2.2847,-2.2296,-2.1767,-2.0808,-2.0848,-2.1089,-2.1009,-2.1056,-2.1109,-2.1109,-2.1109,-2.1109,-2.1109,-2.1109,-2.1109,-2.1109,-2.1109,-2.1109,-2.1109,-2.1109,-2.1109,-2.1109,-2.1109,-2.1109,-2.1109,-2.1109,-2.1109,-2.1109,-2.1396,-2.1614,-2.1614,-2.141,-2.1296,-2.1223,-2.137,-2.1623,-2.1991,-2.2211,-2.2505,0.0,-2.3637,0.0,-2.39,-2.353,0.0,0.0,0.0,0.0,0.0,0.0,0.0,0.0,0.0,0.0,0.0,0.0,0.0,0.0,0.0,0.0,0.0,0.0,0.0,0.0,0.0,0.0,0.0,0.0,-2.3091,-2.3091,-2.3091,-2.3091,-2.3091,-2.3091,-2.3091,-2.3091,-2.3091,-2.3091,-2.3091,-2.3091,-2.3091,-2.3091,-2.3091,-2.3091,-2.3091,-2.3091,-2.3091,-2.313,-2.3613,-2.3789,-2.3828,-2.4248,-2.4414,-2.4414,-2.4443,-2.4717,-2.5116,-2.5145,-2.5381,-2.5762,-2.6221,-2.6367,-2.6543,-2.7434,-2.7699,-2.7806,-2.8174,-2.7222,-2.61,-2.61,-2.4931,-2.3921,-2.4284,-2.3163,-2.1642,-2.0476,-2.0702,-2.1029,-2.0755,-2.0922,-2.1109,-2.1109,-2.1109,-2.1109,-2.1109,-2.1109,-2.1109,-2.1109,-2.1109,-2.1109,-2.1109,-2.1109,-2.1109,-2.1109,-2.1109,-2.1109,-2.1109,-2.1109,-2.1109,-2.1109,-2.1396,-2.1614,-2.1614,-2.181,-2.1804,-2.1594,-2.1263,-2.143,-2.1984,-2.1997,-2.2311,0.0,0.0,0.0,-2.3447,-2.3224,-2.3187,0.0,0.0,0.0,0.0,0.0,0.0,0.0,0.0,0.0,0.0,0.0,0.0,0.0,0.0,0.0,0.0,0.0,0.0,0.0,0.0,0.0,0.0,0.0,0.0,-2.3125,-2.3463,-2.3398,-2.2734,-2.2691,-2.2607,-2.2334,-2.2607,-2.2607,-2.2344,-2.2838,-2.2955,-2.2701,-2.2974,-2.3091,-2.3091,-2.3091,-2.3091,-2.311,-2.3266,-2.3369,-2.3389,-2.3491,-2.3549,-2.3617,-2.4209,-2.4521,-2.4736,-2.5303,-2.5605,-2.5713,-2.5918,-2.5967,-2.6133,-2.6992,-2.7246,-2.7393,-2.8096,-2.7222,-2.5873,-2.4875,-2.4211,-2.3575,-2.2802,-2.1583,-2.0403,-1.9811,-2.0287,-2.0802,-2.0702,-2.0909,-2.1109,-2.1109,-2.1109,-2.1109,-2.1109,-2.1109,-2.1109,-2.1109,-2.1109,-2.1109,-2.1109,-2.1109,-2.1109,-2.1109,-2.1109,-2.1109,-2.1109,-2.1109,-2.1109,-2.1109,-2.1396,-2.1702,-2.1824,-2.1931,-2.1844,-2.1614,-2.1507,-2.1503,-2.1775,-2.1897,-2.2198,-2.3192,0.0,0.0,0.0,0.0,0.0,0.0,0.0,0.0,0.0,0.0,0.0,0.0,0.0,0.0,0.0,0.0,0.0,0.0,0.0,0.0,0.0,0.0,0.0,0.0,0.0,0.0,0.0,0.0,0.0,-2.292,-2.3275,-2.3148,-2.2305,-2.2305,-2.2168,-2.1885,-2.2168,-2.2158,-2.1894,-2.2451,-2.2646,-2.2519,-2.276,-2.2964,-2.3091,-2.3091,-2.3091,-2.3091,-2.3091,-2.3091,-2.3091,-2.3091,-2.3091,-2.3169,-2.3734,-2.4082,-2.4307,-2.5039,-2.5391,-2.5537,-2.5635,-2.5693,-2.582,-2.6592,-2.6807,-2.6982,-2.7842,-2.7015,-2.5539,-2.4178,-2.3047,-2.2104,-2.1088,-2.0243,-1.9599,-1.947,-2.006,-2.0648,-2.0548,-2.0842,-2.1109,-2.1109,-2.1109,-2.1109,-2.1109,-2.1109,-2.1109,-2.1109,-2.1109,-2.1109,-2.1109,-2.1109,-2.1109,-2.1109,-2.1109,-2.1109,-2.1109,-2.1109,-2.1109,-2.1109,-2.1396,-2.1708,-2.1837,-2.2031,-2.1991,-2.1762,-2.1661,-2.1668,-2.1769,-2.1797,-2.2044,0.0,0.0,0.0,0.0,0.0,0.0,0.0,0.0,0.0,0.0,0.0,0.0,0.0,0.0,0.0,0.0,0.0,0.0,0.0,0.0,0.0,0.0,0.0,0.0,0.0,0.0,0.0,0.0,0.0,-2.291,-2.251,-2.248,-2.2285,-2.1875,-2.1855,-2.1846,-2.1846,-2.1865,-2.1865,-2.1865,-2.1894,-2.2119,-2.251,-2.2519,-2.2711,-2.3091,-2.3091,-2.3091,-2.3091,-2.3091,-2.3091,-2.3091,-2.3091,-2.3091,-2.3091,-2.311,-2.3428,-2.3857,-2.4287,-2.4717,-2.5184,-2.5596,-2.5693,-2.5771,-2.626,-2.6387,-2.6562,-2.7422,-2.6548,-2.5156,-2.4,-2.1601,-1.9424,-1.9424,-1.9424,-1.943,-1.9437,-2.0054,-2.0575,-2.0287,-2.0708,-2.1109,-2.1109,-2.1109,-2.1109,-2.1109,-2.1109,-2.1109,-2.1109,-2.1109,-2.1109,-2.1109,-2.1109,-2.1109,-2.1109,-2.1109,-2.1109,-2.1109,-2.1109,-2.1109,-2.1109,-2.139,-2.1608,-2.1614,-2.2104,-2.2258,-2.1984,-2.1769,-2.1769,-2.1964,-2.1762,-2.1877,-2.3108,0.0,0.0,0.0,0.0,0.0,0.0,0.0,0.0,0.0,0.0,0.0,0.0,0.0,0.0,0.0,0.0,0.0,0.0,0.0,0.0,0.0,0.0,0.0,0.0,0.0,0.0,0.0,-2.2775,-2.2575,-2.2092,-2.1758,-2.1492,-2.1416,-2.1103,-2.0967,-2.0967,-2.125,-2.1375,-2.1385,-2.2041,-2.2402,-2.2519,-2.2779,-2.2984,-2.3091,-2.3091,-2.3091,-2.3091,-2.3091,-2.3091,-2.3091,-2.3091,-2.3091,-2.313,-2.3496,-2.3682,-2.3896,-2.4629,-2.4971,-2.5184,-2.5596,-2.5693,-2.5771,-2.626,-2.6387,-2.6352,-2.6104,-2.5726,-2.4932,-2.2775,-2.0816,-1.9424,-1.9424,-1.9424,-1.9426,-1.9633,-2.0034,-2.0334,-2.0247,-2.0708,-2.1109,-2.1109,-2.1109,-2.1109,-2.1109,-2.1109,-2.1109,-2.1109,-2.1109,-2.1109,-2.1109,-2.1109,-2.1109,-2.1109,-2.1109,-2.1109,-2.1109,-2.1109,-2.1109,-2.1109,-2.1189,-2.1336,-2.1614,-2.1775,-2.1857,-2.1984,-2.1904,-2.1797,-2.1742,-2.1804,-2.2178,-2.3108,-2.3108,-2.3108,0.0,0.0,0.0,-2.3233,-2.341,0.0,0.0,0.0,0.0,0.0,0.0,0.0,0.0,0.0,0.0,0.0,0.0,0.0,0.0,0.0,0.0,0.0,0.0,0.0,-2.2246,-2.2331,-2.2151,-2.1652,-2.1201,-2.0957,-2.0957,-2.0742,-2.0605,-2.0605,-2.083,-2.0957,-2.0967,-2.1465,-2.1894,-2.2266,-2.251,-2.2769,-2.3091,-2.3091,-2.3091,-2.3091,-2.3091,-2.3091,-2.3091,-2.3091,-2.3091,-2.312,-2.3428,-2.3516,-2.3613,-2.4297,-2.4648,-2.4873,-2.5312,-2.5538,-2.5664,-2.5465,-2.5437,-2.5293,-2.4642,-2.4147,-2.3321,-2.1207,-2.0033,-1.9424,-1.9424,-1.9424,-1.9446,-1.974,-2.0027,-2.0267,-2.0394,-2.0795,-2.1109,-2.1109,-2.1109,-2.1109,-2.1109,-2.1109,-2.1109,-2.1109,-2.1109,-2.1109,-2.1109,-2.1109,-2.1109,-2.1109,-2.1109,-2.1109,-2.1109,-2.1109,-2.1109,-2.1109,-2.1109,-2.1189,-2.1363,-2.161,-2.1877,-2.2164,-2.2044,-2.1897,-2.1737,-2.2031,-2.2352,-2.3195,-2.3158,-2.3108,0.0,0.0,0.0,-2.3233,-2.3228,-2.3118,0.0,0.0,0.0,0.0,0.0,0.0,0.0,0.0,0.0,0.0,0.0,0.0,0.0,0.0,0.0,0.0,-2.1846,-2.1816,-2.1816,-2.1768,-2.1572,-2.1142,-2.0781,-2.0605,-2.0605,-2.0605,-2.0605,-2.0605,-2.0605,-2.0625,-2.0674,-2.0674,-2.1103,-2.1953,-2.1953,-2.2383,-2.3091,-2.3091,-2.3091,-2.3091,-2.3091,-2.3091,-2.3091,-2.3091,-2.3091,-2.3091,-2.3091,-2.3091,-2.3159,-2.3633,-2.4062,-2.4492,-2.4969,-2.5371,-2.5498,-2.4409,-2.408,-2.3918,-2.3141,-2.2171,-2.1031,-1.9758,-1.9424,-1.9424,-1.9424,-1.9424,-1.9446,-1.974,-2.0027,-2.0321,-2.0615,-2.0909,-2.1109,-2.1109,-2.1109,-2.1109,-2.1109,-2.1109,-2.1109,-2.1109,-2.1109,-2.1109,-2.1109,-2.1109,-2.1109,-2.1109,-2.1109,-2.1109,-2.1109,-2.1109,-2.1109,-2.1109,-2.1109,-2.1109,-2.1109,-2.165,-2.2098,-2.2418,-2.2158,-2.2031,-2.2038,-2.2298,-2.2438,0.0,0.0,0.0,0.0,0.0,0.0,-2.3233,-2.3492,-2.3587,0.0,0.0,0.0,0.0,0.0,0.0,0.0,0.0,0.0,0.0,0.0,0.0,0.0,0.0,0.0,0.0,-2.1562,-2.1317,-2.1317,-2.1025,-2.083,-2.0742,-2.0654,-2.0605,-2.0605,-2.0605,-2.0605,-2.0605,-2.0605,-2.0752,-2.1064,-2.1064,-2.1562,-2.2393,-2.2393,-2.2666,-2.3091,-2.3091,-2.3091,-2.3091,-2.3091,-2.3091,-2.3091,-2.3091,-2.3091,-2.3091,-2.3091,-2.3091,-2.3159,-2.3633,-2.4062,-2.4492,-2.4969,-2.5371,-2.545,-2.4189,-2.3916,-2.3703,-2.1885,-2.0621,-1.9758,-1.9482,-1.9424,-1.9424,-1.9424,-1.9424,-1.9446,-1.974,-2.0027,-2.0321,-2.0615,-2.0909,-2.1109,-2.1109,-2.1109,-2.1109,-2.1109,-2.1109,-2.1109,-2.1109,-2.1109,-2.1109,-2.1109,-2.1109,-2.1109,-2.1109,-2.1109,-2.1109,-2.1109,-2.1109,-2.1109,-2.1109,-2.1109,-2.1109,-2.1109,-2.1456,-2.1897,-2.2418,-2.2358,-2.2338,-2.2338,-2.2392,-2.2545,0.0,0.0,0.0,-2.3108,0.0,0.0,0.0,-2.3183,-2.311,0.0,0.0,0.0,0.0,0.0,0.0,0.0,0.0,0.0,0.0,0.0,0.0,0.0,0.0,0.0,0.0,-2.1035,-2.0898,-2.0898,-2.0693,-2.0605,-2.0605,-2.0605,-2.0605,-2.0605,-2.0605,-2.0605,-2.0605,-2.0605,-2.0713,-2.0898,-2.0898,-2.1357,-2.2197,-2.2197,-2.2539,-2.3091,-2.3091,-2.3091,-2.3091,-2.3091,-2.3091,-2.3091,-2.3091,-2.3091,-2.3091,-2.3091,-2.3091,-2.312,-2.3389,-2.3887,-2.4453,-2.4668,-2.4746,-2.4498,-2.3263,-2.2135,-2.1071,-2.0017,-1.9463,-1.9145,-1.9145,-1.9259,-1.9424,-1.9424,-1.9424,-1.9446,-1.974,-2.0027,-2.0321,-2.0615,-2.0909,-2.1109,-2.1109,-2.1109,-2.1109,-2.1109,-2.1109,-2.1109,-2.1109,-2.1109,-2.1109,-2.1109,-2.1109,-2.1109,-2.1109,-2.1109,-2.1109,-2.1109,-2.1109,-2.1109,-2.1109,-2.1109,-2.1249,-2.1537,-2.1837,-2.2198,-2.2639,-2.2639,-2.2639,-2.2639,-2.2639,-2.2719,0.0,0.0,0.0,0.0,0.0,-2.3108,0.0,0.0,0.0,0.0,0.0,0.0,0.0,0.0,0.0,0.0,0.0,0.0,0.0,0.0,0.0,0.0,0.0,0.0,0.0,-2.0378,-2.0429,-2.0595,-2.0527,-2.0517,-2.0595,-2.0605,-2.0605,-2.0605,-2.0605,-2.0605,-2.0605,-2.0605,-2.0605,-2.0605,-2.0605,-2.1026,-2.1768,-2.1846,-2.2305,-2.2984,-2.3062,-2.3091,-2.3091,-2.3091,-2.3091,-2.3091,-2.3091,-2.3091,-2.3091,-2.3091,-2.3091,-2.3047,-2.2818,-2.3275,-2.3929,-2.3718,-2.3331,-2.2745,-2.195,-2.0162,-1.843,-1.8544,-1.8744,-1.8938,-1.8991,-1.9185,-1.9424,-1.9424,-1.9424,-1.9432,-1.9666,-1.9987,-2.0301,-2.0541,-2.0869,-2.1109,-2.1109,-2.1109,-2.1109,-2.1109,-2.1109,-2.1109,-2.1109,-2.1109,-2.1109,-2.1109,-2.1109,-2.1109,-2.1109,-2.1109,-2.1109,-2.1109,-2.1109,-2.1109,-2.1109,-2.1162,-2.1443,-2.1977,-2.2271,-2.2565,-2.2928,-2.2926,-2.2919,-2.2928,-2.2926,-2.2953,0.0,0.0,0.0,0.0,-2.3108,0.0,0.0,0.0,-2.3044,0.0,0.0,0.0,0.0,0.0,0.0,0.0,0.0,0.0,0.0,0.0,0.0,0.0,0.0,0.0,0.0,0.0,-1.9783,-2.0546,-2.0205,-2.0156,-2.0586,-2.0605,-2.0605,-2.0605,-2.0605,-2.0605,-2.0605,-2.0605,-2.0605,-2.0605,-2.0605,-2.083,-2.1278,-2.1709,-2.2139,-2.2607,-2.2935,-2.3091,-2.3091,-2.3091,-2.3091,-2.3091,-2.3091,-2.3091,-2.3091,-2.3091,-2.3091,-2.296,-2.1889,-2.1834,-2.2143,-2.1281,-2.0571,-2.0101,-2.0287,-1.9266,-1.8149,-1.8724,-1.8898,-1.8985,-1.9252,-1.9339,-1.9424,-1.9424,-1.9424,-1.9437,-1.947,-1.9846,-2.018,-2.0274,-2.0728,-2.1109,-2.1109,-2.1109,-2.1109,-2.1109,-2.1109,-2.1109,-2.1109,-2.1109,-2.1109,-2.1109,-2.1109,-2.1109,-2.1109,-2.1109,-2.1109,-2.1109,-2.1109,-2.1109,-2.1109,-2.1363,-2.1722,-2.1977,-2.2271,-2.2565,-2.2928,-2.314,-2.3133,-2.2941,-2.3146,-2.3273,0.0,0.0,0.0,0.0,0.0,0.0,-2.3184,0.0,-2.3509,0.0,0.0,0.0,0.0,0.0,0.0,0.0,0.0,0.0,0.0,0.0,0.0,0.0,0.0,0.0,0.0,0.0,0.0,0.0,0.0,-1.9521,-1.9443,-2.0194,-2.0488,-2.0195,-2.0478,-2.0605,-2.0605,-2.0605,-2.0605,-2.0605,-2.0605,-2.0801,-2.12,-2.1385,-2.1875,-2.2519,-2.2705,-2.2867,-2.3091,-2.3091,-2.3091,-2.3091,-2.3091,-2.3091,-2.3091,-2.3091,-2.3091,-2.2916,-2.1702,-2.1717,-2.199,-2.0522,-1.9854,-1.9502,-1.8819,-1.8241,-1.7829,-1.8076,-1.8397,-1.8698,-1.8824,-1.9112,-1.9424,-1.9424,-1.9424,-1.9424,-1.9424,-1.982,-2.0173,-2.0173,-2.0708,-2.1109,-2.1109,-2.1109,-2.1109,-2.1109,-2.1109,-2.1109,-2.1109,-2.1109,-2.1109,-2.1109,-2.1109,-2.1109,-2.1109,-2.1109,-2.1109,-2.1109,-2.1269,-2.137,-2.137,-2.181,-2.2111,-2.2231,-2.2525,-2.2739,-2.2928,-2.3173,-2.326,-2.314,-2.3447,-2.3494,-2.3234,0.0,0.0,0.0,0.0,0.0,0.0,0.0,0.0,0.0,0.0,0.0,0.0,0.0,0.0,0.0,0.0,0.0,0.0,0.0,0.0,0.0,0.0,0.0,0.0,0.0,0.0,0.0,-1.9043,-1.9023,-1.8792,-1.9932,-2.0458,-2.0098,-2.0439,-2.0605,-2.0605,-2.0605,-2.0605,-2.0605,-2.0605,-2.0732,-2.1055,-2.1142,-2.1531,-2.2178,-2.2412,-2.2685,-2.2925,-2.3052,-2.3091,-2.3091,-2.3091,-2.3091,-2.3091,-2.3091,-2.3091,-2.2862,-2.1346,-2.0795,-2.0637,-1.9364,-1.8999,-1.8864,-1.7891,-1.7582,-1.7602,-1.7689,-1.8083,-1.851,-1.8591,-1.8985,-1.9424,-1.9424,-1.9424,-1.9424,-1.9424,-1.982,-2.0173,-2.0173,-2.0708,-2.1109,-2.1109,-2.1109,-2.1109,-2.1109,-2.1109,-2.1109,-2.1109,-2.1109,-2.1109,-2.1109,-2.1109,-2.1109,-2.1109,-2.1109,-2.1109,-2.1109,-2.139,-2.1614,-2.1614,-2.2111,-2.2418,-2.2418,-2.2712,-2.2928,-2.2928,-2.326,-2.3447,-2.3454,-2.3748,-2.3734,0.0,0.0,0.0,-2.384,0.0,0.0,0.0,0.0,-2.3991,0.0,0.0,0.0,0.0,0.0,0.0,0.0,0.0,0.0,0.0,0.0,0.0,0.0,0.0,0.0,0.0,0.0,0.0,-1.8018,-1.8393,-1.8802,-1.9248,-2.0136,-2.0595,-2.0586,-2.0595,-2.0605,-2.0605,-2.0605,-2.0605,-2.0605,-2.0605,-2.0615,-2.0635,-2.1035,-2.121,-2.1278,-2.2107,-2.2519,-2.2568,-2.2925,-2.3091,-2.3091,-2.3091,-2.3091,-2.3091,-2.3091,-2.3091,-2.2775,-2.0404,-1.8373,-1.6954,-1.7214,-1.7459,-1.7687,-1.7635,-1.7582,-1.7649,-1.7896,-1.8257,-1.8557,-1.8838,-1.9138,-1.9424,-1.9424,-1.9424,-1.9424,-1.9424,-1.982,-2.0173,-2.0173,-2.0708,-2.1109,-2.1109,-2.1109,-2.1109,-2.1109,-2.1109,-2.1109,-2.1109,-2.1109,-2.1109,-2.1109,-2.1109,-2.1109,-2.1109,-2.1109,-2.1109,-2.1109,-2.139,-2.1614,-2.1614,-2.2111,-2.2418,-2.2418,-2.2712,-2.2928,-2.2928,-2.3467,-2.3754,-2.3761,-2.4055,-2.4035,0.0,0.0,-2.3144,-2.3332,0.0,0.0,0.0,0.0,0.0,0.0,0.0,0.0,0.0,0.0,0.0,0.0,0.0,0.0,0.0,0.0,0.0,0.0,0.0,0.0,0.0,0.0,0.0,-1.7096,-1.7262,-1.7314,0.0,-1.8815,-1.959,-1.9297,-2.0117,-2.0605,-2.0605,-2.0605,-2.0605,-2.0605,-2.0605,-2.0605,-2.0605,-2.0723,-2.0957,-2.122,-2.1846,-2.21,-2.2129,-2.2549,-2.2682,-2.2682,-2.2682,-2.2847,-2.3091,-2.3091,-2.258,-2.1607,-1.9571,-1.7884,-1.6787,-1.7275,-1.7554,-1.7582,-1.7582,-1.7582,-1.7602,-1.7709,-1.8103,-1.851,-1.8611,-1.9005,-1.9424,-1.9424,-1.9424,-1.9424,-1.9424,-1.982,-2.0173,-2.0173,-2.0708,-2.1109,-2.1109,-2.1109,-2.1109,-2.1109,-2.1109,-2.1109,-2.1109,-2.1109,-2.1109,-2.1109,-2.1109,-2.1109,-2.1109,-2.1109,-2.1109,-2.1109,-2.157,-2.1837,-2.1837,-2.2398,-2.2712,-2.2712,-2.2812,-2.2928,-2.2928,-2.3544,-2.3774,-2.3781,-2.4068,-2.4048,-2.3114,-2.3112,0.0,-2.336,-2.3293,0.0,-2.2984,0.0,0.0,0.0,0.0,0.0,0.0,0.0,0.0,0.0,0.0,0.0,0.0,0.0,0.0,0.0,0.0,0.0,0.0,0.0,-1.6153,-1.6219,-1.6521,-1.667,0.0,0.0,-1.9228,-1.9056,-2.0049,-2.0605,-2.0605,-2.0605,-2.0605,-2.0605,-2.0605,-2.0605,-2.0605,-2.0605,-2.0723,-2.1025,-2.1465,-2.165,-2.1689,-2.2109,-2.2373,-2.251,-2.251,-2.2773,-2.3091,-2.3091,-2.2041,-2.0436,-1.8906,-1.7562,-1.6647,-1.7235,-1.7481,-1.7501,-1.7549,-1.7582,-1.7602,-1.7716,-1.811,-1.8517,-1.8617,-1.9005,-1.9424,-1.9424,-1.9424,-1.9424,-1.9424,-1.974,-2.008,-2.008,-2.0468,-2.0802,-2.0802,-2.0882,-2.0989,-2.1096,-2.1109,-2.1109,-2.1109,-2.1109,-2.1109,-2.1109,-2.1109,-2.1109,-2.1109,-2.1109,-2.1109,-2.1109,-2.1563,-2.1877,-2.1984,-2.2445,-2.2806,-2.3026,-2.2919,-2.2919,-2.3026,-2.342,-2.3614,-2.3621,-2.3915,-2.3895]}]]